[[{"header":{"parameterUnit":"m.s-1","parameterCategory":1,"la1":31.0,"la2":29.5877,"lo1":-88.7671,"lo2":-86.6584,"dy":0.0162,"dx":0.0185,"nx":115,"ny":88,"refTime":"2023-11-14T18:00:00:Z","depth":0,"parameterNumber":2,"parameterNumberName":"U-component_of_WINDS"},"data":[0.0,0.0,0.0,0.0,0.0,0.0,0.0,0.0,0.0,0.0,0.0,0.0,0.0,0.0,0.0,0.0,0.0,0.0,0.0,0.0,0.0,0.0,0.0,0.0,0.0,0.0,0.0,0.0,0.0,0.0,0.0,0.0,0.0,0.0,0.0,0.0,0.0,0.0,0.0,0.0,0.0,0.0,0.0,0.0,0.0,0.0,0.0,0.0,0.0,0.0,0.0,0.0,0.0,0.0,0.0,0.0,0.0,0.0,0.0,0.0,0.0,0.0,0.0,0.0,0.0,0.0,0.0,0.0,0.0,0.0,0.0,0.0,0.0,0.0,0.0,0.0,0.0,0.0,0.0,0.0,0.0,0.0,0.0,0.0,0.0,0.0,0.0,0.0,0.0,0.0,0.0,0.0,0.0,0.0,0.0,0.0,0.0,0.0,0.0,0.0,0.0,0.0,0.0,0.0,0.0,0.0,0.0,0.0,0.0,0.0,0.0,0.0,0.0,0.0,0.0,0.0,0.0,0.0,0.0,0.0,0.0,0.0,0.0,0.0,0.0,0.0,0.0,0.0,0.0,0.0,0.0,0.0,0.0,0.0,0.0,0.0,0.0,0.0,0.0,0.0,0.0,0.0,0.0,0.0,0.0,0.0,0.0,0.0,0.0,0.0,0.0,0.0,0.0,0.0,0.0,0.0,0.0,0.0,0.0,0.0,0.0,0.0,0.0,0.0,0.0,0.0,0.0,0.0,0.0,0.0,0.0,0.0,0.0,0.0,0.0,0.0,0.0,0.0,0.0,0.0,0.0,0.0,0.0,0.0,0.0,0.0,0.0,0.0,0.0,0.0,0.0,0.0,0.0,0.0,0.0,0.0,0.0,0.0,0.0,0.0,0.0,0.0,0.0,0.0,0.0,0.0,0.0,0.0,0.0,0.0,0.0,0.0,0.0,0.0,0.0,0.0,0.0,0.0,0.0,0.0,0.0,0.0,0.0,0.0,0.0,0.0,0.0,0.0,0.0,0.0,0.0,0.0,0.0,0.0,0.0,0.0,0.0,0.0,0.0,0.0,0.0,0.0,0.0,0.0,0.0,0.0,0.0,0.0,0.0,0.0,0.0,0.0,0.0,0.0,0.0,0.0,0.0,0.0,0.0,0.0,0.0,0.0,0.0,0.0,0.0,0.0,0.0,0.0,0.0,0.0,0.0,0.0,0.0,0.0,0.0,0.0,0.0,0.0,0.0,0.0,0.0,0.0,0.0,0.0,0.0,0.0,0.0,0.0,0.0,0.0,0.0,0.0,0.0,0.0,0.0,0.0,0.0,0.0,0.0,0.0,0.0,0.0,0.0,0.0,0.0,0.0,0.0,0.0,0.0,0.0,0.0,0.0,0.0,0.0,0.0,0.0,0.0,0.0,0.0,0.0,0.0,0.0,0.0,0.0,0.0,0.0,0.0,0.0,0.0,0.0,0.0,0.0,0.0,0.0,0.0,0.0,0.0,0.0,0.0,0.0,0.0,0.0,0.0,0.0,0.0,0.0,0.0,0.0,0.0,0.0,0.0,0.0,0.0,0.0,0.0,0.0,0.0,0.0,0.0,0.0,0.0,0.0,0.0,0.0,0.0,0.0,0.0,0.0,0.0,0.0,0.0,0.0,0.0,0.0,0.0,0.0,0.0,0.0,0.0,0.0,0.0,0.0,0.0,0.0,0.0,0.0,0.0,0.0,0.0,0.0,0.0,0.0,0.0,0.0,0.0,0.0,0.0,0.0,0.0,0.0,0.0,0.0,0.0,0.0,0.0,0.0,0.0,0.0,0.0,0.0,0.0,0.0,0.0,0.0,0.0,0.0,0.0,0.0,0.0,0.0,0.0,0.0,0.0,0.0,0.0,0.0,0.0,0.0,0.0,0.0,0.0,0.0,0.0,0.0,0.0,0.0,0.0,0.0,0.0,0.0,0.0,0.0,0.0,0.0,0.0,0.0,0.0,0.0,0.0,0.0,0.0,0.0,0.0,0.0,0.0,0.0,0.0,0.0,0.0,0.0,0.0,0.0,0.0,0.0,0.0,0.0,0.0,0.0,0.0,0.0,0.0,0.0,0.0,0.0,0.0,0.0,0.0,0.0,0.0,0.0,0.0,0.0,0.0,0.0,0.0,0.0,0.0,0.0,0.0,0.0,0.0,0.0,0.0,0.0,0.0,0.0,0.0,0.0,0.0,0.0,0.0,0.0,0.0,0.0,0.0,0.0,0.0,0.0,0.0,0.0,0.0,0.0,0.0,0.0,0.0,0.0,0.0,0.0,0.0,0.0,0.0,0.0,0.0,0.0,0.0,0.0,0.0,0.0,0.0,0.0,0.0,0.0,0.0,0.0,0.0,0.0,0.0,0.0,0.0,0.0,0.0,0.0,0.0,0.0,0.0,0.0,0.0,0.0,0.0,0.0,0.0,0.0,0.0,0.0,0.0,0.0,0.0,0.0,0.0,0.0,0.0,0.0,0.0,0.0,0.0,0.0,0.0,0.0,0.0,0.0,0.0,0.0,0.0,0.0,0.0,0.0,0.0,0.0,0.0,0.0,0.0,0.0,0.0,0.0,0.0,0.0,0.0,0.0,0.0,0.0,0.0,0.0,0.0,0.0,0.0,0.0,0.0,0.0,0.0,0.0,0.0,0.0,0.0,0.0,0.0,0.0,0.0,0.0,0.0,0.0,0.0,0.0,0.0,0.0,0.0,0.0,0.0,0.0,0.0,0.0,0.0,0.0,0.0,0.0,0.0,0.0,0.0,0.0,0.0,0.0,0.0,0.0,0.0,0.0,0.0,0.0,0.0,0.0,0.0,0.0,0.0,0.0,0.0,0.0,0.0,0.0,0.0,0.0,0.0,0.0,0.0,0.0,0.0,0.0,0.0,0.0,0.0,0.0,0.0,0.0,0.0,0.0,0.0,0.0,0.0,0.0,0.0,0.0,0.0,0.0,0.0,0.0,0.0,0.0,0.0,0.0,0.0,0.0,0.0,0.0,0.0,0.0,0.0,0.0,0.0,0.0,0.0,0.0,0.0,0.0,0.0,0.0,0.0,0.0,0.0,0.0,0.0,0.0,0.0,0.0,0.0,0.0,0.0,0.0,0.0,0.0,0.0,0.0,0.0,0.0,0.0,0.0,0.0,0.0,0.0,0.0,0.0,0.0,0.0,0.0,0.0,0.0,0.0,0.0,0.0,0.0,0.0,0.0,0.0,0.0,0.0,0.0,0.0,0.0,0.0,0.0,0.0,0.0,0.0,0.0,0.0,0.0,0.0,0.0,0.0,0.0,0.0,0.0,0.0,0.0,0.0,0.0,0.0,0.0,0.0,0.0,0.0,0.0,0.0,0.0,0.0,0.0,0.0,0.0,0.0,0.0,0.0,0.0,0.0,0.0,0.0,0.0,0.0,0.0,0.0,0.0,0.0,0.0,0.0,0.0,0.0,0.0,0.0,0.0,0.0,0.0,0.0,0.0,0.0,0.0,0.0,0.0,0.0,0.0,0.0,0.0,0.0,0.0,0.0,0.0,0.0,0.0,0.0,0.0,0.0,0.0,0.0,0.0,0.0,0.0,0.0,0.0,0.0,0.0,0.0,0.0,0.0,0.0,0.0,0.0,0.0,0.0,0.0,0.0,0.0,0.0,0.0,0.0,0.0,0.0,0.0,0.0,0.0,0.0,0.0,0.0,0.0,0.0,0.0,0.0,0.0,0.0,0.0,0.0,0.0,0.0,0.0,0.0,0.0,0.0,0.0,0.0,0.0,0.0,0.0,0.0,0.0,0.0,0.0,0.0,0.0,0.0,0.0,0.0,0.0,0.0,0.0,0.0,0.0,0.0,0.0,0.0,0.0,0.0,0.0,0.0,0.0,0.0,0.0,0.0,0.0,0.0,0.0,0.0,0.0,0.0,0.0,0.0,0.0,0.0,0.0,0.0,0.0,0.0,0.0,0.0,0.0,0.0,0.0,0.0,0.0,0.0,0.0,0.0,0.0,0.0,0.0,0.0,0.0,0.0,0.0,0.0,0.0,0.0,0.0,0.0,0.0,0.0,0.0,0.0,0.0,0.0,0.0,0.0,0.0,0.0,0.0,0.0,0.0,0.0,0.0,0.0,0.0,0.0,0.0,0.0,0.0,0.0,0.0,0.0,0.0,0.0,0.0,0.0,0.0,0.0,0.0,0.0,0.0,0.0,0.0,0.0,0.0,0.0,0.0,0.0,0.0,0.0,0.0,0.0,0.0,0.0,0.0,0.0,0.0,0.0,3.0522,0.0,0.0,0.0,0.0,0.0,0.0,0.0,0.0,0.0,0.0,0.0,0.0,0.0,0.0,0.0,0.0,0.0,0.0,0.0,0.0,0.0,0.0,0.0,0.0,0.0,0.0,0.0,0.0,0.0,0.0,0.0,0.0,0.0,0.0,0.0,0.0,0.0,0.0,0.0,0.0,0.0,0.0,0.0,0.0,0.0,0.0,0.0,0.0,0.0,0.0,0.0,0.0,0.0,0.0,0.0,0.0,0.0,0.0,0.0,0.0,0.0,0.0,0.0,0.0,0.0,0.0,0.0,0.0,0.0,0.0,0.0,0.0,0.0,0.0,0.0,0.0,0.0,0.0,0.0,0.0,0.0,0.0,0.0,0.0,0.0,0.0,0.0,0.0,0.0,0.0,0.0,0.0,0.0,0.0,0.0,0.0,0.0,0.0,0.0,0.0,0.0,0.0,0.0,0.0,0.0,0.0,0.0,0.0,0.0,0.0,3.1511,3.1511,3.1511,3.1361,3.1046,0.0,0.0,0.0,0.0,0.0,0.0,0.0,0.0,0.0,0.0,0.0,0.0,0.0,0.0,0.0,0.0,0.0,0.0,0.0,0.0,0.0,0.0,0.0,0.0,0.0,0.0,0.0,0.0,0.0,0.0,0.0,0.0,0.0,0.0,0.0,0.0,0.0,0.0,0.0,0.0,0.0,0.0,0.0,0.0,0.0,0.0,0.0,0.0,0.0,0.0,0.0,0.0,0.0,0.0,0.0,0.0,0.0,0.0,0.0,0.0,0.0,0.0,0.0,0.0,0.0,0.0,0.0,0.0,0.0,0.0,0.0,0.0,0.0,0.0,0.0,0.0,0.0,0.0,0.0,0.0,0.0,0.0,0.0,0.0,0.0,0.0,0.0,0.0,0.0,0.0,0.0,0.0,0.0,0.0,0.0,0.0,0.0,0.0,0.0,0.0,0.0,0.0,0.0,0.0,0.0,0.0,0.0,0.0,0.0,0.0,0.0,0.0,3.1838,3.1556,3.1244,0.0,0.0,0.0,0.0,0.0,0.0,0.0,0.0,0.0,0.0,0.0,0.0,0.0,0.0,0.0,0.0,0.0,0.0,0.0,0.0,0.0,0.0,0.0,0.0,0.0,0.0,0.0,0.0,0.0,0.0,0.0,0.0,0.0,0.0,0.0,0.0,0.0,0.0,0.0,0.0,0.0,0.0,0.0,0.0,0.0,0.0,0.0,0.0,0.0,0.0,0.0,0.0,0.0,0.0,0.0,0.0,0.0,0.0,0.0,0.0,0.0,0.0,0.0,0.0,0.0,0.0,0.0,0.0,0.0,0.0,0.0,0.0,0.0,0.0,0.0,0.0,0.0,0.0,0.0,0.0,0.0,0.0,0.0,0.0,0.0,0.0,0.0,0.0,0.0,0.0,0.0,0.0,0.0,0.0,0.0,0.0,0.0,0.0,0.0,0.0,0.0,0.0,0.0,0.0,0.0,0.0,0.0,0.0,0.0,0.0,3.3653,3.3757,3.287,0.0,3.0549,0.0,0.0,0.0,0.0,0.0,0.0,0.0,0.0,0.0,0.0,0.0,0.0,0.0,0.0,0.0,0.0,0.0,0.0,0.0,0.0,0.0,0.0,0.0,0.0,0.0,0.0,0.0,0.0,0.0,0.0,0.0,0.0,0.0,0.0,0.0,0.0,0.0,0.0,0.0,0.0,0.0,0.0,0.0,0.0,0.0,0.0,0.0,0.0,0.0,0.0,0.0,0.0,0.0,0.0,0.0,0.0,0.0,0.0,0.0,0.0,0.0,0.0,0.0,0.0,0.0,0.0,0.0,0.0,0.0,0.0,0.0,0.0,0.0,0.0,0.0,0.0,0.0,0.0,0.0,0.0,0.0,0.0,0.0,0.0,0.0,0.0,0.0,0.0,0.0,0.0,0.0,0.0,0.0,0.0,0.0,0.0,0.0,0.0,0.0,0.0,0.0,0.0,0.0,0.0,0.0,0.0,0.0,0.0,0.0,0.0,3.353,3.3683,3.32,3.2288,0.0,0.0,0.0,0.0,0.0,0.0,0.0,0.0,0.0,0.0,0.0,0.0,0.0,0.0,0.0,0.0,0.0,0.0,0.0,0.0,0.0,0.0,0.0,0.0,0.0,0.0,0.0,0.0,0.0,0.0,0.0,0.0,0.0,0.0,0.0,0.0,0.0,0.0,0.0,0.0,0.0,0.0,0.0,0.0,0.0,0.0,0.0,0.0,0.0,0.0,0.0,0.0,0.0,0.0,0.0,0.0,0.0,0.0,0.0,0.0,0.0,0.0,0.0,0.0,0.0,0.0,0.0,0.0,0.0,0.0,0.0,0.0,0.0,0.0,0.0,0.0,0.0,0.0,0.0,0.0,0.0,0.0,0.0,0.0,0.0,0.0,0.0,0.0,0.0,0.0,0.0,0.0,0.0,0.0,0.0,0.0,0.0,0.0,0.0,0.0,0.0,0.0,0.0,0.0,0.0,0.0,0.0,0.0,0.0,0.0,3.4023,3.3777,3.3706,3.3677,3.3108,3.1886,0.0,0.0,0.0,0.0,0.0,0.0,0.0,0.0,0.0,0.0,0.0,0.0,0.0,0.0,0.0,0.0,0.0,0.0,0.0,0.0,0.0,0.0,0.0,0.0,0.0,0.0,0.0,0.0,0.0,0.0,0.0,0.0,0.0,0.0,0.0,0.0,0.0,0.0,0.0,0.0,0.0,0.0,0.0,0.0,0.0,0.0,0.0,0.0,0.0,0.0,0.0,0.0,0.0,0.0,0.0,0.0,0.0,0.0,0.0,0.0,0.0,0.0,0.0,0.0,0.0,0.0,0.0,0.0,0.0,0.0,0.0,0.0,0.0,0.0,0.0,0.0,0.0,0.0,0.0,0.0,0.0,0.0,0.0,0.0,0.0,0.0,0.0,0.0,0.0,0.0,0.0,0.0,0.0,0.0,0.0,0.0,0.0,0.0,0.0,0.0,0.0,0.0,0.0,0.0,0.0,0.0,0.0,0.0,3.5774,3.5531,3.4974,3.4204,3.4678,3.4377,0.0,0.0,0.0,0.0,0.0,0.0,0.0,0.0,0.0,0.0,0.0,0.0,0.0,0.0,0.0,0.0,0.0,0.0,0.0,0.0,0.0,0.0,0.0,0.0,0.0,0.0,0.0,0.0,0.0,0.0,0.0,0.0,0.0,0.0,0.0,0.0,0.0,0.0,0.0,0.0,0.0,0.0,0.0,0.0,0.0,0.0,0.0,0.0,0.0,0.0,0.0,0.0,0.0,0.0,0.0,0.0,0.0,0.0,0.0,0.0,0.0,0.0,0.0,0.0,0.0,0.0,0.0,0.0,0.0,0.0,0.0,0.0,0.0,0.0,0.0,0.0,0.0,0.0,0.0,0.0,0.0,0.0,0.0,0.0,0.0,0.0,0.0,0.0,0.0,0.0,0.0,0.0,0.0,0.0,0.0,0.0,0.0,0.0,0.0,0.0,0.0,0.0,0.0,0.0,0.0,0.0,0.0,0.0,0.0,3.607,3.591,3.5647,3.5304,3.5307,3.4817,0.0,0.0,0.0,0.0,0.0,0.0,0.0,0.0,0.0,0.0,0.0,0.0,0.0,0.0,0.0,0.0,0.0,0.0,0.0,0.0,0.0,0.0,0.0,0.0,0.0,0.0,0.0,0.0,0.0,0.0,0.0,0.0,0.0,0.0,0.0,0.0,0.0,0.0,0.0,0.0,0.0,0.0,0.0,0.0,0.0,0.0,0.0,0.0,0.0,0.0,0.0,0.0,0.0,0.0,0.0,0.0,0.0,0.0,0.0,0.0,0.0,0.0,0.0,0.0,0.0,0.0,0.0,0.0,0.0,0.0,0.0,0.0,0.0,0.0,0.0,0.0,0.0,0.0,0.0,0.0,0.0,0.0,0.0,0.0,0.0,0.0,0.0,0.0,0.0,0.0,0.0,0.0,0.0,0.0,0.0,0.0,0.0,0.0,0.0,0.0,0.0,0.0,0.0,0.0,0.0,0.0,0.0,0.0,0.0,3.6499,0.0,3.6479,3.6224,3.5882,3.5399,0.0,0.0,0.0,0.0,0.0,0.0,0.0,0.0,0.0,0.0,0.0,0.0,0.0,0.0,0.0,0.0,0.0,0.0,0.0,0.0,0.0,0.0,0.0,0.0,0.0,0.0,0.0,0.0,0.0,0.0,0.0,0.0,0.0,0.0,0.0,0.0,0.0,0.0,0.0,0.0,0.0,0.0,0.0,0.0,0.0,0.0,0.0,0.0,0.0,0.0,0.0,0.0,0.0,0.0,0.0,0.0,0.0,0.0,0.0,0.0,0.0,0.0,0.0,0.0,0.0,0.0,0.0,0.0,0.0,0.0,0.0,0.0,0.0,0.0,0.0,0.0,0.0,0.0,0.0,0.0,0.0,0.0,0.0,0.0,0.0,0.0,0.0,0.0,0.0,0.0,0.0,0.0,0.0,0.0,0.0,0.0,0.0,0.0,0.0,0.0,0.0,0.0,0.0,0.0,0.0,0.0,0.0,0.0,3.694,3.7233,3.7566,3.7434,3.6927,3.6403,3.6216,0.0,0.0,0.0,0.0,0.0,0.0,0.0,0.0,0.0,0.0,0.0,0.0,0.0,0.0,0.0,0.0,0.0,0.0,0.0,0.0,0.0,0.0,0.0,0.0,0.0,0.0,0.0,0.0,0.0,0.0,0.0,0.0,0.0,0.0,0.0,0.0,0.0,0.0,0.0,0.0,0.0,0.0,0.0,0.0,0.0,0.0,0.0,0.0,0.0,0.0,0.0,0.0,0.0,0.0,0.0,0.0,0.0,0.0,0.0,0.0,0.0,0.0,0.0,0.0,0.0,0.0,0.0,0.0,0.0,0.0,0.0,0.0,0.0,0.0,0.0,0.0,0.0,0.0,0.0,0.0,0.0,0.0,0.0,0.0,0.0,0.0,0.0,0.0,0.0,0.0,0.0,0.0,0.0,0.0,0.0,0.0,0.0,0.0,0.0,0.0,0.0,0.0,0.0,0.0,0.0,0.0,0.0,0.0,0.0,3.837,3.7952,3.7678,3.7582,3.7206,3.6641,0.0,0.0,0.0,0.0,0.0,0.0,0.0,0.0,0.0,0.0,0.0,0.0,0.0,0.0,0.0,0.0,0.0,0.0,0.0,0.0,0.0,0.0,0.0,0.0,0.0,0.0,0.0,0.0,0.0,0.0,0.0,0.0,0.0,0.0,0.0,0.0,0.0,0.0,0.0,0.0,0.0,0.0,0.0,0.0,0.0,0.0,0.0,0.0,0.0,0.0,0.0,0.0,0.0,0.0,0.0,0.0,0.0,0.0,0.0,0.0,0.0,0.0,0.0,0.0,0.0,0.0,0.0,0.0,0.0,0.0,0.0,0.0,0.0,0.0,0.0,0.0,0.0,0.0,0.0,0.0,0.0,0.0,0.0,0.0,0.0,0.0,0.0,0.0,0.0,0.0,0.0,0.0,0.0,0.0,0.0,0.0,0.0,0.0,0.0,0.0,0.0,0.0,0.0,0.0,0.0,0.0,0.0,0.0,0.0,4.051,3.9451,3.8894,3.8981,3.8365,3.751,3.6458,0.0,0.0,0.0,0.0,0.0,0.0,0.0,0.0,0.0,0.0,0.0,0.0,0.0,0.0,0.0,0.0,0.0,0.0,0.0,0.0,0.0,0.0,0.0,0.0,0.0,0.0,0.0,0.0,0.0,0.0,0.0,0.0,0.0,0.0,0.0,0.0,0.0,0.0,0.0,0.0,0.0,0.0,0.0,0.0,0.0,0.0,0.0,0.0,0.0,0.0,0.0,0.0,0.0,0.0,0.0,0.0,0.0,0.0,0.0,0.0,0.0,0.0,0.0,0.0,0.0,0.0,0.0,0.0,0.0,0.0,0.0,0.0,0.0,0.0,0.0,0.0,0.0,0.0,0.0,0.0,0.0,0.0,0.0,0.0,0.0,0.0,0.0,0.0,0.0,0.0,0.0,0.0,0.0,0.0,0.0,0.0,0.0,0.0,0.0,0.0,0.0,0.0,0.0,0.0,0.0,0.0,0.0,0.0,4.3379,4.1853,4.1007,4.0899,3.9798,3.8773,0.0,0.0,0.0,0.0,0.0,0.0,0.0,0.0,0.0,0.0,0.0,0.0,0.0,0.0,0.0,0.0,0.0,0.0,0.0,0.0,0.0,0.0,0.0,0.0,0.0,0.0,0.0,0.0,0.0,0.0,0.0,0.0,0.0,0.0,0.0,0.0,0.0,0.0,0.0,0.0,0.0,0.0,0.0,0.0,0.0,0.0,0.0,0.0,0.0,0.0,0.0,0.0,0.0,0.0,0.0,0.0,0.0,0.0,0.0,0.0,0.0,0.0,0.0,0.0,0.0,0.0,0.0,0.0,0.0,0.0,0.0,0.0,0.0,0.0,0.0,0.0,0.0,0.0,0.0,0.0,0.0,0.0,0.0,0.0,0.0,0.0,0.0,0.0,0.0,0.0,0.0,0.0,0.0,0.0,0.0,0.0,0.0,0.0,0.0,0.0,0.0,0.0,0.0,0.0,0.0,0.0,0.0,0.0,0.0,4.4685,4.4335,4.3526,4.2306,4.1162,3.989,0.0,0.0,0.0,0.0,0.0,0.0,0.0,0.0,0.0,0.0,0.0,0.0,0.0,0.0,0.0,0.0,0.0,0.0,0.0,0.0,0.0,0.0,0.0,0.0,0.0,0.0,0.0,0.0,0.0,0.0,0.0,0.0,0.0,0.0,0.0,0.0,0.0,0.0,0.0,0.0,0.0,0.0,0.0,0.0,0.0,0.0,0.0,0.0,0.0,0.0,0.0,0.0,0.0,0.0,0.0,0.0,0.0,0.0,0.0,0.0,0.0,0.0,0.0,0.0,0.0,0.0,0.0,0.0,0.0,0.0,0.0,0.0,0.0,0.0,0.0,0.0,0.0,0.0,0.0,0.0,0.0,0.0,0.0,0.0,0.0,0.0,0.0,0.0,0.0,0.0,0.0,0.0,0.0,0.0,0.0,0.0,0.0,0.0,0.0,0.0,0.0,0.0,0.0,0.0,0.0,0.0,0.0,0.0,4.4585,4.6343,4.6249,4.5827,4.5119,4.296,4.1037,0.0,0.0,0.0,0.0,0.0,0.0,0.0,0.0,0.0,0.0,0.0,0.0,0.0,0.0,0.0,0.0,0.0,0.0,0.0,0.0,0.0,0.0,0.0,0.0,0.0,0.0,0.0,0.0,0.0,0.0,0.0,0.0,0.0,0.0,0.0,0.0,0.0,0.0,0.0,0.0,0.0,0.0,0.0,0.0,0.0,0.0,0.0,0.0,0.0,0.0,0.0,0.0,0.0,0.0,0.0,0.0,0.0,0.0,0.0,0.0,0.0,0.0,0.0,0.0,0.0,0.0,0.0,0.0,0.0,0.0,0.0,0.0,0.0,0.0,0.0,0.0,0.0,0.0,0.0,0.0,0.0,0.0,0.0,0.0,0.0,0.0,0.0,0.0,0.0,0.0,0.0,0.0,0.0,0.0,0.0,0.0,0.0,0.0,0.0,0.0,0.0,0.0,0.0,0.0,0.0,0.0,0.0,0.0,4.5597,4.7867,4.7649,4.7766,4.817,4.4739,4.2127,0.0,0.0,0.0,0.0,0.0,0.0,0.0,0.0,0.0,0.0,0.0,0.0,0.0,0.0,0.0,0.0,0.0,0.0,0.0,0.0,0.0,0.0,0.0,0.0,0.0,0.0,0.0,0.0,0.0,0.0,0.0,0.0,0.0,0.0,0.0,0.0,0.0,0.0,0.0,0.0,0.0,0.0,0.0,0.0,0.0,0.0,0.0,0.0,0.0,0.0,0.0,0.0,0.0,0.0,0.0,0.0,0.0,0.0,0.0,0.0,0.0,0.0,0.0,0.0,0.0,0.0,0.0,0.0,0.0,0.0,0.0,0.0,0.0,0.0,0.0,0.0,0.0,0.0,0.0,0.0,0.0,0.0,0.0,0.0,0.0,0.0,0.0,0.0,0.0,0.0,0.0,0.0,0.0,0.0,0.0,0.0,0.0,0.0,0.0,0.0,0.0,0.0,0.0,0.0,0.0,0.0,0.0,0.0,4.648,4.817,4.8656,4.8738,4.8443,4.5399,4.2967,0.0,0.0,0.0,0.0,0.0,0.0,0.0,0.0,0.0,0.0,0.0,0.0,0.0,0.0,0.0,0.0,0.0,0.0,0.0,0.0,0.0,0.0,0.0,0.0,0.0,0.0,0.0,0.0,0.0,0.0,0.0,0.0,0.0,0.0,0.0,0.0,0.0,0.0,0.0,0.0,0.0,0.0,0.0,0.0,0.0,0.0,0.0,0.0,3.8152,0.0,0.0,0.0,0.0,0.0,0.0,0.0,0.0,0.0,0.0,0.0,0.0,0.0,0.0,0.0,0.0,0.0,0.0,0.0,0.0,0.0,0.0,0.0,0.0,0.0,0.0,0.0,0.0,0.0,0.0,0.0,0.0,0.0,0.0,0.0,0.0,0.0,0.0,0.0,0.0,0.0,0.0,0.0,0.0,0.0,0.0,0.0,0.0,0.0,0.0,0.0,0.0,0.0,0.0,0.0,0.0,0.0,0.0,0.0,4.6832,4.8499,4.8529,4.8497,4.8394,4.5463,4.3119,0.0,0.0,0.0,0.0,0.0,0.0,0.0,0.0,0.0,0.0,0.0,0.0,0.0,0.0,0.0,0.0,0.0,0.0,0.0,0.0,0.0,0.0,0.0,0.0,0.0,0.0,0.0,0.0,0.0,0.0,0.0,0.0,0.0,0.0,0.0,0.0,0.0,0.0,0.0,0.0,0.0,0.0,0.0,0.0,0.0,0.0,0.0,0.0,0.0,0.0,0.0,0.0,0.0,0.0,0.0,0.0,0.0,0.0,0.0,0.0,0.0,0.0,0.0,0.0,0.0,0.0,0.0,0.0,0.0,0.0,0.0,0.0,0.0,0.0,0.0,0.0,0.0,0.0,0.0,0.0,0.0,0.0,0.0,0.0,0.0,0.0,0.0,0.0,0.0,0.0,0.0,0.0,0.0,0.0,0.0,0.0,0.0,0.0,0.0,0.0,0.0,0.0,0.0,0.0,0.0,0.0,0.0,4.5336,4.6777,4.8504,4.8027,4.7861,4.8122,4.527,4.2977,4.1585,0.0,0.0,0.0,0.0,0.0,0.0,0.0,0.0,0.0,0.0,0.0,0.0,0.0,0.0,0.0,0.0,0.0,0.0,0.0,0.0,0.0,0.0,0.0,0.0,0.0,0.0,0.0,0.0,0.0,0.0,0.0,0.0,0.0,0.0,0.0,0.0,0.0,0.0,3.4032,3.5561,0.0,0.0,0.0,0.0,0.0,0.0,0.0,0.0,3.8921,0.0,0.0,0.0,0.0,0.0,0.0,0.0,0.0,0.0,0.0,0.0,0.0,0.0,0.0,0.0,0.0,0.0,0.0,0.0,0.0,0.0,0.0,0.0,0.0,0.0,0.0,0.0,0.0,0.0,0.0,0.0,0.0,0.0,0.0,0.0,0.0,0.0,0.0,0.0,0.0,0.0,0.0,0.0,0.0,0.0,0.0,0.0,0.0,0.0,0.0,0.0,0.0,0.0,0.0,0.0,0.0,4.4041,4.4944,4.6087,4.7437,4.7884,4.7706,4.6801,4.4886,4.2909,4.0936,0.0,0.0,0.0,0.0,0.0,0.0,0.0,0.0,0.0,0.0,0.0,0.0,0.0,0.0,0.0,0.0,0.0,0.0,0.0,0.0,0.0,0.0,0.0,0.0,0.0,0.0,0.0,0.0,0.0,0.0,0.0,0.0,0.0,0.0,0.0,0.0,0.0,0.0,0.0,3.5994,3.6928,0.0,0.0,0.0,0.0,0.0,0.0,0.0,0.0,3.9085,0.0,0.0,0.0,0.0,0.0,0.0,0.0,0.0,0.0,0.0,0.0,0.0,0.0,0.0,0.0,0.0,0.0,0.0,0.0,0.0,0.0,0.0,0.0,0.0,0.0,0.0,0.0,0.0,0.0,0.0,0.0,0.0,0.0,0.0,0.0,0.0,0.0,0.0,0.0,0.0,0.0,0.0,0.0,0.0,0.0,0.0,0.0,0.0,0.0,0.0,0.0,0.0,0.0,0.0,0.0,4.4006,4.4676,4.5607,4.692,4.7062,4.6789,4.6071,4.422,4.2306,0.0,0.0,0.0,0.0,0.0,0.0,0.0,0.0,0.0,0.0,0.0,0.0,0.0,0.0,0.0,0.0,0.0,0.0,0.0,0.0,0.0,0.0,0.0,0.0,0.0,0.0,0.0,0.0,0.0,0.0,0.0,0.0,0.0,0.0,0.0,0.0,0.0,0.0,0.0,0.0,3.6895,3.7574,3.8269,0.0,0.0,0.0,0.0,0.0,0.0,3.9366,3.918,0.0,0.0,0.0,0.0,0.0,0.0,0.0,0.0,0.0,0.0,0.0,0.0,0.0,0.0,0.0,0.0,0.0,0.0,0.0,0.0,0.0,0.0,0.0,0.0,0.0,0.0,0.0,0.0,0.0,0.0,0.0,0.0,0.0,0.0,0.0,0.0,0.0,0.0,0.0,0.0,0.0,0.0,0.0,0.0,0.0,0.0,0.0,0.0,0.0,0.0,0.0,0.0,0.0,0.0,0.0,4.4109,4.4405,4.5181,4.6478,4.6055,4.567,4.5402,4.3446,4.168,0.0,0.0,0.0,0.0,0.0,0.0,0.0,0.0,0.0,0.0,0.0,0.0,0.0,0.0,0.0,0.0,0.0,0.0,0.0,0.0,0.0,0.0,0.0,0.0,0.0,0.0,0.0,0.0,0.0,0.0,0.0,0.0,0.0,0.0,0.0,0.0,0.0,0.0,0.0,0.0,0.0,3.8179,3.8678,3.9876,0.0,0.0,0.0,0.0,4.0115,3.9804,0.0,0.0,0.0,0.0,0.0,0.0,0.0,0.0,0.0,0.0,0.0,0.0,0.0,0.0,0.0,0.0,0.0,0.0,0.0,0.0,0.0,0.0,0.0,0.0,0.0,0.0,0.0,0.0,0.0,0.0,0.0,0.0,0.0,0.0,0.0,0.0,0.0,0.0,0.0,0.0,0.0,0.0,0.0,0.0,0.0,0.0,0.0,0.0,0.0,0.0,0.0,0.0,0.0,0.0,0.0,0.0,4.3788,4.4122,4.475,4.5737,4.5025,4.4579,4.4504,4.2648,4.1356,0.0,0.0,0.0,0.0,0.0,0.0,0.0,0.0,0.0,0.0,0.0,0.0,0.0,0.0,0.0,0.0,0.0,0.0,0.0,0.0,0.0,0.0,0.0,0.0,0.0,0.0,0.0,0.0,0.0,0.0,0.0,0.0,0.0,0.0,0.0,0.0,0.0,0.0,0.0,0.0,0.0,3.8291,3.9211,4.0117,4.0589,0.0,0.0,4.0408,3.9723,4.0404,0.0,0.0,0.0,0.0,0.0,0.0,0.0,0.0,0.0,0.0,0.0,0.0,0.0,0.0,0.0,0.0,0.0,0.0,0.0,0.0,0.0,0.0,0.0,0.0,0.0,0.0,0.0,0.0,0.0,0.0,0.0,0.0,0.0,0.0,0.0,0.0,0.0,0.0,0.0,0.0,0.0,0.0,0.0,0.0,0.0,0.0,0.0,0.0,0.0,0.0,0.0,0.0,0.0,0.0,0.0,4.1511,4.3015,4.3415,4.3868,4.4474,4.4132,4.3903,4.376,4.2408,4.1315,0.0,0.0,0.0,0.0,0.0,0.0,0.0,0.0,0.0,0.0,0.0,0.0,0.0,0.0,0.0,0.0,0.0,0.0,0.0,0.0,0.0,0.0,0.0,0.0,0.0,0.0,0.0,0.0,0.0,0.0,0.0,0.0,0.0,0.0,0.0,0.0,0.0,0.0,0.0,0.0,0.0,0.0,3.9804,4.0686,0.0,0.0,0.0,4.1162,4.143,0.0,0.0,0.0,0.0,0.0,0.0,0.0,0.0,0.0,0.0,0.0,0.0,0.0,0.0,0.0,0.0,0.0,0.0,0.0,0.0,0.0,0.0,0.0,0.0,0.0,0.0,0.0,0.0,0.0,0.0,0.0,0.0,0.0,0.0,0.0,0.0,0.0,0.0,0.0,0.0,0.0,0.0,0.0,0.0,0.0,0.0,0.0,0.0,0.0,0.0,0.0,0.0,0.0,0.0,0.0,0.0,0.0,4.2626,4.2947,4.3407,4.4028,4.3874,4.3671,4.3502,4.2446,0.0,0.0,0.0,0.0,0.0,0.0,0.0,0.0,0.0,0.0,0.0,0.0,0.0,0.0,0.0,0.0,0.0,0.0,0.0,0.0,0.0,0.0,0.0,0.0,0.0,0.0,0.0,3.1966,0.0,0.0,0.0,0.0,0.0,0.0,0.0,0.0,0.0,0.0,0.0,0.0,0.0,0.0,3.9914,4.0632,4.1527,4.2069,0.0,0.0,4.1825,4.2398,4.1492,4.0849,0.0,0.0,0.0,0.0,0.0,0.0,0.0,0.0,0.0,0.0,0.0,0.0,0.0,0.0,0.0,0.0,0.0,0.0,0.0,0.0,0.0,0.0,0.0,0.0,0.0,0.0,0.0,0.0,0.0,0.0,0.0,0.0,0.0,0.0,0.0,0.0,0.0,0.0,0.0,0.0,0.0,0.0,0.0,0.0,0.0,0.0,0.0,0.0,0.0,0.0,0.0,0.0,0.0,0.0,4.1477,4.299,4.3078,4.3828,4.5271,4.4584,4.4135,4.4135,4.2743,4.1676,0.0,0.0,0.0,0.0,0.0,0.0,0.0,0.0,0.0,0.0,0.0,0.0,0.0,0.0,0.0,0.0,0.0,0.0,0.0,0.0,0.0,0.0,0.0,0.0,0.0,0.0,0.0,0.0,0.0,0.0,0.0,0.0,0.0,0.0,0.0,0.0,0.0,0.0,0.0,0.0,0.0,4.0659,4.1828,4.2746,4.31,0.0,4.2527,4.2189,4.1204,4.1165,4.1115,4.0645,0.0,0.0,0.0,0.0,0.0,0.0,0.0,0.0,0.0,0.0,0.0,0.0,0.0,0.0,0.0,0.0,0.0,0.0,0.0,0.0,0.0,0.0,0.0,0.0,0.0,0.0,0.0,0.0,0.0,0.0,0.0,0.0,0.0,0.0,0.0,0.0,0.0,0.0,0.0,0.0,0.0,0.0,0.0,0.0,0.0,0.0,0.0,0.0,0.0,0.0,0.0,0.0,0.0,4.1947,4.2609,4.3385,4.4172,4.4936,4.4293,4.387,4.3722,4.2605,4.1541,0.0,0.0,0.0,0.0,0.0,0.0,0.0,0.0,0.0,0.0,0.0,0.0,0.0,0.0,0.0,0.0,0.0,0.0,0.0,0.0,0.0,0.0,0.0,0.0,0.0,0.0,0.0,0.0,3.4234,3.4482,3.4092,0.0,0.0,0.0,0.0,0.0,0.0,0.0,0.0,0.0,0.0,4.0232,4.1463,4.2164,0.0,0.0,4.2613,4.2288,4.1461,4.1606,4.1681,4.1229,4.1689,0.0,0.0,0.0,0.0,0.0,0.0,0.0,0.0,0.0,0.0,0.0,0.0,0.0,0.0,0.0,0.0,0.0,0.0,0.0,0.0,0.0,0.0,0.0,0.0,0.0,0.0,0.0,0.0,0.0,0.0,0.0,0.0,0.0,0.0,0.0,0.0,0.0,0.0,0.0,0.0,0.0,0.0,0.0,0.0,0.0,0.0,0.0,0.0,0.0,0.0,0.0,0.0,4.2063,4.2578,4.3357,4.4162,4.4963,4.4453,4.403,4.3666,4.2844,4.1857,0.0,0.0,0.0,0.0,0.0,0.0,0.0,0.0,0.0,0.0,0.0,0.0,0.0,0.0,0.0,0.0,0.0,0.0,0.0,0.0,0.0,0.0,0.0,0.0,0.0,0.0,0.0,0.0,3.4442,3.468,3.4601,0.0,0.0,0.0,0.0,0.0,0.0,0.0,0.0,0.0,0.0,4.0254,4.1249,4.1753,4.2043,4.203,4.1848,4.154,4.1031,4.1013,4.1035,4.109,0.0,0.0,0.0,0.0,0.0,0.0,0.0,0.0,0.0,0.0,0.0,0.0,0.0,0.0,0.0,0.0,0.0,0.0,0.0,0.0,0.0,0.0,0.0,0.0,0.0,0.0,0.0,3.3757,0.0,0.0,3.2856,0.0,0.0,0.0,0.0,0.0,0.0,0.0,0.0,0.0,0.0,0.0,0.0,0.0,0.0,0.0,0.0,0.0,0.0,0.0,0.0,0.0,0.0,4.1709,4.316,4.3003,4.3746,4.5505,4.5249,4.4771,4.4284,4.3666,4.2657,4.1189,0.0,0.0,0.0,0.0,0.0,0.0,0.0,0.0,0.0,0.0,0.0,0.0,0.0,0.0,0.0,0.0,0.0,0.0,0.0,0.0,0.0,0.0,0.0,0.0,0.0,0.0,3.3028,3.3764,3.4627,0.0,0.0,0.0,0.0,0.0,0.0,0.0,0.0,0.0,0.0,4.0386,4.0959,4.1469,4.1811,4.168,4.0817,4.024,3.9789,3.9546,3.9043,3.8871,0.0,0.0,0.0,0.0,0.0,0.0,0.0,0.0,0.0,0.0,0.0,0.0,0.0,0.0,0.0,0.0,0.0,0.0,0.0,0.0,0.0,0.0,0.0,0.0,0.0,0.0,0.0,3.475,3.4997,0.0,0.0,0.0,0.0,0.0,0.0,0.0,0.0,0.0,0.0,0.0,3.8353,3.8701,0.0,0.0,0.0,0.0,0.0,0.0,0.0,0.0,0.0,0.0,0.0,0.0,4.2414,4.3538,4.3704,4.4416,4.5788,4.5205,4.4649,4.4306,4.3324,4.1963,4.019,0.0,0.0,0.0,0.0,0.0,0.0,0.0,0.0,0.0,0.0,0.0,0.0,0.0,0.0,0.0,0.0,0.0,0.0,0.0,0.0,0.0,0.0,0.0,0.0,0.0,3.4404,0.0,0.0,0.0,0.0,0.0,0.0,0.0,0.0,0.0,0.0,0.0,3.7331,3.8612,3.8899,3.9193,3.9746,4.0673,4.1131,0.0,0.0,0.0,0.0,0.0,0.0,0.0,0.0,0.0,0.0,0.0,0.0,0.0,0.0,3.9916,4.1518,4.2299,4.2753,4.2725,0.0,0.0,0.0,0.0,0.0,0.0,0.0,0.0,0.0,0.0,0.0,0.0,0.0,0.0,3.5789,3.5938,3.6421,0.0,0.0,0.0,0.0,0.0,0.0,0.0,0.0,3.8231,3.8786,3.9575,3.9893,4.0327,0.0,4.0471,3.9808,0.0,0.0,0.0,0.0,0.0,0.0,0.0,0.0,4.2557,4.3236,4.367,4.4439,4.5475,4.4997,4.4415,4.3835,4.2525,4.1128,3.9676,3.8917,3.7965,0.0,0.0,0.0,0.0,0.0,0.0,0.0,0.0,0.0,0.0,0.0,0.0,0.0,0.0,0.0,0.0,0.0,0.0,0.0,0.0,0.0,0.0,0.0,3.4883,0.0,0.0,0.0,0.0,0.0,0.0,0.0,0.0,0.0,3.7199,3.7021,3.7404,3.8805,3.8904,3.8918,3.9174,0.0,0.0,0.0,0.0,0.0,0.0,0.0,4.0977,4.1007,4.1864,4.2771,4.3572,4.2642,4.1947,4.2506,0.0,0.0,4.1724,4.2245,4.2574,4.2836,4.2777,4.2914,4.3643,4.3241,4.3077,0.0,0.0,0.0,0.0,3.4798,0.0,0.0,0.0,3.6387,3.663,0.0,3.689,0.0,0.0,0.0,0.0,3.7403,3.7179,0.0,0.0,3.8885,3.9366,4.0435,4.0514,4.0925,4.1596,4.0874,4.0734,4.1119,4.0611,0.0,0.0,0.0,0.0,0.0,0.0,4.2074,4.2316,4.3042,4.3799,4.4642,4.4668,4.4093,4.2971,4.1389,4.0262,3.9671,3.9143,3.8818,3.8692,3.6269,0.0,0.0,0.0,0.0,0.0,0.0,0.0,0.0,0.0,0.0,0.0,0.0,0.0,0.0,0.0,0.0,0.0,0.0,0.0,0.0,3.5092,0.0,0.0,0.0,0.0,0.0,0.0,0.0,0.0,0.0,0.0,3.8426,3.8276,3.8706,4.0247,0.0,0.0,0.0,0.0,3.9757,3.9054,3.8859,3.8881,3.8922,3.9508,4.0332,4.1379,0.0,0.0,4.3865,4.2414,4.1596,4.2991,4.2649,4.1728,4.0374,4.066,4.1092,4.1672,4.1628,4.2002,4.3608,4.2794,4.2253,3.8396,0.0,0.0,0.0,0.0,3.7022,3.774,3.9013,3.9015,3.8764,3.8391,3.8618,0.0,0.0,0.0,0.0,0.0,0.0,3.8607,3.9746,4.0138,4.0758,4.1689,4.2082,4.2163,4.1983,4.2163,4.1879,4.1231,4.1467,4.1192,4.0458,0.0,0.0,0.0,0.0,4.2679,4.3308,4.3382,4.3611,4.4044,4.3878,4.3038,4.1542,4.1029,4.0333,3.9378,3.9547,3.9206,3.8257,3.6947,0.0,0.0,0.0,0.0,0.0,0.0,0.0,0.0,0.0,0.0,0.0,0.0,0.0,0.0,0.0,0.0,0.0,0.0,0.0,3.6,3.6686,3.6865,0.0,0.0,0.0,0.0,0.0,0.0,0.0,0.0,0.0,4.0662,3.9878,3.9424,0.0,0.0,4.0237,4.0174,4.0182,4.0323,4.0666,4.0231,0.0,4.0626,4.0679,4.0824,4.1119,4.1996,4.2769,4.3064,4.2812,4.2725,4.3181,4.2672,4.2215,4.2448,4.2265,4.2191,4.2354,4.2321,4.2529,4.3281,4.2857,4.2829,4.1234,3.9485,3.8277,3.8232,3.9029,3.9131,3.9873,4.0988,4.0632,4.0206,3.9767,3.9577,3.8867,3.7776,3.815,0.0,0.0,0.0,3.9613,4.0539,4.1001,4.1724,4.2658,4.2891,4.2938,4.2823,4.2699,4.2276,4.1549,4.1352,4.1073,4.0685,0.0,0.0,4.1466,4.2268,4.2655,4.2654,4.2909,4.3079,4.3131,4.2874,4.2171,4.1136,4.0807,4.0264,3.9401,3.9664,3.9468,3.8666,3.786,3.6919,0.0,0.0,0.0,0.0,0.0,0.0,0.0,0.0,0.0,0.0,0.0,3.3537,3.3661,0.0,0.0,0.0,3.5921,3.6226,3.681,3.7298,0.0,0.0,0.0,0.0,0.0,0.0,0.0,3.8806,3.9786,4.0815,4.1654,4.1671,4.155,4.1209,4.1362,4.1529,4.146,0.0,4.1595,4.1806,4.144,4.1254,4.1527,4.1804,4.2181,4.2883,4.3487,4.3949,4.4051,4.3914,4.3846,4.4017,4.3628,4.336,4.4029,4.3759,4.3404,4.3308,4.3185,4.3264,4.3804,4.3747,4.386,4.4461,4.3728,4.0824,3.9867,4.0327,4.1329,4.1854,4.2031,4.1523,4.1104,4.0728,4.0015,3.9369,3.8956,3.9418,0.0,3.97,4.021,4.0747,4.1387,4.1621,4.2292,4.335,4.3106,4.3252,4.3708,4.2682,4.2128,4.1966,4.078,4.0531,4.1234,4.1774,4.1777,4.1352,4.2343,4.2238,4.1058,4.1974,4.2362,4.2131,4.1815,4.1521,4.125,4.07,4.0181,3.9685,3.9705,3.9729,3.9702,3.8873,3.8162,3.7618,0.0,0.0,0.0,0.0,0.0,0.0,0.0,0.0,0.0,0.0,0.0,0.0,0.0,0.0,0.0,3.7262,0.0,3.7434,3.7473,0.0,0.0,0.0,3.8397,3.8079,3.9419,4.0235,3.9872,0.0,0.0,4.1983,4.3621,4.4571,4.3818,4.3642,4.357,4.3442,4.3486,4.3325,4.2879,4.2651,4.242,4.232,4.2945,4.4013,4.5399,4.5846,4.5716,4.5907,4.5279,4.5022,4.5435,4.5094,4.4734,4.508,4.4922,4.4733,4.4563,4.4147,4.4064,4.4757,4.4926,4.5012,4.4616,4.438,4.2992,4.2372,4.2238,4.2081,4.2261,4.2651,4.2318,4.1568,4.0589,4.1,4.0669,3.9804,3.9906,4.0108,4.0306,4.064,4.1171,4.1895,4.1975,4.2408,4.3065,4.3035,4.2861,4.2538,4.2696,4.2286,4.1464,4.1541,4.1517,4.1341,4.1509,4.144,4.1241,4.1508,4.1783,4.2048,4.2026,4.2127,4.2277,4.1675,4.1072,4.0628,4.0483,4.0351,4.021,4.0623,4.0812,4.0787,3.9774,3.9036,3.864,3.7331,0.0,0.0,0.0,0.0,0.0,0.0,0.0,0.0,0.0,3.5477,3.5755,0.0,3.6469,0.0,3.8157,3.8751,3.8614,3.8821,0.0,0.0,3.8734,3.883,3.9179,4.0259,4.1201,4.1657,4.3095,4.4149,4.44,4.5828,4.6755,4.6532,4.5889,4.5377,4.534,4.5041,4.4986,4.5193,4.4642,4.4214,4.4573,4.4727,4.5112,4.5867,4.5955,4.5948,4.6021,4.553,4.5187,4.5369,4.5274,4.5318,4.572,4.5996,4.6324,4.6554,4.5771,4.504,4.5534,4.5712,4.6021,4.5285,4.5179,4.4076,4.3451,4.317,4.3098,4.3439,4.3988,4.3094,4.2314,4.1619,4.1565,4.1202,4.066,4.0939,4.1085,4.1281,4.1505,4.1975,4.2613,4.2637,4.2812,4.314,4.3024,4.2673,4.211,4.2417,4.2201,4.1615,4.2123,4.2272,4.2036,4.2155,4.2014,4.1692,4.1475,4.1561,4.184,4.1834,4.2066,4.2544,4.1914,4.134,4.1002,4.0735,4.059,4.054,4.0822,4.0905,4.0756,4.0025,3.9449,3.9098,3.7903,3.7213,0.0,0.0,0.0,0.0,0.0,0.0,0.0,0.0,0.0,0.0,0.0,3.8074,3.8371,3.9159,3.9517,3.9203,3.9318,3.947,3.9508,3.9702,4.0086,4.0693,4.1971,4.3137,4.3911,4.5354,4.6565,4.7176,4.8318,4.9122,4.9082,4.8798,4.8252,4.7444,4.7073,4.6984,4.7081,4.6614,4.6348,4.6698,4.6658,4.6679,4.6898,4.6963,4.6898,4.6701,4.6461,4.6286,4.6249,4.6439,4.6658,4.6942,4.7357,4.7793,4.7946,4.7662,4.7214,4.6965,4.694,4.7235,4.6068,4.5936,4.4624,4.3936,4.3739,4.416,4.4672,4.507,4.37,4.3097,4.3045,4.1895,4.1503,4.1654,4.2055,4.2281,4.2356,4.2498,4.2797,4.3288,4.3231,4.3231,4.3231,4.2966,4.2601,4.2189,4.2108,4.2116,4.2116,4.2621,4.2826,4.2706,4.2988,4.2826,4.2192,4.178,4.1428,4.1206,4.1635,4.2144,4.2676,4.2191,4.1816,4.1576,4.1141,4.0794,4.0632,4.0624,4.0471,4.014,3.9823,3.9543,3.9335,3.837,3.7966,0.0,3.7443,0.0,0.0,0.0,0.0,0.0,0.0,0.0,0.0,3.9447,3.9922,4.0029,4.0158,4.0121,3.9811,3.9796,4.0009,4.0411,4.1104,4.1793,4.2479,4.4023,4.537,4.6186,4.7553,4.8798,4.9628,5.0655,5.1245,5.1201,5.1485,5.1201,4.9934,4.941,4.9166,4.8794,4.8667,4.8685,4.8724,4.8685,4.8685,4.8619,4.858,4.8383,4.7912,4.7699,4.7634,4.7639,4.7887,4.8231,4.837,4.8806,4.9177,4.9344,4.9585,4.9497,4.8706,4.8553,4.8711,4.6319,4.6238,4.5285,4.5059,4.5382,4.4781,4.415,4.3473,4.3613,4.3658,4.3554,4.2517,4.2537,4.3259,4.2709,4.2697,4.3091,4.2901,4.2957,4.3208,4.2947,4.2834,4.2882,4.2585,4.2508,4.2649,4.2656,4.2645,4.2645,4.312,4.2936,4.2186,4.2646,4.2418,4.1534,0.0,0.0,0.0,4.2093,4.2428,4.2156,4.1793,4.1345,4.0892,4.08,0.0,4.0325,4.0317,4.014,3.9792,3.9481,0.0,0.0,0.0,0.0,0.0,0.0,0.0,0.0,0.0,0.0,0.0,4.1796,4.1427,4.0316,4.0466,4.064,4.063,4.0839,4.1229,4.1778,4.1977,4.227,4.2705,4.3142,4.3578,4.4121,4.5472,4.6705,4.7679,4.9017,5.0131,5.0808,5.1638,5.2248,5.2271,5.2643,5.2948,5.2927,5.1944,5.1376,5.1572,5.1288,5.1114,5.1114,5.105,5.0835,5.0696,5.0565,5.0205,4.9402,4.8871,4.8495,4.8275,4.8456,4.8939,4.9348,5.01,5.0828,5.1162,5.1332,5.1092,5.0131,5.024,5.0655,4.6433,4.6068,4.5219,4.5027,0.0,4.5104,4.4568,4.3815,4.4091,4.4192,4.4166,4.3614,4.3519,4.373,4.3284,4.3049,4.2974,4.268,4.2758,4.306,4.2758,4.2637,4.2661,4.2479,4.2479,4.2661,4.2922,4.3184,4.3469,4.3914,4.3892,4.3385,4.3642,4.3534,4.3018,4.2856,4.2426,4.1705,4.2526,4.2835,4.2638,4.2234,4.187,4.1481,4.1221,0.0,0.0,0.0,0.0,0.0,0.0,0.0,0.0,4.0535,0.0,4.1574,4.1369,4.1581,4.2346,4.2681,4.3107,4.3737,4.4718,4.465,4.3161,4.2816,4.2884,4.3388,4.3332,4.3377,4.37,4.3818,4.4102,4.4635,4.5062,4.5544,4.633,4.7422,4.8623,4.9803,5.0808,5.1725,5.2773,5.3254,5.3582,5.3625,5.3975,5.4456,5.4739,5.3779,5.3036,5.3473,5.3169,5.2866,5.2823,5.2607,5.2261,5.1637,5.1464,5.1078,5.0182,4.9819,4.9565,4.9422,4.9866,5.0481,5.1013,5.185,5.2627,5.3102,5.3211,5.3189,5.2774,5.2271,5.1964,4.6615,4.6205,4.5385,4.5033,4.504,4.542,4.526,4.4693,4.4482,0.0,0.0,4.4319,4.4051,4.3654,4.3521,4.3171,4.2736,4.2406,4.257,4.3129,4.2847,4.277,4.2863,4.2926,4.2919,4.2911,4.3498,4.3992,4.4375,4.493,4.5132,4.5019,4.5066,4.5033,4.4898,4.4728,4.4048,4.2922,4.3009,4.329,4.3525,4.2972,4.2665,4.266,4.2239,4.1897,4.1743,4.1733,4.158,4.1253,4.1684,4.1882,4.1749,4.2222,4.2799,4.3471,4.3356,4.369,4.4708,4.5271,4.5746,4.6149,4.7375,4.7502,4.6007,4.5438,4.557,4.6483,4.6016,4.5721,4.5771,4.5691,4.5896,4.6435,4.7007,4.7682,4.8505,4.9501,5.0568,5.1725,5.2337,5.3167,5.4259,5.4631,5.4828,5.4871,5.5177,5.5656,5.5827,5.5041,5.4388,5.4628,5.4206,5.3959,5.3935,5.369,5.3145,5.2555,5.2232,5.1761,5.1123,5.0783,5.0719,5.0739,5.1487,5.2174,5.28,5.3538,5.4302,5.4849,5.4959,5.5068,5.5264,5.4259,5.3363,4.7291,4.7593,4.7004,4.6686,4.6531,4.6167,4.5661,4.4964,4.4173,4.3746,4.3657,4.3167,4.3186,4.3506,4.2748,4.2615,4.2953,4.2617,4.29,4.3645,4.352,4.3763,4.4286,4.4489,4.454,4.454,4.5293,4.5577,4.5536,4.6395,4.6518,4.5887,4.6213,4.6077,4.5412,4.5645,4.5541,4.4967,4.3831,4.3675,4.455,4.3859,4.3635,4.4018,4.3973,4.3769,4.3448,4.3471,4.3277,4.2967,4.3394,4.3902,4.4505,4.4987,4.5396,4.5723,4.5711,4.5975,4.6665,4.7142,4.7819,4.8753,4.9462,4.908,4.7261,4.7334,4.7642,4.7904,4.7553,4.7526,4.8182,4.8018,4.7978,4.8482,4.9284,4.9847,5.0058,5.117,5.2097,5.2424,5.3189,5.3713,5.4194,5.4827,5.5286,5.5351,5.5656,5.5999,5.6049,5.5957,5.563,5.5258,5.4786,5.4558,5.4513,5.4467,5.4233,5.4214,5.3473,5.2994,5.2739,5.2155,5.1894,5.2163,5.2679,5.3332,5.4175,5.4809,5.534,5.5785,5.5897,5.5963,5.6072,5.5679,5.5526,4.7614,4.7758,4.679,4.6581,4.6865,4.6192,4.5557,4.4927,4.4498,4.4463,4.4693,4.4477,4.4314,4.416,4.3505,4.3302,4.3447,4.3008,4.3148,4.3796,4.3739,4.4017,4.458,4.4681,4.501,4.5487,4.5911,4.6306,4.6692,4.7179,4.7364,4.7269,4.75,4.7406,4.7081,4.7229,4.7367,4.7367,4.5989,4.5336,4.5485,4.5427,4.5471,4.5721,4.5972,4.6002,4.5849,4.5885,4.5864,4.5698,4.6181,4.6617,4.6933,4.7932,4.8568,4.8681,4.8696,4.8707,4.8785,4.9231,4.9875,5.0574,5.1101,5.083,4.947,4.9544,4.9887,5.0429,5.0095,5.0,5.0436,5.0276,5.0327,5.0804,5.126,5.1585,5.1868,5.2407,5.308,5.3625,5.4041,5.4521,5.5001,5.5504,5.5766,5.581,5.5976,5.6065,5.6054,5.5813,5.5702,5.5629,5.5286,5.5006,5.4959,5.498,5.4862,5.467,5.4461,5.4227,5.4081,5.3536,5.3512,5.366,5.4096,5.4628,5.5369,5.5834,5.6324,5.6745,5.688,5.688,5.688,5.688,5.6706,4.7772,4.7859,4.656,4.6239,4.6552,4.5972,4.5355,4.4771,4.4865,4.5207,4.564,4.5491,4.5081,4.457,4.4173,4.3961,4.3749,4.3418,4.3542,4.4068,4.414,4.4485,4.5034,4.5298,4.5794,4.6426,4.6748,4.7277,4.7882,4.8043,4.8364,4.886,4.8882,4.8915,4.8956,4.8919,4.9065,4.9227,4.8292,4.7506,4.7006,4.7271,4.7464,4.763,4.8073,4.8324,4.8346,4.8469,4.8554,4.8576,4.9083,4.93,4.929,5.0426,5.1059,5.0876,5.0814,5.0755,5.0609,5.0936,5.1371,5.1871,5.241,5.2412,5.1828,5.2087,5.2268,5.2503,5.2097,5.1992,5.2165,5.2253,5.2407,5.2798,5.306,5.3278,5.3626,5.3779,5.4128,5.4849,5.5046,5.5286,5.5783,5.6021,5.6084,5.6075,5.6059,5.6054,5.5859,5.5567,5.5614,5.5614,5.5425,5.5146,5.5257,5.5262,5.5235,5.5014,5.5171,5.5191,5.507,5.5027,5.5006,5.5074,5.546,5.584,5.6327,5.6691,5.7053,5.7361,5.7405,5.7424,5.7426,5.7309,5.7178,4.7741,4.7991,4.704,4.6273,4.5842,4.5564,4.5159,4.4769,4.5103,4.5344,4.5375,4.4421,4.4051,4.3907,4.3884,4.3874,4.3877,4.3762,4.4193,4.499,4.5171,4.5655,4.6472,4.7341,4.771,4.7678,4.8691,4.9129,4.9089,4.9465,4.9924,5.0375,5.0383,5.0399,5.0442,5.0471,5.0362,5.0003,5.0294,5.0174,4.9677,4.9201,4.9239,4.9778,5.0249,5.0518,5.049,5.091,5.1116,5.1183,5.1613,5.1723,5.1378,5.1867,5.1844,5.1114,5.103,5.1164,5.1615,5.1678,5.1973,5.2426,5.322,5.3656,5.3594,5.4723,5.4867,5.3516,5.2736,5.2931,5.3583,5.369,5.3731,5.3861,5.4532,5.5133,5.5183,5.5606,5.5897,5.5941,5.5874,5.5847,5.5611,5.5843,5.6071,5.5953,5.5945,5.577,5.5451,5.5567,5.5567,5.533,5.4925,5.4877,5.5162,5.5304,5.564,5.6192,5.5846,5.5786,5.6057,5.5879,5.5497,5.6222,5.653,5.6738,5.7082,5.7402,5.738,5.7424,5.7467,5.7467,5.7442,5.7209,5.6961,4.7804,4.8482,4.7011,4.6385,4.6356,4.6012,4.5691,4.5507,4.5427,4.5404,4.5404,4.5209,4.5002,4.476,4.4727,4.4887,4.5163,4.5129,4.553,4.615,4.6541,4.7047,4.7683,4.8364,4.8937,4.9388,4.9973,5.048,5.0849,5.0928,5.1269,5.1819,5.1451,5.121,5.1232,5.1493,5.1295,5.0641,5.1309,5.1447,5.1072,5.1027,5.0999,5.1086,5.1778,5.2178,5.2181,5.2395,5.2493,5.2537,5.2987,5.2995,5.2585,5.3232,5.351,5.3133,5.2866,5.282,5.3015,5.3046,5.3092,5.331,5.3675,5.378,5.3537,5.4298,5.454,5.4229,5.4354,5.4801,5.5109,5.5171,5.5211,5.5233,5.5559,5.5798,5.5821,5.598,5.6112,5.6099,5.6119,5.5997,5.5818,5.5914,5.5919,5.5687,5.5567,5.5378,5.4951,5.4999,5.4999,5.4856,5.4639,5.4735,5.5209,5.585,5.6179,5.6299,5.6311,5.6498,5.6846,5.6681,5.6433,5.7094,5.7141,5.7256,5.7399,5.7467,5.7467,5.7467,5.7467,5.7421,5.7163,5.6929,5.6929,4.7805,4.8341,4.6959,4.6541,4.6874,4.6495,4.6334,4.6288,4.5955,4.5794,4.584,4.6173,4.6127,4.584,4.5794,4.6024,4.6311,4.6437,4.6816,4.7298,4.7803,4.8341,4.8997,4.9242,4.9814,5.0588,5.0798,5.1444,5.2383,5.1904,5.211,5.2871,5.2267,5.1845,5.1874,5.2205,5.1978,5.1281,5.1837,5.2022,5.1822,5.2285,5.2235,5.1789,5.262,5.3122,5.3144,5.3409,5.3603,5.3581,5.392,5.3883,5.3454,5.4023,5.4337,5.422,5.3898,5.3726,5.371,5.3709,5.3776,5.388,5.3994,5.401,5.3903,5.4183,5.46,5.4928,5.5662,5.5943,5.5889,5.5997,5.6084,5.6063,5.6171,5.6259,5.6302,5.6189,5.6043,5.6068,5.6086,5.6007,5.5859,5.564,5.5404,5.5141,5.5067,5.4972,5.4639,5.4639,5.4782,5.4714,5.4809,5.4999,5.533,5.5897,5.6273,5.6367,5.6418,5.6979,5.7349,5.7023,5.7023,5.7328,5.7421,5.7467,5.7467,5.7467,5.7396,5.7349,5.7303,5.7141,5.6649,5.6508,5.6461,4.7632,4.7599,4.7104,4.692,4.692,4.6897,4.6839,4.6839,4.6805,4.6805,4.6759,4.6816,4.6874,4.6816,4.6804,4.6839,4.6908,4.7332,4.7813,4.8318,4.8786,4.9534,5.046,5.0217,5.0345,5.0927,5.1348,5.2243,5.3396,5.2243,5.2341,5.3599,5.2737,5.2386,5.239,5.2477,5.2283,5.1829,5.1958,5.1871,5.1955,5.2701,5.2703,5.2019,5.2723,5.3236,5.3298,5.4041,5.4488,5.4488,5.4531,5.4344,5.3927,5.3944,5.3776,5.3405,5.3312,5.3245,5.3338,5.3333,5.3499,5.3831,5.4289,5.469,5.4911,5.5377,5.5638,5.5885,5.5847,5.5782,5.5509,5.5886,5.6127,5.617,5.6491,5.671,5.6728,5.6247,5.6047,5.5974,5.5885,5.5718,5.5378,5.4877,5.4735,5.4639,5.4592,5.4544,5.4592,5.4925,5.5114,5.5209,5.5425,5.5755,5.5446,5.5803,5.6038,5.6085,5.6461,5.7256,5.7163,5.7116,5.7303,5.7396,5.7281,5.7281,5.7421,5.7442,5.7256,5.7163,5.6976,5.6742,5.6179,5.5661,5.5661,4.7607,4.763,4.7803,4.7849,4.7803,4.7505,4.7332,4.7286,4.7023,4.6897,4.6966,4.7229,4.7551,4.7849,4.7627,4.7677,4.7882,4.8086,4.8478,4.9002,4.9511,4.9946,5.0275,5.0778,5.1338,5.1807,5.2035,5.2501,5.313,5.2238,5.2282,5.3011,5.2477,5.2152,5.2494,5.2754,5.2685,5.232,5.2794,5.2987,5.274,5.333,5.3317,5.2772,5.3317,5.3622,5.3622,5.4006,5.4153,5.4153,5.4449,5.4385,5.3961,5.4117,5.4236,5.4048,5.4048,5.4048,5.4048,5.4048,5.411,5.4255,5.4438,5.4622,5.4815,5.5236,5.5519,5.554,5.5519,5.545,5.551,5.6025,5.653,5.6552,5.6681,5.6649,5.6367,5.6132,5.5897,5.5567,5.5283,5.4951,5.4856,5.4619,5.4497,5.4497,5.4497,5.4497,5.4544,5.4687,5.483,5.483,5.4925,5.502,5.4856,5.5519,5.5991,5.585,5.6085,5.6555,5.6742,5.6649,5.6742,5.7116,5.7069,5.6861,5.6954,5.7209,5.7069,5.6789,5.6649,5.6367,5.5708,5.5519,5.5425,4.7836,4.7905,4.824,4.8377,4.8354,4.7997,4.7692,4.7489,4.7148,4.6845,4.6721,4.7101,4.7507,4.7832,4.776,4.8066,4.8508,4.8696,4.8996,4.9378,5.007,5.0436,5.064,5.1035,5.1574,5.2079,5.2024,5.2498,5.3342,5.2551,5.2614,5.3514,5.2675,5.2379,5.2719,5.2985,5.2996,5.2925,5.338,5.3482,5.3316,5.36,5.3711,5.3499,5.3857,5.4043,5.385,5.3976,5.408,5.4147,5.4372,5.4398,5.411,5.4331,5.4497,5.4497,5.4497,5.4497,5.4497,5.4497,5.4497,5.4497,5.4497,5.4497,5.4544,5.483,5.502,5.5067,5.5067,5.5067,5.5399,5.5897,5.632,5.632,5.632,5.6179,5.5803,5.5614,5.5378,5.5046,5.4782,5.4544,5.4497,5.4497,5.4497,5.4497,5.4497,5.4497,5.4497,5.4497,5.4497,5.4497,5.4544,5.4592,5.4592,5.5046,5.533,5.5236,5.5944,5.632,5.6367,5.632,5.6414,5.6742,5.6742,5.6508,5.6555,5.6836,5.6742,5.6508,5.6367,5.6132,5.5755,5.5519,5.5567,4.8377,4.8318,4.8364,4.8291,4.8232,4.8182,4.7831,4.7177,4.7163,4.6751,4.6314,4.6574,4.6862,4.6952,4.7373,4.7929,4.8719,4.9179,4.9403,4.9509,5.0373,5.1073,5.1382,5.0866,5.106,5.189,5.1433,5.2371,5.4167,5.3125,5.3131,5.4122,5.3508,5.3073,5.3183,5.3218,5.3255,5.3292,5.338,5.3312,5.324,5.368,5.384,5.3856,5.4234,5.4281,5.3882,5.4234,5.4468,5.4441,5.4482,5.4476,5.4482,5.4476,5.4497,5.4497,5.4497,5.4497,5.4497,5.4497,5.4497,5.4497,5.4497,5.4497,5.4497,5.4544,5.4592,5.4592,5.4592,5.4735,5.5162,5.5304,5.5399,5.5351,5.5493,5.5425,5.5236,5.483,5.4544,5.4544,5.4497,5.4497,5.4497,5.4497,5.4497,5.4497,5.4497,5.4497,5.4497,5.4497,5.4497,5.4497,5.4497,5.4497,5.4497,5.4544,5.4544,5.4735,5.5708,5.6414,5.6226,5.6132,5.6508,5.6789,5.6836,5.6602,5.6508,5.6695,5.6508,5.6273,5.6132,5.6085,5.585,5.5661,5.5803,4.8232,4.7941,4.7685,4.7428,4.7179,4.721,4.689,4.644,4.6689,4.6692,4.6526,4.662,4.7035,4.7513,4.7565,4.7985,4.8871,4.9387,4.9621,4.9706,5.0276,5.0649,5.0889,5.1162,5.1673,5.218,5.2159,5.2533,5.3399,5.3181,5.3285,5.3482,5.3384,5.3344,5.3566,5.3587,5.3758,5.4089,5.411,5.411,5.4083,5.4186,5.4269,5.429,5.4414,5.4414,5.4311,5.4414,5.4497,5.4497,5.4497,5.4497,5.4497,5.4497,5.4497,5.4497,5.4497,5.4497,5.4497,5.4497,5.4497,5.4497,5.4497,5.4497,5.4497,5.4497,5.4497,5.4497,5.4497,5.4571,5.4735,5.4782,5.4925,5.5257,5.5304,5.5162,5.483,5.4639,5.4544,5.4497,5.4497,5.4497,5.4497,5.4497,5.4497,5.4497,5.4497,5.4497,5.4497,5.4497,5.4497,5.4497,5.4497,5.4497,5.4497,5.4497,5.4497,5.4639,5.5378,5.6038,5.5944,5.6085,5.6461,5.6695,5.6742,5.6695,5.6602,5.6508,5.632,5.6367,5.6461,5.6273,5.5944,5.5991,5.6226,4.7502,4.7112,4.6854,4.6596,4.6396,4.6427,4.6099,4.5679,4.6036,4.6079,4.5893,4.6181,4.6716,4.7303,4.7356,4.7951,4.8938,4.9343,4.97,5.0125,5.0464,5.0652,5.0731,5.1381,5.1978,5.2369,5.2467,5.2786,5.3406,5.3427,5.3509,5.3654,5.3487,5.3632,5.3994,5.3921,5.4038,5.4408,5.4333,5.4238,5.419,5.4047,5.3951,5.3951,5.3951,5.3904,5.3924,5.3951,5.4095,5.4401,5.4497,5.4497,5.4497,5.4497,5.4497,5.4497,5.4497,5.4497,5.4497,5.4497,5.4497,5.4497,5.4497,5.4497,5.4497,5.4497,5.4497,5.4497,5.4497,5.4497,5.4497,5.4497,5.4687,5.4972,5.4972,5.4856,5.4544,5.4497,5.4497,5.4497,5.4497,5.4497,5.4497,5.4497,5.4497,5.4497,5.4497,5.4497,5.4497,5.4497,5.4497,5.4497,5.4497,5.4497,5.4497,5.4497,5.4497,5.4687,5.5067,5.5378,5.5519,5.585,5.6226,5.6414,5.6461,5.6508,5.6414,5.6508,5.6461,5.6602,5.6742,5.6555,5.6367,5.6602,5.6789,4.6336,4.6002,4.5965,4.5891,4.5875,4.5828,4.546,4.4954,4.5303,4.5174,4.4842,4.5528,4.6053,4.645,4.7133,4.8046,4.8957,4.9499,5.0055,5.0809,5.1149,5.1235,5.1336,5.156,5.1923,5.2326,5.2387,5.2866,5.3673,5.3741,5.4015,5.4189,5.3924,5.3931,5.4081,5.3931,5.3863,5.4142,5.3951,5.376,5.3712,5.3329,5.3089,5.3089,5.3137,5.3137,5.3137,5.3185,5.3521,5.4306,5.4401,5.4449,5.4497,5.4497,5.4497,5.4497,5.4497,5.4497,5.4497,5.4497,5.4497,5.4497,5.4497,5.4497,5.4497,5.4497,5.4497,5.4497,5.4497,5.4497,5.4497,5.4497,5.4544,5.4497,5.4592,5.4544,5.4497,5.4497,5.4497,5.4497,5.4497,5.4497,5.4497,5.4497,5.4497,5.4497,5.4497,5.4497,5.4497,5.4497,5.4497,5.4497,5.4497,5.4497,5.4497,5.4497,5.4497,5.4592,5.483,5.4972,5.5209,5.5567,5.5944,5.6132,5.632,5.6367,5.6461,5.6602,5.6627,5.6695,5.6789,5.6789,5.6929,5.7069,5.7163,4.5928,4.5518,4.5218,4.4955,4.4718,4.471,4.4649,4.452,4.4958,4.5216,4.5374,4.5912,4.6349,4.6906,4.7961,4.8769,4.9285,5.0402,5.0967,5.1104,5.179,5.2041,5.1954,5.1762,5.1846,5.2276,5.2337,5.2843,5.3747,5.3747,5.3876,5.3999,5.3808,5.3616,5.3425,5.3281,5.3281,5.3377,5.3281,5.3233,5.3185,5.3041,5.2992,5.2992,5.2992,5.2944,5.2992,5.2992,5.3281,5.3904,5.3999,5.4142,5.4428,5.4449,5.4449,5.4449,5.4449,5.4497,5.4497,5.4449,5.4497,5.4497,5.4449,5.4497,5.4497,5.4497,5.4497,5.4497,5.4497,5.4497,5.4497,5.4497,5.4497,5.4497,5.4497,5.4497,5.4497,5.4497,5.4497,5.4497,5.4497,5.4497,5.4497,5.4497,5.4497,5.4497,5.4497,5.4497,5.4497,5.4497,5.4497,5.4497,5.4497,5.4497,5.4497,5.4497,5.4497,5.4497,5.4592,5.4639,5.4877,5.5141,5.5567,5.5944,5.632,5.6414,5.6742,5.6976,5.6929,5.6836,5.7048,5.7209,5.7256,5.7374,5.7374,4.4993,4.4617,4.439,4.4184,4.3961,4.4227,4.4298,4.4443,4.5002,4.5297,4.5548,4.6044,4.6475,4.6884,4.7926,4.8805,4.9439,5.0605,5.126,5.1654,5.2054,5.2141,5.1966,5.1663,5.1788,5.2216,5.2256,5.2731,5.3336,5.3473,5.3473,5.3425,5.3213,5.3068,5.3041,5.2752,5.28,5.2944,5.28,5.2655,5.2635,5.2462,5.2317,5.2317,5.2317,5.2317,5.2317,5.2317,5.2655,5.3281,5.3473,5.3664,5.4095,5.3951,5.3951,5.4142,5.3999,5.3856,5.3876,5.3856,5.3856,5.3904,5.4047,5.4211,5.4258,5.4354,5.4497,5.4497,5.4497,5.4497,5.4497,5.4497,5.4497,5.4497,5.4497,5.4497,5.4497,5.4497,5.4497,5.4497,5.4497,5.4497,5.4497,5.4497,5.4497,5.4497,5.4497,5.4497,5.4497,5.4497,5.4497,5.4497,5.4497,5.4497,5.4497,5.4497,5.4497,5.4497,5.4497,5.4497,5.4639,5.4925,5.5236,5.5708,5.6179,5.6508,5.6742,5.6976,5.7116,5.7163,5.7396,5.7467,5.7467,5.7467,5.7467,4.4019,4.3677,4.3739,4.376,4.3863,4.4194,4.4425,4.4551,4.5193,4.5387,4.5392,4.5963,4.6447,4.6575,4.771,4.8526,4.9778,5.0454,5.1262,5.1831,5.2124,5.1875,5.1598,5.153,5.168,5.1986,5.2085,5.2423,5.28,5.2944,5.2896,5.2848,5.2491,5.2442,5.2559,5.2298,5.2394,5.2559,5.2298,5.2153,5.2056,5.1765,5.1639,5.1639,5.1757,5.1708,5.1679,5.1699,5.2128,5.296,5.2956,5.3185,5.3569,5.3233,5.3281,5.3569,5.3377,5.3137,5.3041,5.3137,5.3089,5.3185,5.3582,5.3821,5.4047,5.4368,5.4649,5.4641,5.4559,5.4579,5.4497,5.4497,5.4497,5.4497,5.4497,5.4497,5.4497,5.4497,5.4497,5.4497,5.4497,5.4497,5.4497,5.4497,5.4497,5.4497,5.4497,5.4497,5.4497,5.4497,5.4497,5.4497,5.4497,5.4497,5.4497,5.4497,5.4497,5.4497,5.4497,5.4497,5.4544,5.4782,5.502,5.533,5.5661,5.6038,5.632,5.6602,5.6976,5.7209,5.7349,5.7442,5.7467,5.7467,5.7467,4.423,4.4194,4.4546,4.4712,4.4712,4.4815,4.4846,4.4858,4.5063,4.5311,4.5634,4.6116,4.6697,4.7333,4.8133,4.9246,5.0145,5.0882,5.1758,5.2039,5.1735,5.1532,5.1434,5.1415,5.1473,5.162,5.1571,5.1862,5.2249,5.2346,5.2346,5.2298,5.2153,5.2056,5.1765,5.1717,5.162,5.1717,5.162,5.1639,5.1659,5.1562,5.1436,5.1494,5.1777,5.1933,5.2012,5.2266,5.2521,5.263,5.2588,5.2707,5.3141,5.3053,5.3053,5.3081,5.3061,5.2944,5.3013,5.2916,5.3013,5.2977,5.3383,5.3855,5.4311,5.4674,5.4965,5.5021,5.5041,5.4855,5.4538,5.4497,5.4497,5.4497,5.4497,5.4497,5.4497,5.4497,5.4497,5.4497,5.4497,5.4497,5.4497,5.4449,5.4449,5.4497,5.4497,5.4497,5.4497,5.4497,5.4497,5.4497,5.4497,5.4497,5.4497,5.4497,5.4497,5.4497,5.4497,5.4497,5.4544,5.4592,5.4782,5.4972,5.5162,5.5472,5.5897,5.632,5.6695,5.6976,5.7209,5.7303,5.7349,5.7421,5.7467,4.4505,4.436,4.4795,4.5041,4.5022,4.5032,4.502,4.5005,4.5028,4.5107,4.546,4.5856,4.6408,4.7026,4.7963,4.887,4.9981,5.1031,5.1649,5.1755,5.1523,5.1426,5.1328,5.1231,5.1134,5.1328,5.1397,5.1571,5.1717,5.162,5.1474,5.1474,5.1523,5.1328,5.1183,5.1299,5.1377,5.1426,5.1397,5.1475,5.1699,5.1738,5.1875,5.2012,5.2266,5.2383,5.2402,5.2558,5.2695,5.2647,5.2532,5.2669,5.302,5.2832,5.2732,5.2858,5.2445,5.2289,5.2269,5.2448,5.2538,5.2635,5.3179,5.3604,5.4125,5.4642,5.5083,5.5129,5.5145,5.5,5.4559,5.4497,5.4497,5.4497,5.4497,5.4497,5.4497,5.4497,5.4497,5.4449,5.4285,5.4354,5.4354,5.4238,5.4333,5.4354,5.4449,5.4449,5.4497,5.4497,5.4497,5.4497,5.4497,5.4497,5.4497,5.4497,5.4497,5.4497,5.4497,5.4497,5.4544,5.4544,5.4544,5.4687,5.4877,5.5067,5.5446,5.5918,5.6273,5.6461,5.6695,5.6976,5.7209,5.7256,5.7396,4.4898,4.465,4.5043,4.5231,4.5278,4.5205,4.5067,4.5008,4.5026,4.5015,4.5119,4.5532,4.6209,4.667,4.755,4.8561,4.9793,5.079,5.1484,5.1455,5.128,5.1231,5.1134,5.0842,5.0695,5.1153,5.1037,5.1085,5.0988,5.0793,5.0695,5.0617,5.0598,5.0772,5.0889,5.1153,5.1514,5.1689,5.1777,5.1875,5.2129,5.2187,5.2344,5.2539,5.2754,5.2812,5.2832,5.293,5.2969,5.291,5.291,5.311,5.3211,5.2807,5.2335,5.2827,5.2188,5.1992,5.2032,5.209,5.2286,5.2187,5.2975,5.3509,5.3847,5.4571,5.5135,5.5213,5.5219,5.5,5.4559,5.4497,5.4497,5.4497,5.4497,5.4497,5.4497,5.4449,5.4354,5.4306,5.4095,5.4047,5.3951,5.3856,5.3999,5.4142,5.4258,5.4306,5.4354,5.4306,5.4163,5.4067,5.3972,5.3924,5.3924,5.3972,5.4067,5.4258,5.4306,5.4401,5.4449,5.4497,5.4497,5.4497,5.4639,5.483,5.5067,5.5399,5.5708,5.5944,5.6226,5.6555,5.6836,5.7023,5.7163,4.5726,4.5976,4.6058,4.631,4.6495,4.5902,4.5371,4.5055,4.503,4.5015,4.5127,4.5828,4.6592,4.7363,4.8242,4.9355,5.0248,5.0959,5.1299,5.1183,5.0988,5.0793,5.0714,5.0274,5.0127,5.0127,5.0127,5.0176,5.0225,5.0078,5.0029,5.0048,5.0067,5.0348,5.0892,5.1322,5.1685,5.2057,5.2215,5.2342,5.2379,5.2576,5.2645,5.2821,5.3105,5.3242,5.334,5.3594,5.3758,5.3758,5.3758,5.382,5.3695,5.3077,5.2745,5.2668,5.2501,5.2197,5.2305,5.2461,5.2578,5.2695,5.3119,5.3624,5.4144,5.4875,5.5364,5.5544,5.5363,5.5062,5.4559,5.4621,5.4517,5.4517,5.4538,5.447,5.4354,5.4095,5.3808,5.3664,5.3616,5.3664,5.3521,5.3377,5.3425,5.3521,5.3616,5.3616,5.3569,5.3521,5.3377,5.3281,5.3185,5.3185,5.3185,5.3281,5.3377,5.376,5.3904,5.4163,5.4211,5.4449,5.4497,5.4497,5.4497,5.4592,5.483,5.502,5.5188,5.5425,5.5755,5.6132,5.6273,5.6414,5.6602,4.6327,4.6328,4.6557,4.6803,4.6797,4.6056,4.5559,4.5361,4.5106,4.5131,4.5492,4.6035,4.6777,4.7572,4.8156,4.9054,4.9877,5.0425,5.0598,5.0568,5.0421,5.0274,5.0225,4.9735,4.9538,4.9391,4.9243,4.944,4.9784,4.9587,4.9508,4.9545,4.9677,5.007,5.0626,5.1264,5.1605,5.2016,5.2155,5.2251,5.2313,5.2618,5.3006,5.3336,5.3555,5.3691,5.375,5.3867,5.3972,5.3953,5.3972,5.3972,5.3836,5.3602,5.3133,5.2793,5.2558,5.2422,5.2402,5.2402,5.2539,5.3008,5.3331,5.3628,5.4127,5.471,5.5377,5.5702,5.6029,5.5724,5.5331,5.5159,5.4959,5.4581,5.4615,5.4321,5.3698,5.3445,5.3149,5.288,5.2764,5.286,5.3089,5.2992,5.2848,5.2848,5.2964,5.2896,5.2848,5.2704,5.2559,5.2752,5.2752,5.28,5.2752,5.2752,5.2896,5.3233,5.3425,5.3664,5.3924,5.4067,5.4306,5.4497,5.4497,5.4401,5.4544,5.4782,5.483,5.4972,5.533,5.5614,5.5708,5.585,5.6038,4.6763,4.6619,4.678,4.6895,4.6848,4.6054,4.5715,4.5605,4.5327,4.5391,4.584,4.6236,4.6834,4.7541,4.8057,4.8671,4.9322,4.9818,4.9961,4.9931,4.9784,4.9735,4.9587,4.9243,4.8928,4.8898,4.8682,4.8731,4.9243,4.9144,4.9034,4.9151,4.943,4.9772,5.0209,5.1113,5.1328,5.1612,5.1732,5.1923,5.2094,5.2603,5.3205,5.3615,5.3666,5.3646,5.3729,5.3749,5.3768,5.3768,5.3768,5.3819,5.3819,5.3819,5.35,5.2919,5.2598,5.25,5.2519,5.2598,5.2988,5.3457,5.3496,5.3711,5.407,5.4657,5.5245,5.5733,5.5868,5.6086,5.573,5.5633,5.5322,5.5019,5.4827,5.4551,5.3475,5.2861,5.2462,5.2227,5.1972,5.2147,5.2547,5.2406,5.2212,5.2234,5.2331,5.2027,5.193,5.1833,5.1785,5.2172,5.2366,5.2442,5.2414,5.2366,5.2511,5.2732,5.2876,5.3041,5.3329,5.3616,5.3856,5.4047,5.4238,5.419,5.4354,5.4497,5.4639,5.4782,5.4972,5.5114,5.5162,5.5283,5.5472,4.68,4.7453,4.6685,4.6603,4.6822,4.6098,4.57,4.5691,4.5625,4.584,4.6197,4.6561,4.7024,4.7573,4.8233,4.8983,4.953,4.9678,4.9686,4.9637,4.9323,4.9194,4.9144,4.8632,4.8533,4.8521,4.8422,4.8335,4.8638,4.8607,4.8655,4.8913,4.9165,4.9524,5.0485,5.1027,5.1443,5.2033,5.2244,5.2263,5.2268,5.2396,5.2537,5.264,5.2742,5.2897,5.3256,5.3339,5.3339,5.3288,5.3288,5.3288,5.3288,5.3288,5.3363,5.3403,5.3555,5.3738,5.3633,5.3437,5.3535,5.3769,5.3848,5.3965,5.4208,5.4849,5.5497,5.5722,5.5532,5.551,5.5668,5.5021,5.5017,5.4899,5.4613,5.4327,5.3547,5.2256,5.187,5.1661,5.1515,5.1803,5.2168,5.1865,5.164,5.166,5.164,5.1338,5.1105,5.1046,5.0958,5.1299,5.1494,5.1591,5.1639,5.1639,5.1862,5.2153,5.2249,5.2394,5.2828,5.3089,5.3137,5.3377,5.3664,5.3951,5.4047,5.4211,5.4401,5.4613,5.4845,5.4729,5.4592,5.4782,5.4999,4.6675,4.7251,4.6884,4.6822,4.6884,4.6268,4.6039,4.5977,4.5992,4.6047,4.6223,4.6553,4.7085,4.7658,4.8287,4.8645,4.8934,4.9046,4.8996,4.9027,4.878,4.8632,4.8583,4.8434,4.8335,4.8359,4.8506,4.8671,4.8634,4.8603,4.8763,4.8964,4.9368,4.9786,5.0586,5.101,5.1229,5.1377,5.1433,5.1589,5.1795,5.1899,5.2073,5.233,5.2382,5.2504,5.2762,5.3083,5.298,5.2878,5.298,5.3185,5.3185,5.3237,5.3326,5.3777,5.3887,5.3867,5.3633,5.3476,5.3633,5.3848,5.3848,5.373,5.4129,5.4939,5.5588,5.5688,5.5497,5.5456,5.5434,5.4744,5.4185,5.3985,5.4016,5.316,5.2702,5.2135,5.1389,5.1195,5.1101,5.1484,5.1727,5.1536,5.1385,5.1416,5.124,5.0862,5.0572,5.0457,5.0351,5.0323,5.047,5.0568,5.0568,5.0568,5.089,5.1183,5.128,5.1571,5.2298,5.2587,5.2511,5.2752,5.3185,5.3473,5.3712,5.4108,5.4505,5.4594,5.471,5.4751,5.4724,5.4565,5.4755,4.6597,4.6809,4.6824,4.6832,4.6809,4.6406,4.6224,4.6184,4.6184,4.6202,4.6341,4.6668,4.7168,4.7561,4.785,4.806,4.8317,4.8187,4.8236,4.8236,4.8335,4.8335,4.8322,4.8291,4.827,4.8252,4.8338,4.8483,4.8639,4.8881,4.9055,4.9189,4.9702,5.0138,5.0425,5.0815,5.1104,5.0862,5.0829,5.0966,5.1226,5.133,5.1537,5.1833,5.2044,5.2171,5.2378,5.2808,5.2827,5.2742,5.2713,5.2797,5.283,5.3004,5.3346,5.3808,5.413,5.4355,5.4004,5.3711,5.3516,5.3672,5.3808,5.3769,5.4086,5.4928,5.5334,5.5153,5.4988,5.505,5.499,5.42,5.3719,5.334,5.3142,5.2069,5.1225,5.1212,5.1129,5.1,5.0954,5.1107,5.1255,5.1193,5.1144,5.1176,5.088,5.0409,5.0115,4.9889,4.9837,4.981,5.0037,5.0086,5.0067,5.0067,5.0245,5.0342,5.044,5.0714,5.1367,5.1591,5.1571,5.1979,5.2511,5.2752,5.2876,5.3739,5.4601,5.4677,5.478,5.4993,5.5,5.4704,5.4517,4.6706,4.6357,4.6333,4.6372,4.6348,4.6232,4.6184,4.6197,4.6124,4.6295,4.6622,4.6972,4.7047,4.7179,4.7229,4.7562,4.8187,4.7758,4.7808,4.8038,4.8286,4.8155,4.8116,4.8085,4.8083,4.8072,4.8211,4.8066,4.8122,4.8886,4.9441,4.9998,4.995,5.0273,5.0438,5.0496,5.0654,5.0569,5.0569,5.0673,5.0829,5.0847,5.0918,5.101,5.1283,5.159,5.2081,5.2605,5.2754,5.263,5.2526,5.2428,5.2533,5.2898,5.3418,5.3924,5.4656,5.485,5.4726,5.4316,5.4023,5.3972,5.3933,5.3804,5.3768,5.4805,5.499,5.4267,5.4045,5.4033,5.3794,5.3249,5.2801,5.2788,5.2596,5.2166,5.1454,5.1078,5.1011,5.077,5.0874,5.1115,5.1074,5.1117,5.1052,5.1089,5.0632,5.0232,4.969,4.9449,4.9375,4.9411,4.9719,4.9848,4.9928,4.9947,4.9912,4.9973,5.0083,5.0094,5.0302,5.0479,5.0763,5.0958,5.1397,5.1765,5.2183,5.2995,5.377,5.4426,5.4847,5.5089,5.5055,5.4745,5.4579,4.6201,4.6194,4.5947,4.5991,4.6213,4.5878,4.5901,4.6083,4.6043,4.6261,4.6549,4.6646,4.6785,4.6893,4.683,4.695,4.7242,4.7161,4.7211,4.7211,4.731,4.7436,4.7533,4.773,4.7707,4.7891,4.8024,4.8167,4.8324,4.8799,4.9116,4.943,4.9724,4.9988,5.0115,4.9995,5.0013,5.024,5.0274,5.036,5.0709,5.0982,5.1092,5.111,5.1495,5.1731,5.2033,5.2534,5.2502,5.243,5.2425,5.2456,5.2543,5.307,5.3577,5.412,5.4927,5.5299,5.5351,5.498,5.4726,5.4375,5.4148,5.3807,5.3436,5.4014,5.3872,5.3365,5.305,5.3126,5.2851,5.2073,5.1541,5.195,5.2062,5.191,5.1757,5.1338,5.1322,5.1393,5.1267,5.1317,5.1206,5.1095,5.1033,5.0933,5.0479,5.0008,4.9589,4.9244,4.926,4.9268,4.9567,4.9673,4.9723,4.9636,4.953,4.9605,4.9728,4.9827,4.9908,4.9988,5.0245,5.0294,5.04,5.08,5.1385,5.2109,5.2965,5.3782,5.4557,5.5163,5.5027,5.478,5.4641,4.5864,4.5955,4.5595,4.5742,4.6101,4.5766,4.5753,4.5982,4.5983,4.6063,4.625,4.6284,4.6438,4.6588,4.6516,4.6594,4.6661,4.6629,4.6629,4.6764,4.6971,4.703,4.7228,4.741,4.7608,4.7785,4.7895,4.8053,4.8001,4.8526,4.8701,4.8894,4.9139,4.9349,4.9576,4.9404,4.9511,5.0039,5.0286,5.0496,5.106,5.1348,5.1495,5.155,5.1845,5.2082,5.2281,5.2605,5.2697,5.2588,5.2531,5.2652,5.2953,5.3378,5.3961,5.4528,5.5132,5.5611,5.5644,5.5371,5.5195,5.4863,5.4409,5.3821,5.3396,5.3532,5.3459,5.2558,5.2459,5.2426,5.2247,5.1578,5.1396,5.1914,5.1806,5.1685,5.1814,5.1605,5.189,5.2052,5.1835,5.1601,5.1454,5.1307,5.1065,5.0878,5.0403,5.0075,4.9822,4.9565,4.94,4.9414,4.9533,4.9556,4.951,4.9565,4.9569,4.9532,4.9609,4.9703,4.976,4.9815,4.9945,5.0233,5.0252,5.015,5.0725,5.1693,5.2507,5.3222,5.4024,5.4845,5.5045,5.48,5.4601,4.591,4.552,4.5464,4.5659,4.6053,4.6017,4.5973,4.5946,4.5869,4.5801,4.5826,4.603,4.6181,4.6112,4.6038,4.611,4.6311,4.6128,4.6145,4.6502,4.6746,4.7091,4.7274,4.737,4.7443,4.7566,4.7529,4.7456,4.7507,4.7859,4.8105,4.8245,4.8421,4.8614,4.9017,4.9354,4.9992,5.0776,5.0776,5.1132,5.1504,5.1737,5.1917,5.1955,5.2302,5.245,5.2613,5.2796,5.2942,5.287,5.2668,5.2684,5.2737,5.3738,5.4272,5.4451,5.5737,5.6392,5.6411,5.5689,5.5168,5.5031,5.4524,5.3943,5.4006,5.3796,5.31,5.2066,5.2323,5.2202,5.1904,5.164,5.1752,5.1809,5.1735,5.1809,5.1937,5.2009,5.2224,5.2406,5.217,5.1898,5.1752,5.155,5.1202,5.0835,5.0395,5.0123,5.005,4.994,4.9863,4.99,4.9936,4.9918,4.9936,4.9698,4.9602,4.9584,4.9561,4.9653,4.9634,4.9643,4.9831,5.0163,5.0083,4.9947,5.0616,5.1366,5.194,5.2483,5.3615,5.4375,5.4636,5.4788,5.4566,4.5468,4.5811,4.5483,4.5566,4.5909,4.5658,4.5676,4.5822,4.5583,4.5442,4.5517,4.5408,4.5586,4.5695,4.5554,4.5507,4.5558,4.5575,4.5627,4.604,4.6315,4.6577,4.6855,4.7045,4.7181,4.7283,4.7118,4.7046,4.74,4.7312,4.7365,4.7611,4.7958,4.8115,4.8238,4.8501,4.8906,4.974,5.0241,5.0724,5.1313,5.1906,5.2285,5.2285,5.2705,5.2907,5.2907,5.3091,5.3182,5.3146,5.2907,5.2907,5.3051,5.3952,5.4528,5.4851,5.5866,5.6134,5.5471,5.461,5.4367,5.4512,5.4297,5.3549,5.2873,5.3032,5.2409,5.1948,5.213,5.2005,5.1825,5.1843,5.1919,5.2192,5.2175,5.2357,5.2449,5.2394,5.2466,5.2649,5.2523,5.2157,5.1972,5.1917,5.1605,5.1312,5.0874,5.0688,5.0578,5.0523,5.0431,5.0541,5.0578,5.0523,5.0431,5.034,5.0303,5.034,4.9991,4.9639,4.9606,4.9771,4.9694,4.998,4.9925,4.9888,5.0434,5.0931,5.1099,5.1755,5.2966,5.386,5.4205,5.4419,5.4419,4.5443,4.5714,4.5583,4.5551,4.5593,4.5515,4.557,4.5554,4.5225,4.513,4.5178,4.4997,4.5151,4.5419,4.5323,4.5121,4.5121,4.5275,4.5361,4.5755,4.6029,4.6268,4.6506,4.6604,4.665,4.6747,4.6568,4.6462,4.6675,4.6339,4.6653,4.7282,4.7839,4.824,4.8343,4.8589,4.8889,4.9727,5.0339,5.0792,5.146,5.2055,5.2507,5.2744,5.3054,5.3274,5.3237,5.3292,5.3384,5.3201,5.3164,5.3183,5.3455,5.3726,5.4287,5.4593,5.4755,5.4898,5.4177,5.3929,5.3924,5.4334,5.3669,5.2821,5.2158,5.2319,5.2031,5.1727,5.1997,5.2086,5.2175,5.2193,5.2596,5.287,5.2815,5.2944,5.2815,5.2742,5.2705,5.2907,5.2907,5.2522,5.2229,5.2155,5.2045,5.1717,5.1424,5.1241,5.111,5.1055,5.1037,5.111,5.122,5.1202,5.1183,5.1165,5.1128,5.1128,5.0706,5.0193,5.0211,5.0413,5.0138,4.9918,5.0131,5.0255,5.0167,5.045,5.0929,5.1613,5.2582,5.3292,5.374,5.3996,5.4214,4.5714,4.5435,4.5737,4.5535,4.5223,4.5506,4.5448,4.5041,4.494,4.475,4.4647,4.4962,4.496,4.4985,4.4953,4.4936,4.4971,4.5294,4.5482,4.5721,4.5991,4.6088,4.6114,4.6244,4.6219,4.5896,4.5716,4.5699,4.5699,4.6082,4.6517,4.7245,4.8141,4.8594,4.8889,4.908,4.9437,4.9922,5.0377,5.0853,5.1491,5.2036,5.2472,5.2818,5.3092,5.3274,5.3402,5.3659,5.3567,5.3512,5.3439,5.3293,5.3238,5.3073,5.3109,5.3163,5.3272,5.3109,5.3036,5.3055,5.2926,5.2982,5.2617,5.2253,5.2418,5.2563,5.2382,5.2454,5.2727,5.2708,5.2725,5.3219,5.3696,5.3677,5.3494,5.3384,5.3182,5.3091,5.3054,5.3072,5.3072,5.2852,5.2632,5.2522,5.2485,5.2267,5.2065,5.2082,5.1898,5.1589,5.157,5.166,5.1699,5.1809,5.179,5.1699,5.1607,5.1515,5.144,5.1055,5.1092,5.1018,5.0872,5.0743,5.0725,5.0688,5.0667,5.077,5.1122,5.179,5.2426,5.28,5.3261,5.3812,5.4092,4.5601,4.569,4.547,4.5223,4.5088,4.4815,4.4586,4.4447,4.4265,4.4124,4.3987,4.369,4.3909,4.3958,4.3991,4.4142,4.4325,4.4491,4.4858,4.5227,4.5685,4.5656,4.5697,4.5793,4.5753,4.5556,4.5342,4.5284,4.5745,4.6092,4.6964,4.7919,4.8383,4.8946,4.9244,4.9437,4.9616,4.9906,5.0217,5.0694,5.1153,5.1539,5.2159,5.2723,5.2793,5.3069,5.373,5.3801,5.3674,5.3585,5.3255,5.3016,5.2925,5.2672,5.2545,5.2945,5.2509,5.187,5.176,5.1206,5.107,5.1488,5.1397,5.2552,5.305,5.3437,5.331,5.3255,5.3438,5.3549,5.3567,5.3934,5.4228,5.4081,5.3879,5.3677,5.3457,5.3219,5.3182,5.3127,5.3127,5.3182,5.2962,5.2944,5.2907,5.2815,5.2779,5.276,5.2632,5.2303,5.212,5.2174,5.2248,5.2358,5.2193,5.2083,5.201,5.1919,5.179,5.1752,5.166,5.1605,5.1587,5.1458,5.1222,5.1183,5.1128,5.1304,5.139,5.1624,5.2121,5.2468,5.2843,5.3442,5.3992,4.557,4.5535,4.5223,4.4964,4.4672,4.4199,4.4001,4.3987,4.3847,4.3688,4.339,4.3238,4.3269,4.3485,4.3585,4.3699,4.4047,4.433,4.4644,4.5025,4.5197,4.5272,4.533,4.5288,4.5111,4.493,4.4882,4.485,4.5454,4.6297,4.717,4.7766,4.8391,4.8998,4.93,4.9335,4.9352,4.9646,4.9958,5.0321,5.0706,5.1108,5.1836,5.251,5.2503,5.326,5.389,5.3811,5.3943,5.3524,5.3062,5.293,5.2635,5.211,5.1819,5.2038,5.1612,5.1239,5.1128,5.0943,5.0604,5.0764,5.1347,5.2694,5.3514,5.3888,5.3781,5.3746,5.4151,5.4447,5.4483,5.4502,5.4448,5.4356,5.408,5.386,5.3586,5.3329,5.3237,5.3164,5.3237,5.3366,5.3366,5.3311,5.3366,5.3439,5.3439,5.3439,5.3237,5.2944,5.2724,5.2632,5.2761,5.2908,5.2706,5.256,5.256,5.245,5.223,5.2192,5.212,5.1955,5.1809,5.1717,5.1644,5.1623,5.155,5.1568,5.164,5.1856,5.2125,5.2456,5.2848,5.333,5.3763,4.5525,4.5106,4.5059,4.4725,4.4147,4.385,4.3657,4.3624,4.3574,4.339,4.302,4.3166,4.318,4.3127,4.3193,4.3438,4.3747,4.4057,4.4401,4.4992,4.5174,4.5156,4.4903,4.478,4.485,4.4433,4.4366,4.4823,4.5015,4.5885,4.6817,4.7274,4.7738,4.84,4.9098,4.8791,4.8919,4.9483,4.9668,5.0015,5.0668,5.1086,5.1485,5.2451,5.3076,5.3725,5.3897,5.4172,5.4501,5.3538,5.2889,5.2734,5.2035,5.1644,5.1344,5.107,5.0888,5.0871,5.0928,5.0928,5.1361,5.1814,5.264,5.3188,5.3571,5.4098,5.4066,5.4329,5.47,5.4831,5.485,5.496,5.4941,5.4723,5.4429,5.4227,5.4044,5.3714,5.3384,5.3366,5.3384,5.3548,5.3677,5.3677,5.3419,5.3822,5.3674,5.3583,5.3695,5.3366,5.3347,5.3146,5.3219,5.3311,5.3219,5.3109,5.3183,5.3054,5.2743,5.2632,5.2577,5.2285,5.2028,5.2065,5.2174,5.1992,5.1919,5.1919,5.1937,5.2064,5.2334,5.257,5.2924,5.3288,5.3567,4.5167,4.4927,4.4843,4.4413,4.3852,4.3756,4.3406,4.2929,4.2945,4.2827,4.2707,4.2415,4.2275,4.2458,4.2631,4.2905,4.3294,4.36,4.3895,4.42,4.4591,4.4595,4.4593,4.4548,4.4668,4.4796,4.4852,4.4979,4.5328,4.6012,4.6611,4.7046,4.745,4.802,4.8645,4.8287,4.8478,4.933,4.9324,4.9712,5.0483,5.0664,5.0954,5.191,5.2658,5.333,5.3479,5.3543,5.3511,5.2982,5.2167,5.1594,5.0982,5.1274,5.1183,5.0806,5.0875,5.0852,5.0909,5.108,5.1211,5.145,5.1948,5.2675,5.3351,5.3971,5.448,5.4857,5.5084,5.5179,5.5216,5.5344,5.5399,5.5015,5.4704,5.4631,5.4539,5.406,5.3619,5.36,5.3617,5.3783,5.3968,5.3875,5.3633,5.3316,5.2962,5.2944,5.3501,5.358,5.3914,5.3786,5.3622,5.3641,5.3659,5.3696,5.3732,5.3512,5.3182,5.3054,5.298,5.2852,5.2633,5.2633,5.2687,5.245,5.2322,5.2322,5.2358,5.2449,5.254,5.2831,5.2923,5.3208,5.3409,4.5078,4.4623,4.4335,4.3887,4.339,4.3305,4.3048,4.2636,4.2192,4.2031,4.221,4.2088,4.2115,4.2175,4.2272,4.2577,4.293,4.303,4.333,4.3554,4.3821,4.3698,4.3832,4.4082,4.4239,4.4475,4.5059,4.5416,4.5647,4.5982,4.6406,4.6816,4.7185,4.7444,4.8005,4.8019,4.8254,4.9379,4.8999,4.9463,5.0374,5.0721,5.1057,5.1848,5.2268,5.2792,5.2712,5.2586,5.2176,5.1894,5.121,5.1551,5.1523,5.1995,5.1971,5.1817,5.1714,5.1502,5.1508,5.132,5.1166,5.1492,5.1737,5.2574,5.345,5.4129,5.4718,5.5135,5.5306,5.5363,5.5363,5.5454,5.5473,5.5253,5.4886,5.4667,5.4483,5.4208,5.3968,5.3987,5.4133,5.4352,5.4482,5.4482,5.4331,5.4493,5.3913,5.3615,5.3953,5.3937,5.4237,5.4443,5.43,5.4062,5.3989,5.4062,5.4209,5.3934,5.3567,5.3531,5.3476,5.3366,5.3293,5.3201,5.3035,5.287,5.2779,5.2834,5.2797,5.2815,5.2925,5.3035,5.3109,5.3109,5.3248,4.4943,4.4136,4.3803,4.3356,4.2903,4.2675,4.2499,4.2259,4.1419,4.1173,4.1588,4.2032,4.243,4.2383,4.2276,4.2707,4.2927,4.3056,4.3082,4.3107,4.3364,4.3526,4.3351,4.3177,4.3715,4.4361,4.4954,4.5358,4.5723,4.5964,4.6262,4.6591,4.6704,4.6776,4.7584,4.7901,4.8048,4.8882,4.9128,4.9416,5.0232,5.1033,5.1129,5.1448,5.181,5.1735,5.1735,5.1503,5.0904,5.068,5.0504,5.1182,5.1843,5.2348,5.257,5.2485,5.2399,5.245,5.2467,5.1919,5.1937,5.2053,5.2153,5.2657,5.3513,5.414,5.4788,5.5263,5.5434,5.5491,5.5491,5.5509,5.5509,5.5473,5.5106,5.4795,5.4575,5.4391,5.4409,5.4409,5.4592,5.4848,5.4923,5.4923,5.4995,5.5233,5.5249,5.5231,5.5044,5.4635,5.4562,5.4863,5.4923,5.4685,5.4428,5.4428,5.4576,5.4227,5.3915,5.3915,5.3879,5.3805,5.3659,5.3512,5.3347,5.3293,5.3347,5.3402,5.3329,5.3182,5.3256,5.3311,5.3109,5.3109,5.3109,4.4208,4.3804,4.359,4.3216,4.2673,4.2176,4.1731,4.1316,4.096,4.0955,4.1261,4.159,4.1773,4.1558,4.1728,4.205,4.2434,4.2782,4.2882,4.2903,4.3461,4.3634,4.3586,4.3382,4.3896,4.4373,4.4773,4.519,4.5589,4.5881,4.6044,4.6188,4.6548,4.6714,4.7074,4.7358,4.7726,4.852,4.894,4.9195,4.9195,4.9732,5.0039,5.0496,5.1113,5.1096,5.0979,5.0572,5.028,5.0138,5.0254,5.0998,5.1845,5.257,5.2741,5.2947,5.2878,5.2827,5.2656,5.2313,5.2296,5.2098,5.2251,5.2677,5.3411,5.3928,5.4616,5.532,5.5491,5.5491,5.5509,5.5489,5.545,5.5509,5.5289,5.5144,5.4943,5.477,5.4728,5.4784,5.4896,5.5119,5.5289,5.5101,5.4816,5.4866,5.4637,5.4676,5.5019,5.4925,5.4964,5.5135,5.5363,5.5161,5.4888,5.4776,5.4776,5.4502,5.4318,5.4318,5.4282,5.4209,5.4044,5.3824,5.3879,5.3952,5.4007,5.3842,5.3751,5.3622,5.3567,5.3512,5.3292,5.3109,5.3109]},{"header":{"parameterUnit":"m.s-1","parameterCategory":1,"la1":31.0,"la2":29.5877,"lo1":-88.7671,"lo2":-86.6584,"dy":0.0162,"dx":0.0185,"nx":115,"ny":88,"refTime":"2023-11-14T18:00:00:Z","depth":0,"parameterNumber":3,"parameterNumberName":"V-component_of_WINDS"},"data":[0.0,0.0,0.0,0.0,0.0,0.0,0.0,0.0,0.0,0.0,0.0,0.0,0.0,0.0,0.0,0.0,0.0,0.0,0.0,0.0,0.0,0.0,0.0,0.0,0.0,0.0,0.0,0.0,0.0,0.0,0.0,0.0,0.0,0.0,0.0,0.0,0.0,0.0,0.0,0.0,0.0,0.0,0.0,0.0,0.0,0.0,0.0,0.0,0.0,0.0,0.0,0.0,0.0,0.0,0.0,0.0,0.0,0.0,0.0,0.0,0.0,0.0,0.0,0.0,0.0,0.0,0.0,0.0,0.0,0.0,0.0,0.0,0.0,0.0,0.0,0.0,0.0,0.0,0.0,0.0,0.0,0.0,0.0,0.0,0.0,0.0,0.0,0.0,0.0,0.0,0.0,0.0,0.0,0.0,0.0,0.0,0.0,0.0,0.0,0.0,0.0,0.0,0.0,0.0,0.0,0.0,0.0,0.0,0.0,0.0,0.0,0.0,0.0,0.0,0.0,0.0,0.0,0.0,0.0,0.0,0.0,0.0,0.0,0.0,0.0,0.0,0.0,0.0,0.0,0.0,0.0,0.0,0.0,0.0,0.0,0.0,0.0,0.0,0.0,0.0,0.0,0.0,0.0,0.0,0.0,0.0,0.0,0.0,0.0,0.0,0.0,0.0,0.0,0.0,0.0,0.0,0.0,0.0,0.0,0.0,0.0,0.0,0.0,0.0,0.0,0.0,0.0,0.0,0.0,0.0,0.0,0.0,0.0,0.0,0.0,0.0,0.0,0.0,0.0,0.0,0.0,0.0,0.0,0.0,0.0,0.0,0.0,0.0,0.0,0.0,0.0,0.0,0.0,0.0,0.0,0.0,0.0,0.0,0.0,0.0,0.0,0.0,0.0,0.0,0.0,0.0,0.0,0.0,0.0,0.0,0.0,0.0,0.0,0.0,0.0,0.0,0.0,0.0,0.0,0.0,0.0,0.0,0.0,0.0,0.0,0.0,0.0,0.0,0.0,0.0,0.0,0.0,0.0,0.0,0.0,0.0,0.0,0.0,0.0,0.0,0.0,0.0,0.0,0.0,0.0,0.0,0.0,0.0,0.0,0.0,0.0,0.0,0.0,0.0,0.0,0.0,0.0,0.0,0.0,0.0,0.0,0.0,0.0,0.0,0.0,0.0,0.0,0.0,0.0,0.0,0.0,0.0,0.0,0.0,0.0,0.0,0.0,0.0,0.0,0.0,0.0,0.0,0.0,0.0,0.0,0.0,0.0,0.0,0.0,0.0,0.0,0.0,0.0,0.0,0.0,0.0,0.0,0.0,0.0,0.0,0.0,0.0,0.0,0.0,0.0,0.0,0.0,0.0,0.0,0.0,0.0,0.0,0.0,0.0,0.0,0.0,0.0,0.0,0.0,0.0,0.0,0.0,0.0,0.0,0.0,0.0,0.0,0.0,0.0,0.0,0.0,0.0,0.0,0.0,0.0,0.0,0.0,0.0,0.0,0.0,0.0,0.0,0.0,0.0,0.0,0.0,0.0,0.0,0.0,0.0,0.0,0.0,0.0,0.0,0.0,0.0,0.0,0.0,0.0,0.0,0.0,0.0,0.0,0.0,0.0,0.0,0.0,0.0,0.0,0.0,0.0,0.0,0.0,0.0,0.0,0.0,0.0,0.0,0.0,0.0,0.0,0.0,0.0,0.0,0.0,0.0,0.0,0.0,0.0,0.0,0.0,0.0,0.0,0.0,0.0,0.0,0.0,0.0,0.0,0.0,0.0,0.0,0.0,0.0,0.0,0.0,0.0,0.0,0.0,0.0,0.0,0.0,0.0,0.0,0.0,0.0,0.0,0.0,0.0,0.0,0.0,0.0,0.0,0.0,0.0,0.0,0.0,0.0,0.0,0.0,0.0,0.0,0.0,0.0,0.0,0.0,0.0,0.0,0.0,0.0,0.0,0.0,0.0,0.0,0.0,0.0,0.0,0.0,0.0,0.0,0.0,0.0,0.0,0.0,0.0,0.0,0.0,0.0,0.0,0.0,0.0,0.0,0.0,0.0,0.0,0.0,0.0,0.0,0.0,0.0,0.0,0.0,0.0,0.0,0.0,0.0,0.0,0.0,0.0,0.0,0.0,0.0,0.0,0.0,0.0,0.0,0.0,0.0,0.0,0.0,0.0,0.0,0.0,0.0,0.0,0.0,0.0,0.0,0.0,0.0,0.0,0.0,0.0,0.0,0.0,0.0,0.0,0.0,0.0,0.0,0.0,0.0,0.0,0.0,0.0,0.0,0.0,0.0,0.0,0.0,0.0,0.0,0.0,0.0,0.0,0.0,0.0,0.0,0.0,0.0,0.0,0.0,0.0,0.0,0.0,0.0,0.0,0.0,0.0,0.0,0.0,0.0,0.0,0.0,0.0,0.0,0.0,0.0,0.0,0.0,0.0,0.0,0.0,0.0,0.0,0.0,0.0,0.0,0.0,0.0,0.0,0.0,0.0,0.0,0.0,0.0,0.0,0.0,0.0,0.0,0.0,0.0,0.0,0.0,0.0,0.0,0.0,0.0,0.0,0.0,0.0,0.0,0.0,0.0,0.0,0.0,0.0,0.0,0.0,0.0,0.0,0.0,0.0,0.0,0.0,0.0,0.0,0.0,0.0,0.0,0.0,0.0,0.0,0.0,0.0,0.0,0.0,0.0,0.0,0.0,0.0,0.0,0.0,0.0,0.0,0.0,0.0,0.0,0.0,0.0,0.0,0.0,0.0,0.0,0.0,0.0,0.0,0.0,0.0,0.0,0.0,0.0,0.0,0.0,0.0,0.0,0.0,0.0,0.0,0.0,0.0,0.0,0.0,0.0,0.0,0.0,0.0,0.0,0.0,0.0,0.0,0.0,0.0,0.0,0.0,0.0,0.0,0.0,0.0,0.0,0.0,0.0,0.0,0.0,0.0,0.0,0.0,0.0,0.0,0.0,0.0,0.0,0.0,0.0,0.0,0.0,0.0,0.0,0.0,0.0,0.0,0.0,0.0,0.0,0.0,0.0,0.0,0.0,0.0,0.0,0.0,0.0,0.0,0.0,0.0,0.0,0.0,0.0,0.0,0.0,0.0,0.0,0.0,0.0,0.0,0.0,0.0,0.0,0.0,0.0,0.0,0.0,0.0,0.0,0.0,0.0,0.0,0.0,0.0,0.0,0.0,0.0,0.0,0.0,0.0,0.0,0.0,0.0,0.0,0.0,0.0,0.0,0.0,0.0,0.0,0.0,0.0,0.0,0.0,0.0,0.0,0.0,0.0,0.0,0.0,0.0,0.0,0.0,0.0,0.0,0.0,0.0,0.0,0.0,0.0,0.0,0.0,0.0,0.0,0.0,0.0,0.0,0.0,0.0,0.0,0.0,0.0,0.0,0.0,0.0,0.0,0.0,0.0,0.0,0.0,0.0,0.0,0.0,0.0,0.0,0.0,0.0,0.0,0.0,0.0,0.0,0.0,0.0,0.0,0.0,0.0,0.0,0.0,0.0,0.0,0.0,0.0,0.0,0.0,0.0,0.0,0.0,0.0,0.0,0.0,0.0,0.0,0.0,0.0,0.0,0.0,0.0,0.0,0.0,0.0,0.0,0.0,0.0,0.0,0.0,0.0,0.0,0.0,0.0,0.0,0.0,0.0,0.0,0.0,0.0,0.0,0.0,0.0,0.0,0.0,0.0,0.0,0.0,0.0,0.0,0.0,0.0,0.0,0.0,0.0,0.0,0.0,0.0,0.0,0.0,0.0,0.0,0.0,0.0,0.0,0.0,0.0,0.0,0.0,0.0,0.0,0.0,0.0,0.0,0.0,0.0,0.0,0.0,0.0,0.0,0.0,0.0,0.0,0.0,0.0,0.0,0.0,0.0,0.0,0.0,0.0,0.0,0.0,0.0,0.0,0.0,0.0,0.0,0.0,0.0,0.0,0.0,0.0,0.0,0.0,0.0,0.0,0.0,0.0,0.0,0.0,0.0,0.0,0.0,0.0,0.0,0.0,0.0,0.0,0.0,0.0,0.0,0.0,0.0,0.0,0.0,0.0,0.0,0.0,0.0,0.0,0.0,0.0,0.0,0.0,0.0,0.0,0.0,0.0,0.0,0.0,0.0,0.0,0.0,0.0,0.0,0.0,0.0,0.0,0.0,0.0,0.0,0.0,0.0,0.0,0.0,0.0,0.0,0.0,0.0,0.0,0.0,0.0,0.0,0.0,0.0,0.0,0.0,0.0,0.0,0.0,0.0,0.0,0.0,0.0,0.0,2.5611,0.0,0.0,0.0,0.0,0.0,0.0,0.0,0.0,0.0,0.0,0.0,0.0,0.0,0.0,0.0,0.0,0.0,0.0,0.0,0.0,0.0,0.0,0.0,0.0,0.0,0.0,0.0,0.0,0.0,0.0,0.0,0.0,0.0,0.0,0.0,0.0,0.0,0.0,0.0,0.0,0.0,0.0,0.0,0.0,0.0,0.0,0.0,0.0,0.0,0.0,0.0,0.0,0.0,0.0,0.0,0.0,0.0,0.0,0.0,0.0,0.0,0.0,0.0,0.0,0.0,0.0,0.0,0.0,0.0,0.0,0.0,0.0,0.0,0.0,0.0,0.0,0.0,0.0,0.0,0.0,0.0,0.0,0.0,0.0,0.0,0.0,0.0,0.0,0.0,0.0,0.0,0.0,0.0,0.0,0.0,0.0,0.0,0.0,0.0,0.0,0.0,0.0,0.0,0.0,0.0,0.0,0.0,0.0,0.0,0.0,2.6499,2.6499,2.6499,2.6373,2.608,0.0,0.0,0.0,0.0,0.0,0.0,0.0,0.0,0.0,0.0,0.0,0.0,0.0,0.0,0.0,0.0,0.0,0.0,0.0,0.0,0.0,0.0,0.0,0.0,0.0,0.0,0.0,0.0,0.0,0.0,0.0,0.0,0.0,0.0,0.0,0.0,0.0,0.0,0.0,0.0,0.0,0.0,0.0,0.0,0.0,0.0,0.0,0.0,0.0,0.0,0.0,0.0,0.0,0.0,0.0,0.0,0.0,0.0,0.0,0.0,0.0,0.0,0.0,0.0,0.0,0.0,0.0,0.0,0.0,0.0,0.0,0.0,0.0,0.0,0.0,0.0,0.0,0.0,0.0,0.0,0.0,0.0,0.0,0.0,0.0,0.0,0.0,0.0,0.0,0.0,0.0,0.0,0.0,0.0,0.0,0.0,0.0,0.0,0.0,0.0,0.0,0.0,0.0,0.0,0.0,0.0,0.0,0.0,0.0,0.0,0.0,0.0,2.6656,2.6567,2.6391,0.0,0.0,0.0,0.0,0.0,0.0,0.0,0.0,0.0,0.0,0.0,0.0,0.0,0.0,0.0,0.0,0.0,0.0,0.0,0.0,0.0,0.0,0.0,0.0,0.0,0.0,0.0,0.0,0.0,0.0,0.0,0.0,0.0,0.0,0.0,0.0,0.0,0.0,0.0,0.0,0.0,0.0,0.0,0.0,0.0,0.0,0.0,0.0,0.0,0.0,0.0,0.0,0.0,0.0,0.0,0.0,0.0,0.0,0.0,0.0,0.0,0.0,0.0,0.0,0.0,0.0,0.0,0.0,0.0,0.0,0.0,0.0,0.0,0.0,0.0,0.0,0.0,0.0,0.0,0.0,0.0,0.0,0.0,0.0,0.0,0.0,0.0,0.0,0.0,0.0,0.0,0.0,0.0,0.0,0.0,0.0,0.0,0.0,0.0,0.0,0.0,0.0,0.0,0.0,0.0,0.0,0.0,0.0,0.0,0.0,2.7588,2.7336,2.7186,0.0,2.6063,0.0,0.0,0.0,0.0,0.0,0.0,0.0,0.0,0.0,0.0,0.0,0.0,0.0,0.0,0.0,0.0,0.0,0.0,0.0,0.0,0.0,0.0,0.0,0.0,0.0,0.0,0.0,0.0,0.0,0.0,0.0,0.0,0.0,0.0,0.0,0.0,0.0,0.0,0.0,0.0,0.0,0.0,0.0,0.0,0.0,0.0,0.0,0.0,0.0,0.0,0.0,0.0,0.0,0.0,0.0,0.0,0.0,0.0,0.0,0.0,0.0,0.0,0.0,0.0,0.0,0.0,0.0,0.0,0.0,0.0,0.0,0.0,0.0,0.0,0.0,0.0,0.0,0.0,0.0,0.0,0.0,0.0,0.0,0.0,0.0,0.0,0.0,0.0,0.0,0.0,0.0,0.0,0.0,0.0,0.0,0.0,0.0,0.0,0.0,0.0,0.0,0.0,0.0,0.0,0.0,0.0,0.0,0.0,0.0,0.0,2.8042,2.7797,2.7889,2.7455,0.0,0.0,0.0,0.0,0.0,0.0,0.0,0.0,0.0,0.0,0.0,0.0,0.0,0.0,0.0,0.0,0.0,0.0,0.0,0.0,0.0,0.0,0.0,0.0,0.0,0.0,0.0,0.0,0.0,0.0,0.0,0.0,0.0,0.0,0.0,0.0,0.0,0.0,0.0,0.0,0.0,0.0,0.0,0.0,0.0,0.0,0.0,0.0,0.0,0.0,0.0,0.0,0.0,0.0,0.0,0.0,0.0,0.0,0.0,0.0,0.0,0.0,0.0,0.0,0.0,0.0,0.0,0.0,0.0,0.0,0.0,0.0,0.0,0.0,0.0,0.0,0.0,0.0,0.0,0.0,0.0,0.0,0.0,0.0,0.0,0.0,0.0,0.0,0.0,0.0,0.0,0.0,0.0,0.0,0.0,0.0,0.0,0.0,0.0,0.0,0.0,0.0,0.0,0.0,0.0,0.0,0.0,0.0,0.0,0.0,2.8549,2.8658,2.844,2.8353,2.7997,2.7264,0.0,0.0,0.0,0.0,0.0,0.0,0.0,0.0,0.0,0.0,0.0,0.0,0.0,0.0,0.0,0.0,0.0,0.0,0.0,0.0,0.0,0.0,0.0,0.0,0.0,0.0,0.0,0.0,0.0,0.0,0.0,0.0,0.0,0.0,0.0,0.0,0.0,0.0,0.0,0.0,0.0,0.0,0.0,0.0,0.0,0.0,0.0,0.0,0.0,0.0,0.0,0.0,0.0,0.0,0.0,0.0,0.0,0.0,0.0,0.0,0.0,0.0,0.0,0.0,0.0,0.0,0.0,0.0,0.0,0.0,0.0,0.0,0.0,0.0,0.0,0.0,0.0,0.0,0.0,0.0,0.0,0.0,0.0,0.0,0.0,0.0,0.0,0.0,0.0,0.0,0.0,0.0,0.0,0.0,0.0,0.0,0.0,0.0,0.0,0.0,0.0,0.0,0.0,0.0,0.0,0.0,0.0,0.0,2.9066,2.9485,2.9542,2.9181,2.8555,2.8244,0.0,0.0,0.0,0.0,0.0,0.0,0.0,0.0,0.0,0.0,0.0,0.0,0.0,0.0,0.0,0.0,0.0,0.0,0.0,0.0,0.0,0.0,0.0,0.0,0.0,0.0,0.0,0.0,0.0,0.0,0.0,0.0,0.0,0.0,0.0,0.0,0.0,0.0,0.0,0.0,0.0,0.0,0.0,0.0,0.0,0.0,0.0,0.0,0.0,0.0,0.0,0.0,0.0,0.0,0.0,0.0,0.0,0.0,0.0,0.0,0.0,0.0,0.0,0.0,0.0,0.0,0.0,0.0,0.0,0.0,0.0,0.0,0.0,0.0,0.0,0.0,0.0,0.0,0.0,0.0,0.0,0.0,0.0,0.0,0.0,0.0,0.0,0.0,0.0,0.0,0.0,0.0,0.0,0.0,0.0,0.0,0.0,0.0,0.0,0.0,0.0,0.0,0.0,0.0,0.0,0.0,0.0,0.0,0.0,2.8949,2.9209,2.9713,3.042,2.9692,2.9183,0.0,0.0,0.0,0.0,0.0,0.0,0.0,0.0,0.0,0.0,0.0,0.0,0.0,0.0,0.0,0.0,0.0,0.0,0.0,0.0,0.0,0.0,0.0,0.0,0.0,0.0,0.0,0.0,0.0,0.0,0.0,0.0,0.0,0.0,0.0,0.0,0.0,0.0,0.0,0.0,0.0,0.0,0.0,0.0,0.0,0.0,0.0,0.0,0.0,0.0,0.0,0.0,0.0,0.0,0.0,0.0,0.0,0.0,0.0,0.0,0.0,0.0,0.0,0.0,0.0,0.0,0.0,0.0,0.0,0.0,0.0,0.0,0.0,0.0,0.0,0.0,0.0,0.0,0.0,0.0,0.0,0.0,0.0,0.0,0.0,0.0,0.0,0.0,0.0,0.0,0.0,0.0,0.0,0.0,0.0,0.0,0.0,0.0,0.0,0.0,0.0,0.0,0.0,0.0,0.0,0.0,0.0,0.0,0.0,2.9722,0.0,3.0239,3.1385,3.0646,3.0067,0.0,0.0,0.0,0.0,0.0,0.0,0.0,0.0,0.0,0.0,0.0,0.0,0.0,0.0,0.0,0.0,0.0,0.0,0.0,0.0,0.0,0.0,0.0,0.0,0.0,0.0,0.0,0.0,0.0,0.0,0.0,0.0,0.0,0.0,0.0,0.0,0.0,0.0,0.0,0.0,0.0,0.0,0.0,0.0,0.0,0.0,0.0,0.0,0.0,0.0,0.0,0.0,0.0,0.0,0.0,0.0,0.0,0.0,0.0,0.0,0.0,0.0,0.0,0.0,0.0,0.0,0.0,0.0,0.0,0.0,0.0,0.0,0.0,0.0,0.0,0.0,0.0,0.0,0.0,0.0,0.0,0.0,0.0,0.0,0.0,0.0,0.0,0.0,0.0,0.0,0.0,0.0,0.0,0.0,0.0,0.0,0.0,0.0,0.0,0.0,0.0,0.0,0.0,0.0,0.0,0.0,0.0,0.0,3.0723,3.159,3.107,3.1168,3.2065,3.1298,3.0795,0.0,0.0,0.0,0.0,0.0,0.0,0.0,0.0,0.0,0.0,0.0,0.0,0.0,0.0,0.0,0.0,0.0,0.0,0.0,0.0,0.0,0.0,0.0,0.0,0.0,0.0,0.0,0.0,0.0,0.0,0.0,0.0,0.0,0.0,0.0,0.0,0.0,0.0,0.0,0.0,0.0,0.0,0.0,0.0,0.0,0.0,0.0,0.0,0.0,0.0,0.0,0.0,0.0,0.0,0.0,0.0,0.0,0.0,0.0,0.0,0.0,0.0,0.0,0.0,0.0,0.0,0.0,0.0,0.0,0.0,0.0,0.0,0.0,0.0,0.0,0.0,0.0,0.0,0.0,0.0,0.0,0.0,0.0,0.0,0.0,0.0,0.0,0.0,0.0,0.0,0.0,0.0,0.0,0.0,0.0,0.0,0.0,0.0,0.0,0.0,0.0,0.0,0.0,0.0,0.0,0.0,0.0,0.0,0.0,3.163,3.1216,3.1546,3.2562,3.1742,3.126,0.0,0.0,0.0,0.0,0.0,0.0,0.0,0.0,0.0,0.0,0.0,0.0,0.0,0.0,0.0,0.0,0.0,0.0,0.0,0.0,0.0,0.0,0.0,0.0,0.0,0.0,0.0,0.0,0.0,0.0,0.0,0.0,0.0,0.0,0.0,0.0,0.0,0.0,0.0,0.0,0.0,0.0,0.0,0.0,0.0,0.0,0.0,0.0,0.0,0.0,0.0,0.0,0.0,0.0,0.0,0.0,0.0,0.0,0.0,0.0,0.0,0.0,0.0,0.0,0.0,0.0,0.0,0.0,0.0,0.0,0.0,0.0,0.0,0.0,0.0,0.0,0.0,0.0,0.0,0.0,0.0,0.0,0.0,0.0,0.0,0.0,0.0,0.0,0.0,0.0,0.0,0.0,0.0,0.0,0.0,0.0,0.0,0.0,0.0,0.0,0.0,0.0,0.0,0.0,0.0,0.0,0.0,0.0,0.0,3.3394,3.2957,3.3073,3.3811,3.273,3.2107,3.2008,0.0,0.0,0.0,0.0,0.0,0.0,0.0,0.0,0.0,0.0,0.0,0.0,0.0,0.0,0.0,0.0,0.0,0.0,0.0,0.0,0.0,0.0,0.0,0.0,0.0,0.0,0.0,0.0,0.0,0.0,0.0,0.0,0.0,0.0,0.0,0.0,0.0,0.0,0.0,0.0,0.0,0.0,0.0,0.0,0.0,0.0,0.0,0.0,0.0,0.0,0.0,0.0,0.0,0.0,0.0,0.0,0.0,0.0,0.0,0.0,0.0,0.0,0.0,0.0,0.0,0.0,0.0,0.0,0.0,0.0,0.0,0.0,0.0,0.0,0.0,0.0,0.0,0.0,0.0,0.0,0.0,0.0,0.0,0.0,0.0,0.0,0.0,0.0,0.0,0.0,0.0,0.0,0.0,0.0,0.0,0.0,0.0,0.0,0.0,0.0,0.0,0.0,0.0,0.0,0.0,0.0,0.0,0.0,3.648,3.5864,3.5529,3.5475,3.4179,3.3335,0.0,0.0,0.0,0.0,0.0,0.0,0.0,0.0,0.0,0.0,0.0,0.0,0.0,0.0,0.0,0.0,0.0,0.0,0.0,0.0,0.0,0.0,0.0,0.0,0.0,0.0,0.0,0.0,0.0,0.0,0.0,0.0,0.0,0.0,0.0,0.0,0.0,0.0,0.0,0.0,0.0,0.0,0.0,0.0,0.0,0.0,0.0,0.0,0.0,0.0,0.0,0.0,0.0,0.0,0.0,0.0,0.0,0.0,0.0,0.0,0.0,0.0,0.0,0.0,0.0,0.0,0.0,0.0,0.0,0.0,0.0,0.0,0.0,0.0,0.0,0.0,0.0,0.0,0.0,0.0,0.0,0.0,0.0,0.0,0.0,0.0,0.0,0.0,0.0,0.0,0.0,0.0,0.0,0.0,0.0,0.0,0.0,0.0,0.0,0.0,0.0,0.0,0.0,0.0,0.0,0.0,0.0,0.0,0.0,3.7537,3.7408,3.7093,3.6655,3.535,3.4372,0.0,0.0,0.0,0.0,0.0,0.0,0.0,0.0,0.0,0.0,0.0,0.0,0.0,0.0,0.0,0.0,0.0,0.0,0.0,0.0,0.0,0.0,0.0,0.0,0.0,0.0,0.0,0.0,0.0,0.0,0.0,0.0,0.0,0.0,0.0,0.0,0.0,0.0,0.0,0.0,0.0,0.0,0.0,0.0,0.0,0.0,0.0,0.0,0.0,0.0,0.0,0.0,0.0,0.0,0.0,0.0,0.0,0.0,0.0,0.0,0.0,0.0,0.0,0.0,0.0,0.0,0.0,0.0,0.0,0.0,0.0,0.0,0.0,0.0,0.0,0.0,0.0,0.0,0.0,0.0,0.0,0.0,0.0,0.0,0.0,0.0,0.0,0.0,0.0,0.0,0.0,0.0,0.0,0.0,0.0,0.0,0.0,0.0,0.0,0.0,0.0,0.0,0.0,0.0,0.0,0.0,0.0,0.0,3.7535,3.9146,3.8894,3.8667,3.8536,3.6854,3.5555,0.0,0.0,0.0,0.0,0.0,0.0,0.0,0.0,0.0,0.0,0.0,0.0,0.0,0.0,0.0,0.0,0.0,0.0,0.0,0.0,0.0,0.0,0.0,0.0,0.0,0.0,0.0,0.0,0.0,0.0,0.0,0.0,0.0,0.0,0.0,0.0,0.0,0.0,0.0,0.0,0.0,0.0,0.0,0.0,0.0,0.0,0.0,0.0,0.0,0.0,0.0,0.0,0.0,0.0,0.0,0.0,0.0,0.0,0.0,0.0,0.0,0.0,0.0,0.0,0.0,0.0,0.0,0.0,0.0,0.0,0.0,0.0,0.0,0.0,0.0,0.0,0.0,0.0,0.0,0.0,0.0,0.0,0.0,0.0,0.0,0.0,0.0,0.0,0.0,0.0,0.0,0.0,0.0,0.0,0.0,0.0,0.0,0.0,0.0,0.0,0.0,0.0,0.0,0.0,0.0,0.0,0.0,0.0,3.8516,4.0792,4.0204,4.0125,4.0554,3.838,3.6742,0.0,0.0,0.0,0.0,0.0,0.0,0.0,0.0,0.0,0.0,0.0,0.0,0.0,0.0,0.0,0.0,0.0,0.0,0.0,0.0,0.0,0.0,0.0,0.0,0.0,0.0,0.0,0.0,0.0,0.0,0.0,0.0,0.0,0.0,0.0,0.0,0.0,0.0,0.0,0.0,0.0,0.0,0.0,0.0,0.0,0.0,0.0,0.0,0.0,0.0,0.0,0.0,0.0,0.0,0.0,0.0,0.0,0.0,0.0,0.0,0.0,0.0,0.0,0.0,0.0,0.0,0.0,0.0,0.0,0.0,0.0,0.0,0.0,0.0,0.0,0.0,0.0,0.0,0.0,0.0,0.0,0.0,0.0,0.0,0.0,0.0,0.0,0.0,0.0,0.0,0.0,0.0,0.0,0.0,0.0,0.0,0.0,0.0,0.0,0.0,0.0,0.0,0.0,0.0,0.0,0.0,0.0,0.0,3.9348,4.0554,4.0827,4.1214,4.1741,3.8989,3.7145,0.0,0.0,0.0,0.0,0.0,0.0,0.0,0.0,0.0,0.0,0.0,0.0,0.0,0.0,0.0,0.0,0.0,0.0,0.0,0.0,0.0,0.0,0.0,0.0,0.0,0.0,0.0,0.0,0.0,0.0,0.0,0.0,0.0,0.0,0.0,0.0,0.0,0.0,0.0,0.0,0.0,0.0,0.0,0.0,0.0,0.0,0.0,0.0,3.9941,0.0,0.0,0.0,0.0,0.0,0.0,0.0,0.0,0.0,0.0,0.0,0.0,0.0,0.0,0.0,0.0,0.0,0.0,0.0,0.0,0.0,0.0,0.0,0.0,0.0,0.0,0.0,0.0,0.0,0.0,0.0,0.0,0.0,0.0,0.0,0.0,0.0,0.0,0.0,0.0,0.0,0.0,0.0,0.0,0.0,0.0,0.0,0.0,0.0,0.0,0.0,0.0,0.0,0.0,0.0,0.0,0.0,0.0,0.0,3.9778,4.1012,4.1219,4.1558,4.1976,3.987,3.8275,0.0,0.0,0.0,0.0,0.0,0.0,0.0,0.0,0.0,0.0,0.0,0.0,0.0,0.0,0.0,0.0,0.0,0.0,0.0,0.0,0.0,0.0,0.0,0.0,0.0,0.0,0.0,0.0,0.0,0.0,0.0,0.0,0.0,0.0,0.0,0.0,0.0,0.0,0.0,0.0,0.0,0.0,0.0,0.0,0.0,0.0,0.0,0.0,0.0,0.0,0.0,0.0,0.0,0.0,0.0,0.0,0.0,0.0,0.0,0.0,0.0,0.0,0.0,0.0,0.0,0.0,0.0,0.0,0.0,0.0,0.0,0.0,0.0,0.0,0.0,0.0,0.0,0.0,0.0,0.0,0.0,0.0,0.0,0.0,0.0,0.0,0.0,0.0,0.0,0.0,0.0,0.0,0.0,0.0,0.0,0.0,0.0,0.0,0.0,0.0,0.0,0.0,0.0,0.0,0.0,0.0,0.0,3.8763,4.0084,4.161,4.1565,4.1697,4.211,4.0851,3.9597,3.8398,0.0,0.0,0.0,0.0,0.0,0.0,0.0,0.0,0.0,0.0,0.0,0.0,0.0,0.0,0.0,0.0,0.0,0.0,0.0,0.0,0.0,0.0,0.0,0.0,0.0,0.0,0.0,0.0,0.0,0.0,0.0,0.0,0.0,0.0,0.0,0.0,0.0,0.0,3.5395,3.6905,0.0,0.0,0.0,0.0,0.0,0.0,0.0,0.0,4.1149,0.0,0.0,0.0,0.0,0.0,0.0,0.0,0.0,0.0,0.0,0.0,0.0,0.0,0.0,0.0,0.0,0.0,0.0,0.0,0.0,0.0,0.0,0.0,0.0,0.0,0.0,0.0,0.0,0.0,0.0,0.0,0.0,0.0,0.0,0.0,0.0,0.0,0.0,0.0,0.0,0.0,0.0,0.0,0.0,0.0,0.0,0.0,0.0,0.0,0.0,0.0,0.0,0.0,0.0,0.0,0.0,3.9179,3.9632,4.0461,4.1647,4.2085,4.2346,4.2418,4.1674,4.0586,3.9145,0.0,0.0,0.0,0.0,0.0,0.0,0.0,0.0,0.0,0.0,0.0,0.0,0.0,0.0,0.0,0.0,0.0,0.0,0.0,0.0,0.0,0.0,0.0,0.0,0.0,0.0,0.0,0.0,0.0,0.0,0.0,0.0,0.0,0.0,0.0,0.0,0.0,0.0,0.0,3.7518,3.8408,0.0,0.0,0.0,0.0,0.0,0.0,0.0,0.0,4.196,0.0,0.0,0.0,0.0,0.0,0.0,0.0,0.0,0.0,0.0,0.0,0.0,0.0,0.0,0.0,0.0,0.0,0.0,0.0,0.0,0.0,0.0,0.0,0.0,0.0,0.0,0.0,0.0,0.0,0.0,0.0,0.0,0.0,0.0,0.0,0.0,0.0,0.0,0.0,0.0,0.0,0.0,0.0,0.0,0.0,0.0,0.0,0.0,0.0,0.0,0.0,0.0,0.0,0.0,0.0,3.9277,4.005,4.0885,4.1878,4.2421,4.278,4.2868,4.1871,4.0765,0.0,0.0,0.0,0.0,0.0,0.0,0.0,0.0,0.0,0.0,0.0,0.0,0.0,0.0,0.0,0.0,0.0,0.0,0.0,0.0,0.0,0.0,0.0,0.0,0.0,0.0,0.0,0.0,0.0,0.0,0.0,0.0,0.0,0.0,0.0,0.0,0.0,0.0,0.0,0.0,3.871,3.9466,4.0637,0.0,0.0,0.0,0.0,0.0,0.0,4.2446,4.2617,0.0,0.0,0.0,0.0,0.0,0.0,0.0,0.0,0.0,0.0,0.0,0.0,0.0,0.0,0.0,0.0,0.0,0.0,0.0,0.0,0.0,0.0,0.0,0.0,0.0,0.0,0.0,0.0,0.0,0.0,0.0,0.0,0.0,0.0,0.0,0.0,0.0,0.0,0.0,0.0,0.0,0.0,0.0,0.0,0.0,0.0,0.0,0.0,0.0,0.0,0.0,0.0,0.0,0.0,0.0,3.9629,4.0467,4.1355,4.231,4.2712,4.3009,4.3179,4.2002,4.0959,0.0,0.0,0.0,0.0,0.0,0.0,0.0,0.0,0.0,0.0,0.0,0.0,0.0,0.0,0.0,0.0,0.0,0.0,0.0,0.0,0.0,0.0,0.0,0.0,0.0,0.0,0.0,0.0,0.0,0.0,0.0,0.0,0.0,0.0,0.0,0.0,0.0,0.0,0.0,0.0,0.0,4.0453,4.1432,4.2343,0.0,0.0,0.0,0.0,4.3349,4.3582,0.0,0.0,0.0,0.0,0.0,0.0,0.0,0.0,0.0,0.0,0.0,0.0,0.0,0.0,0.0,0.0,0.0,0.0,0.0,0.0,0.0,0.0,0.0,0.0,0.0,0.0,0.0,0.0,0.0,0.0,0.0,0.0,0.0,0.0,0.0,0.0,0.0,0.0,0.0,0.0,0.0,0.0,0.0,0.0,0.0,0.0,0.0,0.0,0.0,0.0,0.0,0.0,0.0,0.0,0.0,0.0,4.1191,4.1234,4.1821,4.3166,4.3008,4.2909,4.293,4.237,4.1673,0.0,0.0,0.0,0.0,0.0,0.0,0.0,0.0,0.0,0.0,0.0,0.0,0.0,0.0,0.0,0.0,0.0,0.0,0.0,0.0,0.0,0.0,0.0,0.0,0.0,0.0,0.0,0.0,0.0,0.0,0.0,0.0,0.0,0.0,0.0,0.0,0.0,0.0,0.0,0.0,0.0,4.0616,4.2003,4.2599,4.2959,0.0,0.0,4.4194,4.3972,4.5669,0.0,0.0,0.0,0.0,0.0,0.0,0.0,0.0,0.0,0.0,0.0,0.0,0.0,0.0,0.0,0.0,0.0,0.0,0.0,0.0,0.0,0.0,0.0,0.0,0.0,0.0,0.0,0.0,0.0,0.0,0.0,0.0,0.0,0.0,0.0,0.0,0.0,0.0,0.0,0.0,0.0,0.0,0.0,0.0,0.0,0.0,0.0,0.0,0.0,0.0,0.0,0.0,0.0,0.0,0.0,3.9392,4.1268,4.1697,4.2409,4.3467,4.3369,4.3379,4.3522,4.25,4.1768,0.0,0.0,0.0,0.0,0.0,0.0,0.0,0.0,0.0,0.0,0.0,0.0,0.0,0.0,0.0,0.0,0.0,0.0,0.0,0.0,0.0,0.0,0.0,0.0,0.0,0.0,0.0,0.0,0.0,0.0,0.0,0.0,0.0,0.0,0.0,0.0,0.0,0.0,0.0,0.0,0.0,0.0,4.2732,4.3726,0.0,0.0,0.0,4.5515,4.6063,0.0,0.0,0.0,0.0,0.0,0.0,0.0,0.0,0.0,0.0,0.0,0.0,0.0,0.0,0.0,0.0,0.0,0.0,0.0,0.0,0.0,0.0,0.0,0.0,0.0,0.0,0.0,0.0,0.0,0.0,0.0,0.0,0.0,0.0,0.0,0.0,0.0,0.0,0.0,0.0,0.0,0.0,0.0,0.0,0.0,0.0,0.0,0.0,0.0,0.0,0.0,0.0,0.0,0.0,0.0,0.0,0.0,4.1389,4.2066,4.2936,4.4028,4.4017,4.4054,4.422,4.2958,0.0,0.0,0.0,0.0,0.0,0.0,0.0,0.0,0.0,0.0,0.0,0.0,0.0,0.0,0.0,0.0,0.0,0.0,0.0,0.0,0.0,0.0,0.0,0.0,0.0,0.0,0.0,3.4017,0.0,0.0,0.0,0.0,0.0,0.0,0.0,0.0,0.0,0.0,0.0,0.0,0.0,0.0,4.2896,4.3668,4.5022,4.601,0.0,0.0,4.681,4.766,4.7521,4.72,0.0,0.0,0.0,0.0,0.0,0.0,0.0,0.0,0.0,0.0,0.0,0.0,0.0,0.0,0.0,0.0,0.0,0.0,0.0,0.0,0.0,0.0,0.0,0.0,0.0,0.0,0.0,0.0,0.0,0.0,0.0,0.0,0.0,0.0,0.0,0.0,0.0,0.0,0.0,0.0,0.0,0.0,0.0,0.0,0.0,0.0,0.0,0.0,0.0,0.0,0.0,0.0,0.0,0.0,4.0273,4.2246,4.2379,4.3399,4.5271,4.5073,4.4912,4.4912,4.3925,4.3109,0.0,0.0,0.0,0.0,0.0,0.0,0.0,0.0,0.0,0.0,0.0,0.0,0.0,0.0,0.0,0.0,0.0,0.0,0.0,0.0,0.0,0.0,0.0,0.0,0.0,0.0,0.0,0.0,0.0,0.0,0.0,0.0,0.0,0.0,0.0,0.0,0.0,0.0,0.0,0.0,0.0,4.3697,4.4904,4.6343,4.7449,0.0,4.8015,4.8001,4.7925,4.8626,4.8567,4.6912,0.0,0.0,0.0,0.0,0.0,0.0,0.0,0.0,0.0,0.0,0.0,0.0,0.0,0.0,0.0,0.0,0.0,0.0,0.0,0.0,0.0,0.0,0.0,0.0,0.0,0.0,0.0,0.0,0.0,0.0,0.0,0.0,0.0,0.0,0.0,0.0,0.0,0.0,0.0,0.0,0.0,0.0,0.0,0.0,0.0,0.0,0.0,0.0,0.0,0.0,0.0,0.0,0.0,4.1357,4.2796,4.3622,4.4657,4.5878,4.5468,4.528,4.5424,4.4167,4.3347,0.0,0.0,0.0,0.0,0.0,0.0,0.0,0.0,0.0,0.0,0.0,0.0,0.0,0.0,0.0,0.0,0.0,0.0,0.0,0.0,0.0,0.0,0.0,0.0,0.0,0.0,0.0,0.0,3.9079,3.9536,3.9873,0.0,0.0,0.0,0.0,0.0,0.0,0.0,0.0,0.0,0.0,4.5977,4.6557,4.7449,0.0,0.0,4.9238,4.9568,5.0465,5.0193,4.9673,4.9134,4.8436,0.0,0.0,0.0,0.0,0.0,0.0,0.0,0.0,0.0,0.0,0.0,0.0,0.0,0.0,0.0,0.0,0.0,0.0,0.0,0.0,0.0,0.0,0.0,0.0,0.0,0.0,0.0,0.0,0.0,0.0,0.0,0.0,0.0,0.0,0.0,0.0,0.0,0.0,0.0,0.0,0.0,0.0,0.0,0.0,0.0,0.0,0.0,0.0,0.0,0.0,0.0,0.0,4.2017,4.3375,4.4362,4.5433,4.656,4.6183,4.5994,4.5964,4.4804,4.3964,0.0,0.0,0.0,0.0,0.0,0.0,0.0,0.0,0.0,0.0,0.0,0.0,0.0,0.0,0.0,0.0,0.0,0.0,0.0,0.0,0.0,0.0,0.0,0.0,0.0,0.0,0.0,0.0,4.1366,4.193,4.2349,0.0,0.0,0.0,0.0,0.0,0.0,0.0,0.0,0.0,0.0,4.7708,4.835,4.9049,4.9828,5.0704,5.0652,5.0955,5.2164,5.133,5.0561,5.0516,0.0,0.0,0.0,0.0,0.0,0.0,0.0,0.0,0.0,0.0,0.0,0.0,0.0,0.0,0.0,0.0,0.0,0.0,0.0,0.0,0.0,0.0,0.0,0.0,0.0,0.0,0.0,3.5225,0.0,0.0,3.6331,0.0,0.0,0.0,0.0,0.0,0.0,0.0,0.0,0.0,0.0,0.0,0.0,0.0,0.0,0.0,0.0,0.0,0.0,0.0,0.0,0.0,0.0,4.1983,4.4064,4.4434,4.54,4.7122,4.7423,4.723,4.6615,4.5964,4.5197,4.4218,0.0,0.0,0.0,0.0,0.0,0.0,0.0,0.0,0.0,0.0,0.0,0.0,0.0,0.0,0.0,0.0,0.0,0.0,0.0,0.0,0.0,0.0,0.0,0.0,0.0,0.0,4.2801,4.3119,4.3483,0.0,0.0,0.0,0.0,0.0,0.0,0.0,0.0,0.0,0.0,4.7443,4.8544,5.0306,5.1289,5.2048,5.2776,5.2383,5.2089,5.242,5.187,5.1118,0.0,0.0,0.0,0.0,0.0,0.0,0.0,0.0,0.0,0.0,0.0,0.0,0.0,0.0,0.0,0.0,0.0,0.0,0.0,0.0,0.0,0.0,0.0,0.0,0.0,0.0,0.0,3.7882,3.7653,0.0,0.0,0.0,0.0,0.0,0.0,0.0,0.0,0.0,0.0,0.0,4.1627,4.205,0.0,0.0,0.0,0.0,0.0,0.0,0.0,0.0,0.0,0.0,0.0,0.0,4.3208,4.484,4.5604,4.6652,4.7988,4.7949,4.7828,4.772,4.6766,4.5895,4.5128,0.0,0.0,0.0,0.0,0.0,0.0,0.0,0.0,0.0,0.0,0.0,0.0,0.0,0.0,0.0,0.0,0.0,0.0,0.0,0.0,0.0,0.0,0.0,0.0,0.0,4.5142,0.0,0.0,0.0,0.0,0.0,0.0,0.0,0.0,0.0,0.0,0.0,4.8213,4.7948,5.0013,5.1658,5.1974,5.2887,5.3422,0.0,0.0,0.0,0.0,0.0,0.0,0.0,0.0,0.0,0.0,0.0,0.0,0.0,0.0,5.4626,5.332,5.2703,5.2385,5.2409,0.0,0.0,0.0,0.0,0.0,0.0,0.0,0.0,0.0,0.0,0.0,0.0,0.0,0.0,3.9314,3.9177,3.9529,0.0,0.0,0.0,0.0,0.0,0.0,0.0,0.0,4.1951,4.2607,4.3473,4.3871,4.4057,0.0,4.3925,4.2782,0.0,0.0,0.0,0.0,0.0,0.0,0.0,0.0,4.47,4.6314,4.7138,4.7969,4.8873,4.8677,4.8417,4.81,4.7074,4.6436,4.6199,4.5718,4.5244,0.0,0.0,0.0,0.0,0.0,0.0,0.0,0.0,0.0,0.0,0.0,0.0,0.0,0.0,0.0,0.0,0.0,0.0,0.0,0.0,0.0,0.0,0.0,4.6981,0.0,0.0,0.0,0.0,0.0,0.0,0.0,0.0,0.0,4.8315,4.9577,5.0607,5.0628,5.2218,5.3566,5.4104,0.0,0.0,0.0,0.0,0.0,0.0,0.0,5.6077,5.6441,5.5809,5.5364,5.5582,5.6396,5.7012,5.6987,0.0,0.0,5.5621,5.4931,5.4676,5.4521,5.4567,5.4559,5.4379,5.5097,5.5572,0.0,0.0,0.0,0.0,3.9986,0.0,0.0,0.0,3.9666,3.9974,0.0,3.9734,0.0,0.0,0.0,0.0,4.0908,4.1111,0.0,0.0,4.3045,4.3768,4.4908,4.4995,4.5203,4.5543,4.5196,4.4796,4.4336,4.3741,0.0,0.0,0.0,0.0,0.0,0.0,4.6269,4.8305,4.8811,4.9289,4.9688,4.9717,4.9131,4.7934,4.7144,4.6933,4.7331,4.6805,4.6415,4.6419,4.6318,0.0,0.0,0.0,0.0,0.0,0.0,0.0,0.0,0.0,0.0,0.0,0.0,0.0,0.0,0.0,0.0,0.0,0.0,0.0,0.0,4.775,0.0,0.0,0.0,0.0,0.0,0.0,0.0,0.0,0.0,0.0,5.1989,5.1905,5.2608,5.4577,0.0,0.0,0.0,0.0,5.5801,5.7291,5.7611,5.7644,5.7569,5.7216,5.7069,5.7281,0.0,0.0,5.841,5.9807,6.0664,6.0691,6.098,6.0573,5.766,5.674,5.6235,5.5806,5.5937,5.5802,5.5504,5.7308,5.8626,4.3638,0.0,0.0,0.0,0.0,4.1985,4.1868,4.1974,4.2345,4.2257,4.1804,4.1594,0.0,0.0,0.0,0.0,0.0,0.0,4.3399,4.4581,4.5069,4.5615,4.625,4.6737,4.7188,4.761,4.7188,4.7284,4.7799,4.7284,4.5698,4.3244,0.0,0.0,0.0,0.0,4.6934,4.8523,4.8927,4.9456,5.0167,5.0364,5.0058,4.9126,4.8843,4.8711,4.8736,4.9001,4.9124,4.9077,4.8753,0.0,0.0,0.0,0.0,0.0,0.0,0.0,0.0,0.0,0.0,0.0,0.0,0.0,0.0,0.0,0.0,0.0,0.0,0.0,5.018,5.0552,5.0857,0.0,0.0,0.0,0.0,0.0,0.0,0.0,0.0,0.0,5.6354,5.5907,5.5654,0.0,0.0,5.8137,5.8796,5.8602,5.8125,5.7408,5.8331,0.0,5.7484,5.8638,5.9677,5.9759,5.9768,5.989,6.0304,6.0578,6.0735,6.0748,6.1154,6.128,6.0834,6.0151,5.963,5.9515,5.9538,5.9486,5.9231,5.9875,6.0183,4.676,4.5073,4.3742,4.3261,4.3441,4.3507,4.3466,4.3334,4.3668,4.3637,4.3351,4.3049,4.3166,4.3505,4.3646,0.0,0.0,0.0,4.522,4.6226,4.6496,4.7005,4.7742,4.8214,4.8747,4.9262,4.8904,4.9064,4.9681,4.9337,4.8038,4.5785,0.0,0.0,4.7024,4.7461,4.8372,4.9667,4.9963,5.0383,5.1005,5.0813,5.0536,5.0125,4.989,4.9777,4.9868,5.0257,5.046,5.039,5.0413,5.0236,0.0,0.0,0.0,0.0,0.0,0.0,0.0,0.0,0.0,0.0,0.0,4.7951,4.8863,0.0,0.0,0.0,5.0476,5.0787,5.1665,5.1989,0.0,0.0,0.0,0.0,0.0,0.0,0.0,5.6134,5.6689,5.7685,5.9626,6.0279,6.0174,5.9126,5.9971,6.0851,6.1323,0.0,6.038,5.9567,6.0296,6.0519,5.9238,6.033,6.1446,6.1816,6.2395,6.2692,6.262,6.2716,6.2764,6.2644,6.2963,6.3385,6.3541,6.33,6.2786,6.2139,6.2034,6.2075,6.2125,6.2261,6.2277,4.9325,4.8618,4.6859,4.5309,4.4057,4.5152,4.4932,4.3906,4.4333,4.4563,4.4642,4.4393,4.4498,4.4912,4.5545,0.0,4.5922,4.6461,4.7081,4.7768,4.7564,4.8066,4.9269,4.9534,4.9976,5.0614,5.0362,5.0318,5.0402,5.0415,5.0164,4.9689,4.9237,4.9131,4.9337,4.9522,5.0226,5.1444,5.166,5.1848,5.2086,5.1235,5.0819,5.0939,5.0429,5.0345,5.0737,5.082,5.0851,5.0873,5.1411,5.1455,5.0838,0.0,0.0,0.0,0.0,0.0,0.0,0.0,0.0,0.0,0.0,0.0,0.0,0.0,0.0,0.0,5.2542,0.0,5.242,5.2536,0.0,0.0,0.0,5.3892,5.5212,5.6231,5.7329,5.8766,0.0,0.0,6.2242,6.4671,6.5538,6.3164,6.2763,6.3099,6.4179,6.3346,6.2745,6.3051,6.3158,6.289,6.2156,6.2485,6.3076,6.3868,6.4796,6.5365,6.5183,6.5574,6.5892,6.5418,6.5843,6.6088,6.59,6.6055,6.5853,6.4312,6.3934,6.4039,6.4367,6.4535,6.4808,4.9606,4.9398,4.8647,4.7735,4.6807,4.6633,4.6628,4.6801,4.7102,4.6829,4.6131,4.6342,4.6425,4.645,4.662,4.7064,4.7664,4.7688,4.8365,4.9543,4.9527,4.9928,5.0702,5.0779,5.1079,5.1602,5.1166,5.1354,5.207,5.1759,5.2078,5.2914,5.2831,5.2039,5.0645,5.0578,5.1311,5.2803,5.3071,5.3139,5.2971,5.2451,5.1982,5.1536,5.1352,5.1357,5.1467,5.1937,5.2236,5.2206,5.2247,5.2217,5.2219,5.2397,0.0,0.0,0.0,0.0,0.0,0.0,0.0,0.0,0.0,5.174,5.2637,0.0,5.3001,0.0,5.368,5.3397,5.2723,5.3925,0.0,0.0,5.5899,5.6829,5.7678,5.8169,5.9322,6.1614,6.2998,6.4312,6.5748,6.7942,6.9154,6.8503,6.7476,6.6879,6.714,6.6541,6.5917,6.568,6.5489,6.5166,6.4779,6.5384,6.6256,6.6971,6.7336,6.7483,6.7433,6.7106,6.6914,6.679,6.6807,6.7108,6.7544,6.8111,6.8597,6.8535,6.7461,6.6305,6.6252,6.6745,6.7196,5.0738,5.0675,4.9983,4.9492,4.9063,4.8553,4.8616,4.9068,4.887,4.8463,4.7877,4.8027,4.8082,4.803,4.8306,4.8693,4.9142,4.9464,5.0191,5.1236,5.1266,5.1476,5.1813,5.1961,5.1997,5.2002,5.2206,5.2581,5.3145,5.3193,5.3622,5.4352,5.426,5.3775,5.2886,5.2907,5.3435,5.4404,5.4458,5.4329,5.3906,5.3407,5.3211,5.3374,5.3086,5.3197,5.3676,5.405,5.4282,5.4393,5.4401,5.4484,5.4687,5.4574,5.4527,0.0,0.0,0.0,0.0,0.0,0.0,0.0,0.0,0.0,0.0,0.0,5.4883,5.5248,5.4836,5.4578,5.4708,5.5634,5.6434,5.6884,5.7699,5.8667,5.9766,6.0784,6.24,6.4947,6.6611,6.815,6.9859,7.1634,7.2741,7.2767,7.2346,7.1537,7.0338,6.9788,6.9329,6.8743,6.8542,6.8392,6.8106,6.8606,6.9205,6.9529,6.9626,6.9529,6.9237,6.8881,6.8622,6.8647,6.8849,6.9173,6.9594,7.0209,7.0857,7.1083,7.0662,6.9834,6.9059,6.9265,6.9537,5.2184,5.2092,5.1165,5.0934,5.1155,5.0688,5.0603,5.0719,5.0105,4.9852,4.9846,4.9543,4.9516,4.9696,5.0175,5.0444,5.0534,5.1382,5.2148,5.2806,5.2853,5.2853,5.2853,5.3118,5.2961,5.239,5.3354,5.3845,5.3845,5.4491,5.4876,5.4969,5.4898,5.5124,5.5611,5.5823,5.5987,5.6006,5.5883,5.5548,5.4993,5.4429,5.462,5.5488,5.5032,5.5193,5.6183,5.6236,5.6347,5.6535,5.6807,5.7002,5.7099,5.6952,5.6753,0.0,5.6303,0.0,0.0,0.0,0.0,0.0,0.0,0.0,0.0,5.6402,5.7214,5.7234,5.6235,5.6117,5.7387,5.7634,5.801,5.8729,5.9389,6.0385,6.1952,6.383,6.5937,6.8313,7.05,7.2346,7.3577,7.5099,7.5973,7.5909,7.633,7.5909,7.403,7.3253,7.2805,7.2255,7.2152,7.2093,7.2067,7.2093,7.2093,7.1996,7.2022,7.1731,7.12,7.0967,7.087,7.0961,7.1499,7.1928,7.1881,7.2529,7.308,7.3156,7.3512,7.3383,7.2125,7.1899,7.2217,5.3108,5.3074,5.2556,5.2699,5.3194,5.2781,5.2036,5.1125,5.1518,5.1685,5.1619,5.0501,5.0637,5.1612,5.1409,5.1623,5.2158,5.2567,5.3226,5.4077,5.4234,5.4274,5.4335,5.4568,5.453,5.4221,5.4414,5.4522,5.4522,5.5191,5.5829,5.6495,5.698,5.7587,5.8228,0.0,0.0,0.0,5.7342,5.7143,5.6518,5.6544,5.6388,5.609,5.5964,0.0,5.6403,5.6457,5.6535,5.6829,5.7045,0.0,0.0,0.0,0.0,0.0,0.0,0.0,0.0,0.0,0.0,0.0,5.9622,5.9164,5.7511,5.8263,5.8856,5.891,5.8527,5.854,5.9252,6.0019,6.072,6.1416,6.2919,6.4229,6.5182,6.7098,6.8999,7.0604,7.267,7.4322,7.5326,7.6556,7.737,7.7495,7.8046,7.8499,7.8561,7.701,7.6168,7.6459,7.6038,7.5779,7.5779,7.5775,7.5543,7.5071,7.4877,7.4695,7.4198,7.3661,7.3441,7.3632,7.4261,7.4645,7.4469,7.5424,7.6159,7.6029,7.6103,7.5747,7.4322,7.4484,7.5099,5.3888,5.3583,5.3179,5.3188,0.0,5.3634,5.3114,5.2217,5.2546,5.2665,5.2636,5.1977,5.221,5.3049,5.2859,5.3102,5.3664,5.3897,5.4483,5.5238,5.5472,5.5566,5.5597,5.5736,5.5736,5.5597,5.5937,5.6278,5.665,5.7294,5.7851,5.8232,5.8577,5.89,5.9278,5.9395,5.8934,5.7865,5.8331,5.8153,5.723,5.6946,5.6972,5.7159,5.6866,0.0,0.0,0.0,0.0,0.0,0.0,0.0,0.0,5.9117,0.0,5.9443,5.9633,6.0009,6.0476,6.0814,6.1278,6.1886,6.3201,6.3106,6.1001,6.1006,6.1387,6.2036,6.1741,6.1805,6.2628,6.3164,6.387,6.5021,6.6338,6.7521,6.8687,7.0306,7.2087,7.3836,7.5326,7.6686,7.8147,7.8859,7.9344,7.9409,8.0021,8.0734,8.1249,7.973,7.8629,7.9277,7.9292,7.9119,7.9148,7.9292,7.8958,7.8107,7.7753,7.7353,7.654,7.6077,7.5869,7.6103,7.6513,7.6904,7.7255,7.7966,7.8668,7.882,7.8888,7.8856,7.824,7.7495,7.6949,5.476,5.4339,5.3908,5.3846,5.4095,5.449,5.4419,5.3977,5.3543,0.0,0.0,5.3525,5.3796,5.427,5.4226,5.4456,5.4946,5.5202,5.5666,5.6271,5.6731,5.6887,5.6817,5.6965,5.702,5.7074,5.7659,5.8314,5.8955,5.9759,6.0096,6.0083,6.0145,6.017,6.0125,6.0446,6.0074,5.9009,5.9333,5.9176,5.842,5.7809,5.7988,5.9055,5.8539,5.8737,5.9754,5.9809,5.9868,6.0093,6.0792,6.1225,6.1316,6.1939,6.2491,6.2882,6.3009,6.3348,6.3925,6.4579,6.5105,6.5299,6.7112,6.7213,6.4873,6.4367,6.4704,6.5924,6.5489,6.56,6.6753,6.6949,6.7566,6.9087,7.002,7.1026,7.2167,7.3474,7.4969,7.6686,7.7593,7.8823,8.0348,8.0898,8.119,8.1254,8.1708,8.261,8.306,8.1988,8.1015,8.1371,8.1606,8.191,8.1972,8.2086,8.1836,8.0542,8.0239,7.98,7.8817,7.8386,7.8381,7.86,7.8906,7.939,7.9867,8.0315,8.079,8.1317,8.1384,8.1546,8.1932,8.0442,7.9115,5.6235,5.6593,5.6017,5.6383,5.7269,5.6758,5.6766,5.6972,5.4855,5.4446,5.5316,5.4757,5.4842,5.5435,5.5085,5.5287,5.5914,5.6171,5.6544,5.7008,5.8082,5.834,5.8042,5.8771,5.9173,5.9173,5.9631,6.0005,6.0428,6.1639,6.2084,6.1872,6.2311,6.2412,6.2076,6.2681,6.2611,6.1821,6.0955,6.1019,6.2026,6.1559,6.1671,6.2357,6.2293,6.2436,6.285,6.2882,6.2968,6.318,6.3882,6.4103,6.3781,6.4397,6.4683,6.4548,6.4604,6.5279,6.6799,6.7561,6.8851,7.077,7.1799,7.1161,6.8525,6.8711,6.9401,7.0357,6.984,7.0047,7.1349,7.1694,7.2144,7.3075,7.4371,7.531,7.5451,7.64,7.7236,7.7722,7.8856,7.9727,8.0345,8.1284,8.1964,8.2062,8.261,8.3415,8.418,8.4242,8.3849,8.3486,8.3563,8.3712,8.3742,8.3772,8.3411,8.2396,8.1949,8.1701,8.1308,8.0987,8.0969,8.1585,8.1997,8.232,8.2142,8.2612,8.2822,8.29,8.2871,8.2968,8.313,8.2547,8.2321,5.7441,5.7169,5.746,5.778,5.8003,5.7942,5.8245,5.8683,5.7534,5.7166,5.7333,5.7056,5.7232,5.7745,5.7213,5.7464,5.8381,5.8122,5.8311,5.8851,5.938,5.9757,5.9972,6.0383,6.0966,6.1682,6.1903,6.2437,6.3317,6.3977,6.4375,6.4541,6.4856,6.4877,6.4727,6.5006,6.5195,6.5195,6.3589,6.2904,6.3182,6.332,6.3528,6.3878,6.4227,6.4493,6.465,6.5151,6.55,6.5568,6.6802,6.7355,6.7183,6.8534,6.9281,6.9202,6.9143,6.9804,7.1316,7.2052,7.3079,7.454,7.5316,7.5358,7.4388,7.3539,7.3355,7.3978,7.3921,7.4127,7.4775,7.4977,7.5319,7.6034,7.6716,7.7203,7.7625,7.8063,7.8694,7.9409,8.0119,8.0831,8.1638,8.2288,8.2677,8.2742,8.3478,8.4404,8.5395,8.5739,8.5671,8.5253,8.5336,8.5516,8.5546,8.5579,8.5191,8.4385,8.3962,8.3602,8.3277,8.2932,8.2994,8.3224,8.35,8.362,8.3554,8.376,8.3997,8.4326,8.4328,8.4328,8.4328,8.4328,8.4069,5.8928,5.8252,5.8797,5.8852,5.8655,5.9307,5.9781,6.0024,6.015,5.9991,5.9613,5.9284,5.9351,5.9687,5.9155,5.941,6.0147,5.976,5.9862,6.0446,6.0684,6.1158,6.1772,6.2063,6.2813,6.39,6.4196,6.4922,6.598,6.6201,6.6644,6.7249,6.7281,6.7402,6.7614,6.7641,6.7921,6.8381,6.7082,6.5914,6.5071,6.5362,6.5704,6.6162,6.6854,6.7203,6.7235,6.8108,6.8622,6.8654,7.0017,7.0818,7.0968,7.2605,7.3687,7.3766,7.3762,7.437,7.5742,7.6321,7.7064,7.7998,7.8437,7.8999,7.9523,7.8324,7.7309,7.7292,7.7236,7.7354,7.752,7.7743,7.8063,7.8553,7.8942,7.9455,7.9879,7.9918,8.0248,8.1317,8.1513,8.1964,8.2995,8.3447,8.364,8.4022,8.4596,8.5395,8.6221,8.6595,8.6565,8.6565,8.6686,8.6771,8.684,8.6744,8.639,8.5836,8.5363,8.4885,8.4498,8.4432,8.4399,8.4402,8.4289,8.4366,8.4699,8.4644,8.4683,8.5041,8.5106,8.5234,8.5138,8.5264,8.507,6.09,6.1151,6.0209,5.9964,6.049,6.1577,6.173,6.1337,6.1867,6.2126,6.1813,6.0721,6.0216,6.0225,6.0194,6.0249,6.0392,6.0234,6.0548,6.1078,6.1817,6.248,6.3091,6.4198,6.4993,6.5548,6.6406,6.7004,6.7565,6.8161,6.8794,6.9335,6.9426,6.9848,7.0635,7.0758,7.0932,7.1328,7.1744,7.116,6.9645,6.8977,6.943,7.1009,7.168,7.2064,7.1941,7.2791,7.3171,7.3267,7.3968,7.4558,7.4843,7.5644,7.6322,7.686,7.6916,7.7576,7.9102,7.9388,8.0128,8.1603,8.1367,8.1548,8.2429,8.2482,8.1728,8.0376,7.9487,7.9404,7.9721,8.0448,8.089,8.0991,8.1999,8.31,8.288,8.2926,8.2871,8.2936,8.2934,8.3188,8.3721,8.427,8.4915,8.5647,8.5839,8.6186,8.6623,8.6595,8.6595,8.6747,8.705,8.708,8.69,8.681,8.6502,8.5911,8.5484,8.529,8.5299,8.5229,8.5152,8.5144,8.5408,8.5317,8.5228,8.5202,8.5169,8.5234,8.5299,8.5299,8.5363,8.5519,8.545,6.2088,6.2404,6.2104,6.233,6.2934,6.3041,6.2888,6.2635,6.2453,6.2421,6.2421,6.2225,6.194,6.1537,6.1561,6.1782,6.2161,6.2186,6.2523,6.3085,6.3912,6.4607,6.5255,6.6112,6.7048,6.7976,6.8468,6.9162,7.0149,7.1152,7.1628,7.1569,7.1882,7.2293,7.266,7.2524,7.2664,7.3169,7.3704,7.3988,7.3963,7.3043,7.2919,7.3811,7.4899,7.5478,7.5571,7.6324,7.6826,7.689,7.8096,7.8939,7.9259,8.033,8.1036,8.1331,8.1504,8.1627,8.1734,8.2272,8.2938,8.368,8.3447,8.3611,8.4138,8.4114,8.3584,8.2714,8.2023,8.1726,8.1895,8.2277,8.2532,8.2565,8.3052,8.3409,8.3346,8.3287,8.3386,8.3959,8.4087,8.4402,8.5035,8.5486,8.5903,8.6472,8.6595,8.6717,8.6987,8.6957,8.6957,8.7047,8.723,8.717,8.687,8.6413,8.6199,8.6075,8.5786,8.5663,8.548,8.5636,8.5566,8.5549,8.5518,8.5488,8.5298,8.5299,8.5299,8.5299,8.5299,8.533,8.555,8.5706,8.5706,6.3511,6.3644,6.3752,6.4058,6.4443,6.3994,6.3773,6.371,6.3179,6.2958,6.3021,6.3552,6.3489,6.3021,6.2958,6.3274,6.3742,6.3988,6.4437,6.51,6.5796,6.6612,6.7439,6.8323,6.9355,7.0434,7.1052,7.1791,7.2848,7.3955,7.4335,7.4036,7.4559,7.4996,7.5213,7.5079,7.5189,7.576,7.6044,7.6674,7.7374,7.7062,7.6718,7.669,7.792,7.8665,7.8697,7.9743,8.0318,8.038,8.1561,8.2381,8.2706,8.3687,8.4274,8.4396,8.4603,8.4434,8.3702,8.4306,8.4819,8.4984,8.4958,8.5086,8.5432,8.5255,8.4988,8.4683,8.4296,8.3922,8.3348,8.351,8.364,8.3607,8.377,8.3899,8.3964,8.3993,8.4372,8.5011,8.514,8.5425,8.6221,8.6502,8.6653,8.6867,8.696,8.702,8.723,8.723,8.714,8.7137,8.7077,8.6957,8.6747,8.6383,8.6138,8.6077,8.595,8.5579,8.5425,8.5644,8.5644,8.5393,8.533,8.5299,8.5299,8.5299,8.5394,8.5425,8.5457,8.5518,8.5892,8.5984,8.6015,6.5485,6.5365,6.4759,6.4506,6.4506,6.4474,6.4468,6.4468,6.4348,6.4348,6.4285,6.4437,6.4443,6.4437,6.4494,6.4468,6.4563,6.5221,6.5885,6.658,6.7303,6.8256,6.9611,7.0891,7.19,7.2732,7.4104,7.4958,7.5292,7.6192,7.6693,7.6726,7.7274,7.8124,7.8779,7.8816,7.9178,7.9336,7.9438,7.9589,7.9813,8.0959,8.0865,7.9912,8.0992,8.1683,8.1876,8.3117,8.3804,8.3804,8.387,8.4084,8.4445,8.4573,8.4819,8.5053,8.5111,8.5107,8.5049,8.5144,8.5409,8.5939,8.5835,8.595,8.6504,8.63,8.6085,8.6158,8.5996,8.5386,8.4163,8.4335,8.4598,8.4663,8.5247,8.5476,8.5605,8.5688,8.6099,8.6193,8.6158,8.6312,8.6717,8.708,8.717,8.723,8.7259,8.7289,8.7259,8.705,8.693,8.687,8.6686,8.6474,8.6719,8.6444,8.6291,8.6261,8.6015,8.5488,8.555,8.5581,8.5457,8.5394,8.5424,8.5424,8.533,8.5363,8.5488,8.555,8.5675,8.583,8.6199,8.6535,8.6535,6.56,6.5632,6.5796,6.5859,6.5796,6.5385,6.5221,6.5158,6.4721,6.4474,6.4569,6.5006,6.5448,6.5859,6.6693,6.6609,6.598,6.6796,6.7573,6.8303,6.9572,7.0508,7.1137,7.3026,7.4349,7.5117,7.6334,7.7198,7.7667,7.8364,7.8523,7.8316,7.8816,7.9545,8.0162,8.0177,8.055,8.1438,8.1783,8.1984,8.219,8.3111,8.349,8.3235,8.349,8.3666,8.3666,8.4163,8.4393,8.4393,8.4853,8.5265,8.5626,8.6082,8.6376,8.6494,8.6494,8.6494,8.6494,8.6494,8.6593,8.6825,8.6803,8.678,8.6981,8.6807,8.6626,8.6659,8.6626,8.6206,8.5888,8.5554,8.5408,8.5441,8.5636,8.5892,8.6077,8.623,8.6383,8.6595,8.6777,8.6987,8.7047,8.7196,8.7319,8.7319,8.7319,8.7319,8.7289,8.72,8.711,8.711,8.705,8.699,8.7047,8.6626,8.6322,8.6413,8.6261,8.5953,8.583,8.5892,8.583,8.5581,8.5613,8.5704,8.5642,8.5519,8.5613,8.5799,8.5892,8.6077,8.6504,8.6626,8.6686,6.5917,6.6011,6.6396,6.6586,6.6554,6.6138,6.6021,6.6119,6.5643,6.5523,6.5804,6.6492,6.7066,6.7602,6.8606,6.8965,6.8559,6.9143,6.9649,7.0192,7.1758,7.2788,7.3596,7.5219,7.6552,7.7484,7.86,7.9504,8.0116,8.0824,8.0922,8.0659,8.1209,8.1726,8.2157,8.2079,8.249,8.3277,8.3589,8.3849,8.4093,8.4745,8.523,8.5409,8.5461,8.5343,8.5142,8.534,8.5505,8.5508,8.5967,8.632,8.6593,8.7054,8.7319,8.7319,8.7319,8.7319,8.7319,8.7319,8.7319,8.7319,8.7319,8.7319,8.7289,8.711,8.699,8.696,8.696,8.696,8.6749,8.6383,8.6107,8.6107,8.6107,8.6199,8.6444,8.6565,8.6717,8.6927,8.714,8.7289,8.7319,8.7319,8.7319,8.7319,8.7319,8.7319,8.7319,8.7319,8.7319,8.7319,8.7289,8.7259,8.7259,8.6927,8.6747,8.6807,8.6352,8.6107,8.6077,8.6107,8.6046,8.583,8.583,8.5984,8.5953,8.5768,8.583,8.5984,8.6077,8.623,8.6474,8.6626,8.6595,6.6586,6.658,6.6644,6.6696,6.6691,6.6775,6.6979,6.7298,6.7356,6.7548,6.7942,6.8805,6.8987,6.9445,7.0151,7.1142,7.1975,7.223,7.2219,7.2289,7.3637,7.5099,7.6446,7.7399,7.8625,7.9903,8.1124,8.2009,8.2521,8.3289,8.3701,8.4041,8.4295,8.4523,8.5008,8.4755,8.4916,8.5078,8.5115,8.5111,8.5202,8.5802,8.6163,8.6292,8.6792,8.6763,8.6229,8.6792,8.7061,8.7123,8.719,8.7286,8.719,8.7286,8.7319,8.7319,8.7319,8.7319,8.7319,8.7319,8.7319,8.7319,8.7319,8.7319,8.7319,8.7289,8.7259,8.7259,8.7259,8.717,8.69,8.681,8.6749,8.678,8.6689,8.6686,8.6807,8.711,8.7289,8.7289,8.7319,8.7319,8.7319,8.7319,8.7319,8.7319,8.7319,8.7319,8.7319,8.7319,8.7319,8.7319,8.7319,8.7319,8.7319,8.7289,8.7289,8.717,8.6504,8.6046,8.6169,8.623,8.5984,8.5799,8.5768,8.5923,8.5984,8.5861,8.5984,8.6138,8.623,8.6261,8.6413,8.6535,8.6444,6.6691,6.6901,6.7083,6.7265,6.7535,6.8132,6.8306,6.8046,6.8491,6.8819,6.8978,6.9198,6.9814,7.0857,7.1948,7.2842,7.3661,7.5239,7.5506,7.4654,7.5869,7.6887,7.7711,7.935,8.111,8.2501,8.3068,8.3663,8.4225,8.4594,8.4759,8.4866,8.502,8.5368,8.5828,8.5861,8.603,8.656,8.6593,8.6593,8.6656,8.6822,8.6954,8.6987,8.7186,8.7186,8.7021,8.7186,8.7319,8.7319,8.7319,8.7319,8.7319,8.7319,8.7319,8.7319,8.7319,8.7319,8.7319,8.7319,8.7319,8.7319,8.7319,8.7319,8.7319,8.7319,8.7319,8.7319,8.7319,8.7226,8.717,8.714,8.705,8.684,8.681,8.69,8.711,8.723,8.7289,8.7319,8.7319,8.7319,8.7319,8.7319,8.7319,8.7319,8.7319,8.7319,8.7319,8.7319,8.7319,8.7319,8.7319,8.7319,8.7319,8.7319,8.7319,8.723,8.6717,8.6291,8.6352,8.6261,8.6015,8.5861,8.583,8.5861,8.5923,8.5984,8.6107,8.6077,8.6015,8.6138,8.6352,8.6322,8.6169,6.7213,6.7439,6.7619,6.7797,6.7981,6.8669,6.8748,6.8606,6.9307,6.97,6.9916,7.0521,7.1338,7.2494,7.3624,7.4727,7.581,7.7546,7.8014,7.7648,7.8173,7.8842,7.9441,8.1434,8.3181,8.4318,8.4579,8.4887,8.5467,8.55,8.5633,8.5865,8.6015,8.6247,8.6619,8.6711,8.7006,8.7282,8.7375,8.7434,8.7464,8.7552,8.7611,8.7611,8.7611,8.764,8.7674,8.7611,8.7523,8.7378,8.7319,8.7319,8.7319,8.7319,8.7319,8.7319,8.7319,8.7319,8.7319,8.7319,8.7319,8.7319,8.7319,8.7319,8.7319,8.7319,8.7319,8.7319,8.7319,8.7319,8.7319,8.7319,8.72,8.702,8.702,8.7047,8.7289,8.7319,8.7319,8.7319,8.7319,8.7319,8.7319,8.7319,8.7319,8.7319,8.7319,8.7319,8.7319,8.7319,8.7319,8.7319,8.7319,8.7319,8.7319,8.7319,8.7319,8.72,8.696,8.6717,8.6626,8.6413,8.6169,8.6046,8.6015,8.5984,8.6046,8.5984,8.6015,8.5923,8.583,8.5953,8.6077,8.5923,8.5799,6.7975,6.8201,6.8226,6.8276,6.8334,6.8506,6.8845,6.9223,6.9928,7.0568,7.1242,7.2333,7.3433,7.4245,7.5154,7.6518,7.8252,7.8927,8.0007,8.0918,8.1165,8.1203,8.2154,8.3625,8.4731,8.5492,8.5592,8.5848,8.6313,8.6317,8.6652,8.7143,8.7353,8.7578,8.7393,8.7578,8.7574,8.7493,8.7611,8.7728,8.7758,8.7991,8.8136,8.8136,8.8107,8.8107,8.8107,8.8078,8.7875,8.7438,8.7378,8.7349,8.7319,8.7319,8.7319,8.7319,8.7319,8.7319,8.7319,8.7319,8.7319,8.7319,8.7319,8.7319,8.7319,8.7319,8.7319,8.7319,8.7319,8.7319,8.7319,8.7319,8.7289,8.7319,8.7259,8.7289,8.7319,8.7319,8.7319,8.7319,8.7319,8.7319,8.7319,8.7319,8.7319,8.7319,8.7319,8.7319,8.7319,8.7319,8.7319,8.7319,8.7319,8.7319,8.7319,8.7319,8.7319,8.7259,8.711,8.702,8.687,8.6595,8.6352,8.623,8.6107,8.6077,8.6015,8.5923,8.5859,8.5861,8.5799,8.5799,8.5706,8.5613,8.555,6.8251,6.8526,6.8724,6.8896,6.919,6.9845,7.0254,7.0475,7.1168,7.1837,7.2614,7.3475,7.4354,7.5157,7.6847,7.8047,7.8968,8.0758,8.2062,8.2988,8.3896,8.42,8.4574,8.5196,8.5967,8.6574,8.6674,8.6869,8.7278,8.7278,8.7382,8.7582,8.7699,8.7816,8.7933,8.802,8.802,8.7962,8.802,8.8049,8.8078,8.8165,8.8194,8.8194,8.8194,8.8223,8.8194,8.8194,8.802,8.764,8.7582,8.7493,8.7315,8.7349,8.7349,8.7349,8.7349,8.7319,8.7319,8.7349,8.7319,8.7319,8.7349,8.7319,8.7319,8.7319,8.7319,8.7319,8.7319,8.7319,8.7319,8.7319,8.7319,8.7319,8.7319,8.7319,8.7319,8.7319,8.7319,8.7319,8.7319,8.7319,8.7319,8.7319,8.7319,8.7319,8.7319,8.7319,8.7319,8.7319,8.7319,8.7319,8.7319,8.7319,8.7319,8.7319,8.7319,8.7319,8.7259,8.723,8.708,8.6867,8.6595,8.6352,8.6107,8.6046,8.583,8.5675,8.5706,8.5768,8.558,8.5519,8.5488,8.5362,8.5362,6.8871,6.9116,6.9261,6.9439,6.9673,7.0521,7.0891,7.1123,7.2018,7.2754,7.3426,7.4406,7.5287,7.6228,7.8017,7.9449,8.048,8.2378,8.3854,8.5124,8.6206,8.6564,8.6487,8.6623,8.7048,8.7658,8.7725,8.7759,8.7895,8.7904,8.7904,8.7933,8.8016,8.8103,8.8165,8.8338,8.831,8.8223,8.831,8.8396,8.8362,8.8511,8.8596,8.8596,8.8596,8.8596,8.8596,8.8596,8.8396,8.802,8.7904,8.7787,8.7523,8.7611,8.7611,8.7493,8.7582,8.767,8.7703,8.767,8.767,8.764,8.7552,8.7497,8.7467,8.7408,8.7319,8.7319,8.7319,8.7319,8.7319,8.7319,8.7319,8.7319,8.7319,8.7319,8.7319,8.7319,8.7319,8.7319,8.7319,8.7319,8.7319,8.7319,8.7319,8.7319,8.7319,8.7319,8.7319,8.7319,8.7319,8.7319,8.7319,8.7319,8.7319,8.7319,8.7319,8.7319,8.7319,8.7319,8.723,8.705,8.6807,8.6504,8.6199,8.5984,8.583,8.5675,8.5581,8.555,8.5394,8.5299,8.5299,8.5299,8.5299,6.9682,6.9898,6.9997,7.003,7.0196,7.0726,7.1181,7.147,7.2589,7.3434,7.4073,7.5281,7.6449,7.7513,7.9109,8.0761,8.2743,8.3659,8.5315,8.6796,8.7939,8.8177,8.7705,8.77,8.8065,8.8475,8.8643,8.8443,8.831,8.8223,8.8252,8.8281,8.8448,8.8477,8.8453,8.8563,8.8506,8.8453,8.8563,8.8648,8.8705,8.8875,8.8993,8.8993,8.9196,8.9224,8.9286,8.932,8.9161,8.8578,8.8353,8.8078,8.7846,8.8049,8.802,8.7846,8.7962,8.8107,8.8165,8.8107,8.8136,8.8078,8.7975,8.7828,8.7873,8.7858,8.7776,8.7551,8.7418,8.7451,8.7319,8.7319,8.7319,8.7319,8.7319,8.7319,8.7319,8.7319,8.7319,8.7319,8.7319,8.7319,8.7319,8.7319,8.7319,8.7319,8.7319,8.7319,8.7319,8.7319,8.7319,8.7319,8.7319,8.7319,8.7319,8.7319,8.7319,8.7319,8.7319,8.7319,8.7289,8.714,8.699,8.6747,8.6535,8.6291,8.6107,8.5923,8.5675,8.5519,8.5425,8.5363,8.5299,8.5299,8.5299,7.0611,7.0726,7.1289,7.1554,7.1554,7.172,7.2206,7.2934,7.3267,7.4214,7.548,7.6467,7.7622,7.8971,8.0405,8.206,8.3662,8.4996,8.6566,8.8125,8.8712,8.892,8.8751,8.8717,8.8819,8.8959,8.8988,8.8818,8.8591,8.8534,8.8534,8.8563,8.8648,8.8705,8.8875,8.8903,8.8959,8.8903,8.8959,8.8993,8.9027,8.9083,8.9201,8.9303,8.9681,8.9951,9.0087,9.0527,9.074,9.036,8.9389,8.8593,8.8333,8.8295,8.8295,8.8232,8.8199,8.8223,8.8228,8.8286,8.8228,8.8386,8.8734,8.886,8.8628,8.9001,8.8822,8.8373,8.8084,8.7786,8.7385,8.7319,8.7319,8.7319,8.7319,8.7319,8.7319,8.7319,8.7319,8.7319,8.7319,8.7319,8.7319,8.7349,8.7349,8.7319,8.7319,8.7319,8.7319,8.7319,8.7319,8.7319,8.7319,8.7319,8.7319,8.7319,8.7319,8.7319,8.7319,8.7319,8.7289,8.7259,8.714,8.702,8.69,8.6656,8.6383,8.6107,8.5861,8.5675,8.5519,8.5457,8.5425,8.533,8.5299,7.1223,7.0991,7.1686,7.1993,7.2051,7.2505,7.3018,7.3531,7.4021,7.4977,7.6223,7.7078,7.8295,7.9835,8.1324,8.2965,8.485,8.6634,8.7902,8.8745,8.9016,8.9072,8.9128,8.9184,8.924,8.9128,8.9134,8.8988,8.8903,8.8959,8.9044,8.9044,8.9016,8.9128,8.9212,8.919,8.91,8.9072,8.9134,8.9269,8.9545,8.9613,8.985,9.0087,9.0527,9.0729,9.0763,9.1034,9.1271,9.1073,9.0417,8.9749,8.9452,8.9245,8.9077,8.8957,8.8702,8.8659,8.8625,8.8928,8.9192,8.9135,8.972,8.9877,8.9746,8.9936,8.9667,8.9087,8.8572,8.8018,8.7418,8.7319,8.7319,8.7319,8.7319,8.7319,8.7319,8.7319,8.7319,8.7349,8.7404,8.7408,8.7408,8.7434,8.7375,8.7408,8.7349,8.7349,8.7319,8.7319,8.7319,8.7319,8.7319,8.7319,8.7319,8.7319,8.7319,8.7319,8.7319,8.7319,8.7289,8.7289,8.7289,8.72,8.708,8.696,8.6719,8.6416,8.6138,8.6015,8.5861,8.5675,8.5519,8.5488,8.5394,7.1852,7.1455,7.2084,7.2473,7.2812,7.3408,7.3814,7.417,7.4843,7.5851,7.6788,7.7587,7.9137,8.0631,8.2153,8.4005,8.6135,8.786,8.8948,8.901,8.9156,8.9184,8.924,8.9407,8.949,8.9274,8.9295,8.9268,8.9323,8.9434,8.949,8.9579,8.9545,8.9626,8.9604,8.9499,8.9562,8.9641,8.9681,8.985,9.029,9.0391,9.0662,9.1,9.1372,9.1474,9.1508,9.1677,9.1744,9.1643,9.1643,9.1527,9.1242,9.0664,9.0306,9.0019,8.9713,8.9601,8.9669,8.9996,9.0334,9.0391,9.0837,9.1068,9.0959,9.0709,9.0414,8.977,8.9124,8.8018,8.7418,8.7319,8.7319,8.7319,8.7319,8.7319,8.7319,8.7349,8.7408,8.7438,8.7523,8.7552,8.7611,8.767,8.7582,8.7493,8.7467,8.7438,8.7408,8.7438,8.7526,8.7585,8.7644,8.7674,8.7674,8.7644,8.7585,8.7467,8.7438,8.7378,8.7349,8.7319,8.7319,8.7319,8.723,8.711,8.696,8.6749,8.6504,8.6352,8.6169,8.5953,8.5768,8.5644,8.555,7.3177,7.3666,7.3799,7.4654,7.5688,7.4906,7.5046,7.5918,7.616,7.6803,7.7868,7.9178,8.0496,8.2035,8.3558,8.5486,8.7361,8.871,8.919,8.9212,8.9323,8.9434,8.9524,8.9771,8.9854,8.9854,8.9854,8.9826,8.9799,8.9881,8.9908,8.9942,8.9976,9.0133,9.041,9.0481,9.0544,9.0736,9.0781,9.0888,9.1182,9.1294,9.1299,9.1604,9.1981,9.2218,9.2387,9.2827,9.3228,9.3228,9.3228,9.3102,9.2768,9.1817,9.1242,9.088,9.0706,9.0521,9.0594,9.0865,9.1068,9.1271,9.1658,9.1951,9.1918,9.1893,9.1462,9.0529,8.9356,8.8117,8.7418,8.7518,8.7352,8.7352,8.7385,8.7382,8.7408,8.7523,8.7699,8.7787,8.7816,8.7787,8.7875,8.7962,8.7933,8.7875,8.7816,8.7816,8.7846,8.7875,8.7962,8.802,8.8078,8.8078,8.8078,8.802,8.7962,8.7728,8.764,8.7526,8.7497,8.7349,8.7319,8.7319,8.7319,8.7259,8.711,8.699,8.6837,8.6686,8.6474,8.623,8.6138,8.6046,8.5923,7.4229,7.4321,7.5144,7.6003,7.6648,7.6366,7.6482,7.7008,7.7248,7.7776,7.8695,7.9735,8.1021,8.2501,8.4148,8.6154,8.8157,8.9239,8.9545,8.9606,8.9689,8.9771,8.9799,9.0071,9.018,9.0261,9.0341,9.0234,9.0044,9.0153,9.0241,9.0309,9.0549,9.0913,9.1096,9.1187,9.1443,9.1704,9.1716,9.1885,9.2345,9.253,9.2624,9.2614,9.2759,9.2996,9.3098,9.33,9.3601,9.3567,9.3601,9.3601,9.3364,9.2958,9.2145,9.144,9.1034,9.0797,9.0763,9.0763,9.1,9.1812,9.2257,9.2536,9.2698,9.2763,9.2276,9.112,9.0322,8.9177,8.8548,8.8379,8.8274,8.8094,8.7935,8.7888,8.795,8.7966,8.8237,8.8444,8.8468,8.841,8.8136,8.8194,8.8281,8.8281,8.8257,8.8252,8.8281,8.8367,8.8453,8.8338,8.8338,8.831,8.8338,8.8338,8.8252,8.8049,8.7933,8.7787,8.7674,8.7585,8.7438,8.7319,8.7319,8.7378,8.7289,8.714,8.711,8.702,8.6747,8.6565,8.6504,8.6413,8.6291,7.5201,7.506,7.6338,7.7091,7.7394,7.7506,7.7706,7.7907,7.8114,7.8619,7.9397,8.0386,8.1529,8.297,8.4833,8.6909,8.9094,8.9758,8.9901,8.9963,9.0044,9.0071,9.0153,9.0341,9.0468,9.0529,9.0601,9.0574,9.0341,9.0395,9.0544,9.088,9.1395,9.1788,9.1995,9.2211,9.236,9.2514,9.2492,9.2833,9.3498,9.3929,9.4039,9.3806,9.3777,9.3743,9.365,9.3684,9.3718,9.3718,9.3718,9.3689,9.3689,9.3689,9.3016,9.1773,9.1102,9.0932,9.0966,9.1102,9.1778,9.259,9.2658,9.303,9.3183,9.3021,9.24,9.1284,9.0835,9.0194,8.9404,8.9465,8.929,8.9018,8.8815,8.8801,8.8998,8.9183,8.9508,8.9555,8.9342,8.9195,8.9096,8.8635,8.8749,8.9008,8.8951,8.8767,8.8824,8.888,8.8909,8.8682,8.8568,8.8477,8.8539,8.8568,8.8482,8.8305,8.8219,8.8165,8.7991,8.7816,8.767,8.7552,8.7434,8.7464,8.7408,8.7319,8.723,8.714,8.702,8.693,8.69,8.6777,8.6656,7.6371,7.7437,7.7219,7.8042,7.9094,7.8161,7.8168,7.8941,7.9025,7.9397,8.0318,8.1775,8.2904,8.4299,8.6348,8.8255,8.947,8.9969,9.0099,9.0126,9.0253,9.0368,9.0395,9.0627,9.068,9.0776,9.0829,9.0786,9.0757,9.0818,9.1147,9.1629,9.1981,9.241,9.3223,9.3373,9.3768,9.4112,9.413,9.4164,9.4295,9.4403,9.4414,9.4357,9.4299,9.4213,9.401,9.3918,9.3918,9.3947,9.3947,9.3947,9.3947,9.3947,9.3365,9.2847,9.2759,9.3194,9.2895,9.2556,9.2725,9.3131,9.3267,9.347,9.3419,9.2999,9.2249,9.1153,9.1178,9.0917,9.0178,9.0117,8.989,8.9917,8.9999,9.0081,9.0229,9.0397,9.0754,9.0963,9.0821,9.0522,9.0357,8.972,8.9219,8.9478,8.967,8.9483,8.9301,8.9425,8.9385,8.919,8.9078,8.9021,8.8993,8.8993,8.8818,8.8648,8.8591,8.8506,8.8247,8.8136,8.8107,8.7962,8.7787,8.7611,8.7552,8.7497,8.7378,8.7292,8.7239,8.7266,8.7259,8.714,8.6957,7.7681,7.8155,7.8512,7.9094,7.9692,7.9238,7.9642,8.0444,8.0571,8.1078,8.2011,8.3126,8.4617,8.631,8.8015,8.9244,9.0243,9.0449,9.0475,9.0414,9.0548,9.0627,9.0654,9.0733,9.0786,9.095,9.1226,9.1537,9.1468,9.1529,9.1709,9.2088,9.2847,9.351,9.4145,9.4316,9.4597,9.4872,9.4975,9.4891,9.4778,9.4721,9.4671,9.4528,9.45,9.4477,9.4333,9.4063,9.4121,9.4179,9.4121,9.4005,9.4005,9.3976,9.3656,9.3262,9.3334,9.33,9.2895,9.2624,9.2895,9.3267,9.3267,9.3064,9.3284,9.3036,9.2514,9.1997,9.2021,9.1727,9.1466,9.1789,9.1758,9.1649,9.1359,9.1498,9.1628,9.1682,9.1878,9.2121,9.2307,9.2049,9.1778,9.1438,9.0939,9.0877,9.0797,9.0472,9.0187,8.9983,8.9908,8.9744,8.9662,8.9606,8.9606,8.9606,8.9379,8.9212,8.9156,8.8988,8.8563,8.8391,8.8482,8.8338,8.8078,8.7904,8.7758,8.7652,8.7544,8.7581,8.7554,8.762,8.7683,8.7322,8.7203,7.8909,7.8875,7.9591,7.9904,7.9963,8.0378,8.0978,8.163,8.1943,8.2605,8.3601,8.4626,8.6311,8.8054,8.9052,8.9914,9.0751,9.0865,9.0839,9.0839,9.0786,9.0786,9.0881,9.0942,9.1263,9.1228,9.2242,9.2519,9.257,9.2663,9.2748,9.2633,9.3599,9.4296,9.4586,9.482,9.5108,9.5282,9.5344,9.5226,9.5087,9.5031,9.4919,9.4847,9.4864,9.4973,9.4859,9.5023,9.5057,9.5149,9.4852,9.4761,9.4698,9.4645,9.4408,9.4145,9.4231,9.4146,9.3537,9.303,9.2692,9.2962,9.3199,9.3131,9.3445,9.3133,9.2893,9.2819,9.3234,9.3107,9.3006,9.3288,9.3161,9.2973,9.2861,9.2975,9.313,9.3227,9.3317,9.3565,9.3724,9.364,9.3426,9.3193,9.2863,9.2444,9.2027,9.1529,9.1111,9.07,9.0372,9.0208,9.0038,9.0011,8.9976,8.9976,8.9833,8.9778,8.9723,8.9524,8.9196,8.9021,8.8988,8.8795,8.8482,8.8338,8.8219,8.8016,8.7806,8.8035,8.8201,8.8114,8.8018,8.765,8.7352,7.9887,8.009,8.015,8.0217,8.0276,8.1198,8.163,8.2071,8.2783,8.3626,8.4651,8.6063,8.7444,8.8614,8.9648,9.04,9.0865,9.1135,9.1109,9.0944,9.0812,9.0926,9.1212,9.1758,9.2243,9.2469,9.3233,9.3703,9.3938,9.4159,9.4222,9.4281,9.444,9.4799,9.511,9.5344,9.5393,9.5482,9.5482,9.5427,9.5344,9.5379,9.5385,9.5558,9.5943,9.6266,9.6046,9.6383,9.6658,9.6681,9.6115,9.5812,9.5755,9.5554,9.5264,9.5068,9.5145,9.5123,9.4789,9.4079,9.3571,9.3601,9.3533,9.3427,9.3718,9.3976,9.3822,9.3521,9.3964,9.4061,9.3883,9.3879,9.4042,9.4139,9.4157,9.4352,9.452,9.4812,9.4936,9.511,9.5054,9.4881,9.4681,9.4391,9.4026,9.3606,9.301,9.2516,9.1876,9.143,9.0937,9.065,9.0392,9.0277,9.0188,9.0222,9.0509,9.0386,9.0236,9.014,8.9935,8.9791,8.9496,8.9385,8.9134,8.8875,8.8811,8.8966,8.9048,8.8924,8.8848,8.8699,8.8214,8.7717,8.7451,8.0631,8.113,8.1315,8.129,8.1164,8.1712,8.2595,8.3565,8.4033,8.4982,8.6292,8.7614,8.869,8.9604,9.0561,9.1159,9.1359,9.1446,9.142,9.142,9.1368,9.1611,9.2045,9.2426,9.2878,9.3486,9.4252,9.4661,9.4712,9.5259,9.5492,9.5462,9.5265,9.5391,9.5633,9.5784,9.5819,9.5744,9.5682,9.5592,9.5496,9.5882,9.6089,9.6124,9.6848,9.7165,9.7092,9.7133,9.7328,9.7322,9.7059,9.6864,9.6773,9.6485,9.616,9.59,9.598,9.5902,9.5872,9.5229,9.4789,9.418,9.3905,9.3786,9.4088,9.4027,9.4019,9.4083,9.4485,9.4621,9.4372,9.4671,9.505,9.5183,9.5389,9.5605,9.5822,9.6047,9.6143,9.615,9.604,9.5881,9.5674,9.5467,9.5102,9.4668,9.4069,9.3436,9.2774,9.2249,9.1798,9.1572,9.141,9.1486,9.1459,9.1417,9.1341,9.1123,9.0877,9.0823,9.0735,9.0065,8.9833,8.9806,8.988,8.9789,8.9906,9.0256,9.0255,8.9952,8.9576,8.925,8.8599,8.7879,8.7551,8.1272,8.1848,8.2362,8.2415,8.2214,8.267,8.3613,8.4689,8.5133,8.6065,8.7559,8.8556,8.9445,9.0335,9.1293,9.1692,9.1701,9.1762,9.1762,9.178,9.1938,9.2302,9.2816,9.3424,9.4069,9.4548,9.528,9.5725,9.5751,9.6143,9.6229,9.6219,9.6182,9.6074,9.6001,9.631,9.6518,9.651,9.6469,9.636,9.6283,9.6572,9.6848,9.6952,9.7635,9.7952,9.8067,9.816,9.8332,9.8257,9.8022,9.7735,9.7528,9.7296,9.6974,9.6746,9.6583,9.6443,9.6379,9.5905,9.5601,9.5026,9.4836,9.4767,9.4738,9.4617,9.4972,9.4938,9.5127,9.519,9.511,9.574,9.6281,9.6491,9.6416,9.657,9.6811,9.7055,9.708,9.7127,9.6977,9.6792,9.6516,9.624,9.5661,9.5185,9.442,9.3931,9.3579,9.3096,9.2786,9.269,9.267,9.2835,9.2993,9.2609,9.2252,9.2184,9.1965,9.1781,9.1528,9.0919,9.0803,9.1091,9.1125,9.0824,9.1041,9.1483,9.1289,9.0919,9.0581,9.027,8.9277,8.8556,8.7806,8.1874,8.2225,8.3192,8.3441,8.3403,8.4314,8.4783,8.5064,8.5815,8.6824,8.7914,8.8776,8.9666,9.0622,9.171,9.198,9.1879,9.2015,9.205,9.2133,9.2491,9.2797,9.3537,9.4363,9.5156,9.5663,9.6248,9.6763,9.6868,9.6782,9.6747,9.6765,9.672,9.6711,9.6332,9.6993,9.7588,9.7931,9.7931,9.7702,9.7506,9.756,9.7641,9.7842,9.8366,9.8774,9.882,9.9165,9.9308,9.9303,9.8923,9.8693,9.8665,9.8079,9.7784,9.7729,9.7767,9.7797,9.7831,9.6578,9.6158,9.592,9.5761,9.5954,9.6188,9.6306,9.629,9.6143,9.6492,9.6646,9.6851,9.6992,9.7331,9.7566,9.7428,9.7566,9.7808,9.7814,9.7832,9.8045,9.786,9.7607,9.7331,9.6952,9.6296,9.5606,9.4779,9.4392,9.4254,9.4047,9.3778,9.3847,9.3916,9.3882,9.3916,9.3468,9.3165,9.3131,9.2966,9.2651,9.2616,9.239,9.2377,9.2509,9.2241,9.1871,9.2262,9.2785,9.251,9.2293,9.1821,9.1282,9.0259,8.9297,8.8609,8.2878,8.3937,8.4426,8.4914,8.5217,8.5086,8.5342,8.584,8.6409,8.7409,8.8733,8.9359,9.0319,9.1401,9.1995,9.228,9.2255,9.229,9.2395,9.2975,9.3275,9.406,9.4751,9.5398,9.6071,9.6543,9.7144,9.7266,9.7051,9.7137,9.7112,9.7078,9.7517,9.7701,9.7684,9.7946,9.8225,9.8549,9.847,9.8223,9.8048,9.8266,9.8463,9.8463,9.9124,9.9504,9.9504,9.9849,10.0021,9.9952,9.9504,9.9504,9.9383,9.8852,9.8625,9.8446,9.8367,9.8215,9.8546,9.8267,9.7955,9.7338,9.6831,9.6979,9.7127,9.704,9.7156,9.7315,9.7528,9.755,9.7469,9.7503,9.7773,9.8159,9.8256,9.8469,9.8642,9.8538,9.8544,9.8889,9.8912,9.8222,9.7745,9.7641,9.7055,9.6503,9.5807,9.5331,9.5124,9.502,9.4848,9.5055,9.5124,9.502,9.4848,9.4675,9.4606,9.4675,9.402,9.3234,9.3296,9.3606,9.3338,9.314,9.3037,9.2968,9.3251,9.3559,9.3868,9.373,9.3142,9.2356,9.1337,9.0345,8.9569,8.3915,8.4967,8.5392,8.5896,8.6315,8.5826,8.593,8.6469,8.6993,8.8097,8.9388,9.0004,9.0931,9.1975,9.2414,9.2512,9.2512,9.2828,9.3004,9.3681,9.4243,9.4995,9.5748,9.6352,9.685,9.7324,9.7496,9.7547,9.7445,9.7562,9.7672,9.789,9.8358,9.8771,9.8981,9.9209,9.941,9.9736,9.9735,9.9417,9.9249,9.9203,9.9274,9.9458,9.978,10.0194,10.0125,10.0228,10.0401,10.0188,10.0119,10.0154,9.9876,9.9597,9.9337,9.9125,9.9035,9.8911,9.9264,9.9843,9.9445,9.891,9.8206,9.8177,9.8354,9.8268,9.8244,9.8316,9.8439,9.8348,9.8256,9.8291,9.905,9.9435,9.9331,9.9573,9.9331,9.9193,9.9124,9.9504,9.9504,9.878,9.8228,9.809,9.7883,9.7394,9.6842,9.6497,9.6124,9.602,9.5986,9.6124,9.6331,9.6296,9.6262,9.6227,9.6158,9.6158,9.5365,9.4399,9.4434,9.4813,9.4296,9.3882,9.4034,9.4145,9.4103,9.4262,9.4537,9.4566,9.4254,9.336,9.2381,9.1552,9.0787,8.4967,8.5338,8.6018,8.6434,8.6642,8.6494,8.6612,8.6869,8.7844,8.8904,8.9916,9.0675,9.1547,9.2361,9.2551,9.2646,9.2846,9.3384,9.377,9.4262,9.5217,9.595,9.6544,9.7088,9.7446,9.7728,9.7899,9.7863,9.7863,9.7986,9.8213,9.8774,9.9253,9.9771,10.0236,10.049,10.0664,10.0816,10.0765,10.0481,10.0244,10.0226,10.0131,10.0258,10.0644,10.0724,10.0833,10.1183,10.1011,10.0775,10.0637,10.0493,10.0257,9.9947,9.9883,9.9854,9.9796,9.9883,10.001,10.0575,10.0863,10.0437,10.0408,10.0378,10.0159,9.9774,9.9693,9.9699,9.982,9.9521,9.9291,10.0223,10.112,10.0952,10.0608,10.0401,10.0021,9.9849,9.978,9.9814,9.9814,9.94,9.8986,9.878,9.8711,9.8429,9.8049,9.7952,9.7607,9.7152,9.7118,9.7158,9.7359,9.7566,9.7532,9.7359,9.7187,9.7014,9.6745,9.602,9.6089,9.5951,9.5675,9.5434,9.54,9.5331,9.5165,9.511,9.5143,9.5137,9.519,9.4401,9.3423,9.2971,9.2175,8.5426,8.6043,8.6424,8.6642,8.6844,8.76,8.798,8.8181,8.9146,9.0217,9.1195,9.1598,9.2186,9.2941,9.3012,9.333,9.3718,9.4201,9.4978,9.5625,9.6186,9.6805,9.7304,9.7647,9.7838,9.7973,9.8072,9.8228,9.8101,9.8283,9.9297,10.0184,10.0308,10.0773,10.1106,10.136,10.1446,10.1478,10.1411,10.1261,10.1074,10.0878,10.0867,10.1146,10.155,10.1538,10.172,10.2124,10.1882,10.1178,10.122,10.1169,10.1129,10.0511,10.0137,9.997,10.02,10.0576,10.0633,10.1179,10.1597,10.1736,10.1695,10.1763,10.1636,10.1433,10.1191,10.1087,10.1167,10.0976,10.0878,10.1568,10.1987,10.1711,10.1332,10.0952,10.0539,10.009,10.0021,9.9918,9.9918,10.0021,9.9607,9.9573,9.9504,9.9331,9.9262,9.9228,9.8986,9.8498,9.8153,9.8124,9.8394,9.8601,9.8291,9.8084,9.7946,9.7773,9.7532,9.7331,9.7158,9.7055,9.7021,9.6779,9.6462,9.6262,9.6158,9.6109,9.6018,9.6203,9.6246,9.5389,9.4601,9.4219,9.3634,8.593,8.6434,8.6642,8.6953,8.7673,8.9135,8.9842,8.9937,9.0526,9.1209,9.187,9.233,9.279,9.312,9.3203,9.3581,9.4324,9.4795,9.5467,9.6281,9.7063,9.7502,9.7906,9.8097,9.8136,9.8305,9.8627,9.8985,9.8881,9.9567,10.0582,10.0992,10.1171,10.1442,10.1643,10.1713,10.1749,10.1649,10.1583,10.1622,10.1561,10.1534,10.1735,10.2092,10.249,10.2584,10.2563,10.2958,10.28,10.2138,10.2203,10.2359,10.2335,10.1858,10.17,10.1719,10.198,10.2211,10.2267,10.2316,10.2615,10.2797,10.2987,10.3139,10.2936,10.2696,10.2356,10.2154,10.2381,10.2534,10.2603,10.2638,10.2401,10.2229,10.1844,10.143,10.0913,10.0297,10.0125,9.9987,10.0125,10.0366,10.0366,10.0395,10.0499,10.0637,10.0637,10.0504,10.0125,9.9573,9.9159,9.8986,9.936,9.9636,9.9257,9.8981,9.8981,9.8774,9.836,9.8159,9.8153,9.7842,9.7566,9.7394,9.7256,9.709,9.6952,9.6986,9.6992,9.7143,9.7264,9.6864,9.6205,9.5716,9.5025,8.6528,8.6879,8.6904,8.7778,8.903,9.0785,9.1657,9.1846,9.187,9.2,9.2389,9.2967,9.3262,9.3416,9.3558,9.409,9.4894,9.5568,9.6313,9.69,9.7849,9.8373,9.8532,9.8545,9.8985,9.9215,9.9502,9.994,10.0367,10.0831,10.1263,10.1525,10.2084,10.2334,10.2218,10.2149,10.2131,10.2162,10.2116,10.2121,10.2322,10.2463,10.27,10.3219,10.347,10.3619,10.3397,10.365,10.414,10.3672,10.3522,10.3776,10.3517,10.3581,10.3687,10.3561,10.3476,10.3441,10.3413,10.3413,10.3722,10.4064,10.4436,10.4246,10.3874,10.3645,10.3309,10.3127,10.3284,10.3259,10.3293,10.35,10.3466,10.2918,10.2366,10.212,10.1775,10.1287,10.0931,10.0897,10.1064,10.1242,10.1218,10.1218,10.1399,10.176,10.1882,10.171,10.1385,10.0764,10.0464,10.0085,10.009,10.0395,10.0223,10.0016,10.0154,9.9912,9.9326,9.8986,9.8883,9.8463,9.798,9.8049,9.8124,9.7911,9.7773,9.7773,9.7808,9.7917,9.8039,9.8223,9.7855,9.7256,9.6389,8.7112,8.7938,8.8726,8.9814,9.0914,9.148,9.2295,9.312,9.3155,9.3167,9.3308,9.3612,9.3847,9.3979,9.4501,9.5106,9.583,9.6506,9.7444,9.8121,9.8845,9.9143,9.9572,9.9763,10.018,10.0465,10.074,10.1025,10.1511,10.1846,10.2132,10.2491,10.2779,10.2686,10.2996,10.2819,10.2643,10.2844,10.2976,10.292,10.2935,10.302,10.3182,10.3973,10.4471,10.4525,10.4536,10.4942,10.4739,10.4264,10.463,10.4478,10.3952,10.4548,10.4506,10.4169,10.4309,10.4407,10.4379,10.4296,10.4275,10.4331,10.4477,10.4506,10.4426,10.4371,10.4238,10.4129,10.4009,10.3914,10.3983,10.4225,10.4328,10.3604,10.2884,10.2746,10.2573,10.2209,10.1779,10.1877,10.2045,10.209,10.2036,10.2129,10.2345,10.2555,10.2694,10.2659,10.2502,10.2108,10.1933,10.1558,10.0982,10.1016,10.0918,10.0987,10.1056,10.0642,10.0021,9.978,9.9642,9.94,9.9119,9.9119,9.909,9.8774,9.8532,9.8532,9.8601,9.8642,9.8814,9.8969,9.9141,9.8767,9.7858,8.7641,8.853,9.0027,9.1114,9.187,9.2342,9.2979,9.3555,9.3799,9.4128,9.439,9.453,9.4732,9.5005,9.5645,9.6194,9.6849,9.736,9.8039,9.8837,9.9444,9.9755,10.0208,10.078,10.084,10.1077,10.1502,10.1857,10.2524,10.2674,10.2868,10.3026,10.2943,10.3211,10.3684,10.3419,10.3482,10.3816,10.4039,10.3992,10.3857,10.3993,10.4394,10.5137,10.5409,10.5453,10.558,10.5905,10.5803,10.5811,10.6317,10.6283,10.6079,10.6457,10.6556,10.624,10.6029,10.5741,10.5608,10.5222,10.4906,10.5138,10.4625,10.4732,10.4902,10.4817,10.4555,10.438,10.4289,10.4259,10.4259,10.4432,10.4466,10.4052,10.3362,10.2948,10.2603,10.2219,10.2036,10.2071,10.2347,10.2761,10.2736,10.2736,10.2993,10.3438,10.3565,10.3544,10.3368,10.32,10.3087,10.2934,10.2258,10.181,10.1672,10.181,10.1953,10.1435,10.0745,10.0676,10.0573,10.0499,10.0361,10.0056,9.9745,9.9435,9.9262,9.9366,9.9297,9.9331,9.9538,9.9745,9.9883,9.9883,9.91,8.8324,8.9254,9.1067,9.2059,9.24,9.3237,9.366,9.3812,9.4271,9.4975,9.5646,9.5666,9.6002,9.6322,9.6795,9.7203,9.7704,9.8288,9.8788,9.9288,9.973,10.0554,10.1055,10.1257,10.1749,10.2023,10.2318,10.278,10.3302,10.3238,10.3147,10.3128,10.3377,10.3687,10.3963,10.4205,10.4524,10.4827,10.5057,10.5224,10.5313,10.5361,10.5706,10.6072,10.6374,10.6367,10.6367,10.6479,10.6723,10.7003,10.7388,10.7154,10.7183,10.7328,10.7785,10.7609,10.7434,10.7539,10.7574,10.6451,10.6486,10.6429,10.5466,10.504,10.5308,10.5119,10.4827,10.4621,10.4531,10.4501,10.4501,10.4535,10.4535,10.4466,10.3776,10.319,10.2776,10.2564,10.2598,10.2598,10.2943,10.3427,10.3431,10.3431,10.3703,10.4151,10.432,10.4285,10.4207,10.3981,10.3843,10.3728,10.3431,10.2983,10.25,10.25,10.2642,10.212,10.1534,10.1534,10.1465,10.1327,10.1051,10.0642,10.0332,10.0361,10.0332,10.0435,10.0297,10.0021,10.0159,10.0263,9.9883,9.9883,9.9883,8.9523,9.1197,9.2424,9.3073,9.3367,9.3763,9.4005,9.4316,9.5194,9.6047,9.6765,9.7389,9.7523,9.7021,9.7713,9.817,9.8472,9.9131,9.9811,10.0312,10.1007,10.1868,10.2526,10.2824,10.3413,10.3592,10.3589,10.3621,10.3916,10.3659,10.3416,10.3437,10.4089,10.4614,10.5266,10.5438,10.5487,10.5855,10.6006,10.6103,10.6103,10.6197,10.6399,10.6615,10.671,10.6675,10.6731,10.6925,10.7062,10.7215,10.7463,10.7371,10.7485,10.7785,10.8136,10.8557,10.8417,10.8311,10.796,10.7258,10.7223,10.6668,10.5809,10.551,10.5535,10.5272,10.4917,10.4591,10.4501,10.4501,10.4535,10.4634,10.4699,10.4535,10.4121,10.3712,10.3332,10.3689,10.402,10.3991,10.4064,10.4212,10.4121,10.4177,10.4327,10.4698,10.4817,10.4753,10.4573,10.4534,10.447,10.438,10.4259,10.388,10.3229,10.3155,10.3155,10.2638,10.2293,10.2293,10.2224,10.2086,10.1775,10.1361,10.1465,10.1603,10.1573,10.1263,10.109,10.0849,10.0878,10.0775,10.0228,9.9883,9.9883]}]]